<?xml version="1.0" encoding="UTF-8" standalone="no" ?>
<gpx xmlns="http://www.topografix.com/GPX/1/1" xmlns:xsi="http://www.w3.org/2001/XMLSchema-instance" xsi:schemaLocation="http://www.topografix.com/GPX/1/1 http://www.topografix.com/GPX/1/1/gpx.xsd" version="1.1" creator="VisuGPX - https://www.visugpx.com">
  <metadata>
    <name>Vacances 2021</name>
  </metadata>
  <trk>
    <name><![CDATA[Journal actif: 2021-08-02 14:46]]></name>
    <trkseg>
      <trkpt lat="47.09553" lon="-1.00492">
        <ele>101.56</ele>
        <time>2021-08-02T16:46:39Z</time>
      </trkpt>
      <trkpt lat="47.09553" lon="-1.00492">
        <ele>99.63</ele>
        <time>2021-08-02T16:48:35Z</time>
      </trkpt>
      <trkpt lat="47.09553" lon="-1.00492">
        <ele>99.63</ele>
        <time>2021-08-02T16:50:05Z</time>
      </trkpt>
      <trkpt lat="47.09561" lon="-1.00502">
        <ele>99.63</ele>
        <time>2021-08-02T16:50:06Z</time>
      </trkpt>
      <trkpt lat="47.09562" lon="-1.00503">
        <ele>99.63</ele>
        <time>2021-08-02T16:50:07Z</time>
      </trkpt>
      <trkpt lat="47.09569" lon="-1.005">
        <ele>99.63</ele>
        <time>2021-08-02T16:50:08Z</time>
      </trkpt>
      <trkpt lat="47.0957" lon="-1.00499">
        <ele>99.63</ele>
        <time>2021-08-02T16:50:09Z</time>
      </trkpt>
      <trkpt lat="47.0957" lon="-1.00499">
        <ele>99.63</ele>
        <time>2021-08-02T16:50:10Z</time>
      </trkpt>
      <trkpt lat="47.09574" lon="-1.00497">
        <ele>99.63</ele>
        <time>2021-08-02T16:50:11Z</time>
      </trkpt>
      <trkpt lat="47.09577" lon="-1.00496">
        <ele>100.11</ele>
        <time>2021-08-02T16:50:12Z</time>
      </trkpt>
      <trkpt lat="47.09578" lon="-1.00495">
        <ele>100.11</ele>
        <time>2021-08-02T16:50:13Z</time>
      </trkpt>
      <trkpt lat="47.09615" lon="-1.00469">
        <ele>101.08</ele>
        <time>2021-08-02T16:50:30Z</time>
      </trkpt>
      <trkpt lat="47.09624" lon="-1.00455">
        <ele>101.56</ele>
        <time>2021-08-02T16:50:40Z</time>
      </trkpt>
      <trkpt lat="47.09634" lon="-1.00444">
        <ele>102.04</ele>
        <time>2021-08-02T16:50:46Z</time>
      </trkpt>
      <trkpt lat="47.09636" lon="-1.00442">
        <ele>102.04</ele>
        <time>2021-08-02T16:50:47Z</time>
      </trkpt>
      <trkpt lat="47.09639" lon="-1.00444">
        <ele>102.04</ele>
        <time>2021-08-02T16:50:48Z</time>
      </trkpt>
      <trkpt lat="47.09639" lon="-1.00444">
        <ele>102.52</ele>
        <time>2021-08-02T16:50:49Z</time>
      </trkpt>
      <trkpt lat="47.09642" lon="-1.00446">
        <ele>102.52</ele>
        <time>2021-08-02T16:50:50Z</time>
      </trkpt>
      <trkpt lat="47.09669" lon="-1.00479">
        <ele>104.44</ele>
        <time>2021-08-02T16:51:01Z</time>
      </trkpt>
      <trkpt lat="47.09693" lon="-1.00501">
        <ele>104.92</ele>
        <time>2021-08-02T16:51:11Z</time>
      </trkpt>
      <trkpt lat="47.09692" lon="-1.00504">
        <ele>104.44</ele>
        <time>2021-08-02T16:51:12Z</time>
      </trkpt>
      <trkpt lat="47.09692" lon="-1.00504">
        <ele>104.44</ele>
        <time>2021-08-02T16:51:13Z</time>
      </trkpt>
      <trkpt lat="47.09691" lon="-1.0051">
        <ele>104.44</ele>
        <time>2021-08-02T16:51:14Z</time>
      </trkpt>
      <trkpt lat="47.09689" lon="-1.00516">
        <ele>104.44</ele>
        <time>2021-08-02T16:51:15Z</time>
      </trkpt>
      <trkpt lat="47.09688" lon="-1.00519">
        <ele>104.44</ele>
        <time>2021-08-02T16:51:16Z</time>
      </trkpt>
      <trkpt lat="47.09683" lon="-1.00522">
        <ele>104.44</ele>
        <time>2021-08-02T16:51:17Z</time>
      </trkpt>
      <trkpt lat="47.09677" lon="-1.00524">
        <ele>104.44</ele>
        <time>2021-08-02T16:51:18Z</time>
      </trkpt>
      <trkpt lat="47.09662" lon="-1.00515">
        <ele>104.92</ele>
        <time>2021-08-02T16:51:19Z</time>
      </trkpt>
      <trkpt lat="47.09662" lon="-1.00515">
        <ele>104.92</ele>
        <time>2021-08-02T16:51:20Z</time>
      </trkpt>
      <trkpt lat="47.09648" lon="-1.00524">
        <ele>104.44</ele>
        <time>2021-08-02T16:51:21Z</time>
      </trkpt>
      <trkpt lat="47.09556" lon="-1.00588">
        <ele>104.92</ele>
        <time>2021-08-02T16:51:33Z</time>
      </trkpt>
      <trkpt lat="47.09476" lon="-1.00634">
        <ele>104.92</ele>
        <time>2021-08-02T16:51:43Z</time>
      </trkpt>
      <trkpt lat="47.09469" lon="-1.00637">
        <ele>104.92</ele>
        <time>2021-08-02T16:51:44Z</time>
      </trkpt>
      <trkpt lat="47.09462" lon="-1.0064">
        <ele>104.92</ele>
        <time>2021-08-02T16:51:45Z</time>
      </trkpt>
      <trkpt lat="47.09456" lon="-1.00669">
        <ele>104.92</ele>
        <time>2021-08-02T16:51:47Z</time>
      </trkpt>
      <trkpt lat="47.09449" lon="-1.00676">
        <ele>105.4</ele>
        <time>2021-08-02T16:51:48Z</time>
      </trkpt>
      <trkpt lat="47.09443" lon="-1.00679">
        <ele>105.4</ele>
        <time>2021-08-02T16:51:49Z</time>
      </trkpt>
      <trkpt lat="47.09438" lon="-1.00682">
        <ele>105.4</ele>
        <time>2021-08-02T16:51:50Z</time>
      </trkpt>
      <trkpt lat="47.09432" lon="-1.00677">
        <ele>105.4</ele>
        <time>2021-08-02T16:51:51Z</time>
      </trkpt>
      <trkpt lat="47.09428" lon="-1.00673">
        <ele>104.92</ele>
        <time>2021-08-02T16:51:52Z</time>
      </trkpt>
      <trkpt lat="47.09421" lon="-1.00671">
        <ele>104.92</ele>
        <time>2021-08-02T16:51:53Z</time>
      </trkpt>
      <trkpt lat="47.09415" lon="-1.0067">
        <ele>104.92</ele>
        <time>2021-08-02T16:51:54Z</time>
      </trkpt>
      <trkpt lat="47.09408" lon="-1.00669">
        <ele>104.92</ele>
        <time>2021-08-02T16:51:55Z</time>
      </trkpt>
      <trkpt lat="47.09294" lon="-1.00698">
        <ele>105.4</ele>
        <time>2021-08-02T16:52:07Z</time>
      </trkpt>
      <trkpt lat="47.09258" lon="-1.00706">
        <ele>104.44</ele>
        <time>2021-08-02T16:52:11Z</time>
      </trkpt>
      <trkpt lat="47.09251" lon="-1.00715">
        <ele>104.44</ele>
        <time>2021-08-02T16:52:12Z</time>
      </trkpt>
      <trkpt lat="47.09235" lon="-1.00744">
        <ele>104.44</ele>
        <time>2021-08-02T16:52:15Z</time>
      </trkpt>
      <trkpt lat="47.09235" lon="-1.00744">
        <ele>104.44</ele>
        <time>2021-08-02T16:52:16Z</time>
      </trkpt>
      <trkpt lat="47.09229" lon="-1.00747">
        <ele>104.44</ele>
        <time>2021-08-02T16:52:17Z</time>
      </trkpt>
      <trkpt lat="47.09222" lon="-1.00746">
        <ele>104.44</ele>
        <time>2021-08-02T16:52:18Z</time>
      </trkpt>
      <trkpt lat="47.09217" lon="-1.00744">
        <ele>104.44</ele>
        <time>2021-08-02T16:52:19Z</time>
      </trkpt>
      <trkpt lat="47.09213" lon="-1.00736">
        <ele>104.44</ele>
        <time>2021-08-02T16:52:20Z</time>
      </trkpt>
      <trkpt lat="47.09209" lon="-1.00729">
        <ele>104.44</ele>
        <time>2021-08-02T16:52:21Z</time>
      </trkpt>
      <trkpt lat="47.09206" lon="-1.00722">
        <ele>103.96</ele>
        <time>2021-08-02T16:52:22Z</time>
      </trkpt>
      <trkpt lat="47.09207" lon="-1.00714">
        <ele>103.96</ele>
        <time>2021-08-02T16:52:23Z</time>
      </trkpt>
      <trkpt lat="47.09207" lon="-1.00704">
        <ele>103.96</ele>
        <time>2021-08-02T16:52:24Z</time>
      </trkpt>
      <trkpt lat="47.09209" lon="-1.00694">
        <ele>103.96</ele>
        <time>2021-08-02T16:52:25Z</time>
      </trkpt>
      <trkpt lat="47.09219" lon="-1.00675">
        <ele>103.48</ele>
        <time>2021-08-02T16:52:26Z</time>
      </trkpt>
      <trkpt lat="47.09219" lon="-1.00675">
        <ele>103.48</ele>
        <time>2021-08-02T16:52:27Z</time>
      </trkpt>
      <trkpt lat="47.09221" lon="-1.00663">
        <ele>103</ele>
        <time>2021-08-02T16:52:28Z</time>
      </trkpt>
      <trkpt lat="47.09227" lon="-1.00638">
        <ele>103</ele>
        <time>2021-08-02T16:52:29Z</time>
      </trkpt>
      <trkpt lat="47.09227" lon="-1.00638">
        <ele>102.52</ele>
        <time>2021-08-02T16:52:30Z</time>
      </trkpt>
      <trkpt lat="47.09238" lon="-1.00479">
        <ele>98.19</ele>
        <time>2021-08-02T16:52:39Z</time>
      </trkpt>
      <trkpt lat="47.09218" lon="-1.00299">
        <ele>95.31</ele>
        <time>2021-08-02T16:52:47Z</time>
      </trkpt>
      <trkpt lat="47.09159" lon="-1.00012">
        <ele>90.98</ele>
        <time>2021-08-02T16:52:56Z</time>
      </trkpt>
      <trkpt lat="47.0909" lon="-0.99661">
        <ele>84.73</ele>
        <time>2021-08-02T16:53:07Z</time>
      </trkpt>
      <trkpt lat="47.08965" lon="-0.99022">
        <ele>82.33</ele>
        <time>2021-08-02T16:53:25Z</time>
      </trkpt>
      <trkpt lat="47.08825" lon="-0.98386">
        <ele>80.89</ele>
        <time>2021-08-02T16:53:43Z</time>
      </trkpt>
      <trkpt lat="47.0867" lon="-0.97943">
        <ele>82.33</ele>
        <time>2021-08-02T16:53:55Z</time>
      </trkpt>
      <trkpt lat="47.08522" lon="-0.97617">
        <ele>88.1</ele>
        <time>2021-08-02T16:54:07Z</time>
      </trkpt>
      <trkpt lat="47.08231" lon="-0.97025">
        <ele>97.23</ele>
        <time>2021-08-02T16:54:27Z</time>
      </trkpt>
      <trkpt lat="47.08035" lon="-0.96553">
        <ele>103</ele>
        <time>2021-08-02T16:54:42Z</time>
      </trkpt>
      <trkpt lat="47.079" lon="-0.96092">
        <ele>105.4</ele>
        <time>2021-08-02T16:54:55Z</time>
      </trkpt>
      <trkpt lat="47.07761" lon="-0.95463">
        <ele>105.88</ele>
        <time>2021-08-02T16:55:12Z</time>
      </trkpt>
      <trkpt lat="47.07626" lon="-0.94865">
        <ele>104.44</ele>
        <time>2021-08-02T16:55:29Z</time>
      </trkpt>
      <trkpt lat="47.07498" lon="-0.94495">
        <ele>111.65</ele>
        <time>2021-08-02T16:55:41Z</time>
      </trkpt>
      <trkpt lat="47.07319" lon="-0.94138">
        <ele>120.78</ele>
        <time>2021-08-02T16:55:54Z</time>
      </trkpt>
      <trkpt lat="47.07019" lon="-0.93622">
        <ele>113.57</ele>
        <time>2021-08-02T16:56:13Z</time>
      </trkpt>
      <trkpt lat="47.06782" lon="-0.93258">
        <ele>103.96</ele>
        <time>2021-08-02T16:56:26Z</time>
      </trkpt>
      <trkpt lat="47.06459" lon="-0.92867">
        <ele>91.94</ele>
        <time>2021-08-02T16:56:42Z</time>
      </trkpt>
      <trkpt lat="47.06117" lon="-0.92538">
        <ele>82.33</ele>
        <time>2021-08-02T16:56:58Z</time>
      </trkpt>
      <trkpt lat="47.05756" lon="-0.92264">
        <ele>75.12</ele>
        <time>2021-08-02T16:57:14Z</time>
      </trkpt>
      <trkpt lat="47.0544" lon="-0.9206">
        <ele>73.2</ele>
        <time>2021-08-02T16:57:28Z</time>
      </trkpt>
      <trkpt lat="47.04974" lon="-0.91761">
        <ele>81.37</ele>
        <time>2021-08-02T16:57:49Z</time>
      </trkpt>
      <trkpt lat="47.04705" lon="-0.9156">
        <ele>86.66</ele>
        <time>2021-08-02T16:58:01Z</time>
      </trkpt>
      <trkpt lat="47.04281" lon="-0.91169">
        <ele>90.5</ele>
        <time>2021-08-02T16:58:21Z</time>
      </trkpt>
      <trkpt lat="47.0402" lon="-0.90884">
        <ele>97.23</ele>
        <time>2021-08-02T16:58:34Z</time>
      </trkpt>
      <trkpt lat="47.03719" lon="-0.905">
        <ele>108.29</ele>
        <time>2021-08-02T16:58:51Z</time>
      </trkpt>
      <trkpt lat="47.03437" lon="-0.90077">
        <ele>116.46</ele>
        <time>2021-08-02T16:59:09Z</time>
      </trkpt>
      <trkpt lat="47.03123" lon="-0.89575">
        <ele>121.26</ele>
        <time>2021-08-02T16:59:29Z</time>
      </trkpt>
      <trkpt lat="47.02757" lon="-0.88989">
        <ele>124.15</ele>
        <time>2021-08-02T16:59:51Z</time>
      </trkpt>
      <trkpt lat="47.024" lon="-0.88415">
        <ele>126.55</ele>
        <time>2021-08-02T17:00:12Z</time>
      </trkpt>
      <trkpt lat="47.02109" lon="-0.8799">
        <ele>123.67</ele>
        <time>2021-08-02T17:00:28Z</time>
      </trkpt>
      <trkpt lat="47.01805" lon="-0.87637">
        <ele>116.46</ele>
        <time>2021-08-02T17:00:43Z</time>
      </trkpt>
      <trkpt lat="47.01482" lon="-0.8735">
        <ele>115.01</ele>
        <time>2021-08-02T17:00:57Z</time>
      </trkpt>
      <trkpt lat="47.01178" lon="-0.87139">
        <ele>124.63</ele>
        <time>2021-08-02T17:01:10Z</time>
      </trkpt>
      <trkpt lat="47.00787" lon="-0.86899">
        <ele>134.72</ele>
        <time>2021-08-02T17:01:28Z</time>
      </trkpt>
      <trkpt lat="47.00333" lon="-0.86612">
        <ele>140.97</ele>
        <time>2021-08-02T17:01:49Z</time>
      </trkpt>
      <trkpt lat="47.00053" lon="-0.8636">
        <ele>138.57</ele>
        <time>2021-08-02T17:02:02Z</time>
      </trkpt>
      <trkpt lat="46.99808" lon="-0.86066">
        <ele>135.68</ele>
        <time>2021-08-02T17:02:14Z</time>
      </trkpt>
      <trkpt lat="46.99591" lon="-0.85724">
        <ele>134.72</ele>
        <time>2021-08-02T17:02:26Z</time>
      </trkpt>
      <trkpt lat="46.9931" lon="-0.85204">
        <ele>140.97</ele>
        <time>2021-08-02T17:02:44Z</time>
      </trkpt>
      <trkpt lat="46.98944" lon="-0.84521">
        <ele>149.62</ele>
        <time>2021-08-02T17:03:09Z</time>
      </trkpt>
      <trkpt lat="46.98742" lon="-0.84124">
        <ele>150.58</ele>
        <time>2021-08-02T17:03:24Z</time>
      </trkpt>
      <trkpt lat="46.98543" lon="-0.83615">
        <ele>148.66</ele>
        <time>2021-08-02T17:03:39Z</time>
      </trkpt>
      <trkpt lat="46.98382" lon="-0.8303">
        <ele>149.62</ele>
        <time>2021-08-02T17:03:55Z</time>
      </trkpt>
      <trkpt lat="46.98235" lon="-0.82475">
        <ele>159.72</ele>
        <time>2021-08-02T17:04:12Z</time>
      </trkpt>
      <trkpt lat="46.9813" lon="-0.82218">
        <ele>164.52</ele>
        <time>2021-08-02T17:04:22Z</time>
      </trkpt>
      <trkpt lat="46.97973" lon="-0.81961">
        <ele>164.04</ele>
        <time>2021-08-02T17:04:32Z</time>
      </trkpt>
      <trkpt lat="46.97697" lon="-0.81573">
        <ele>155.39</ele>
        <time>2021-08-02T17:04:47Z</time>
      </trkpt>
      <trkpt lat="46.97401" lon="-0.81136">
        <ele>144.34</ele>
        <time>2021-08-02T17:05:03Z</time>
      </trkpt>
      <trkpt lat="46.97213" lon="-0.80761">
        <ele>140.01</ele>
        <time>2021-08-02T17:05:15Z</time>
      </trkpt>
      <trkpt lat="46.96975" lon="-0.80295">
        <ele>136.64</ele>
        <time>2021-08-02T17:05:30Z</time>
      </trkpt>
      <trkpt lat="46.96784" lon="-0.80019">
        <ele>134.72</ele>
        <time>2021-08-02T17:05:40Z</time>
      </trkpt>
      <trkpt lat="46.96574" lon="-0.79665">
        <ele>131.84</ele>
        <time>2021-08-02T17:05:52Z</time>
      </trkpt>
      <trkpt lat="46.96403" lon="-0.79272">
        <ele>128.95</ele>
        <time>2021-08-02T17:06:04Z</time>
      </trkpt>
      <trkpt lat="46.96226" lon="-0.78812">
        <ele>125.59</ele>
        <time>2021-08-02T17:06:18Z</time>
      </trkpt>
      <trkpt lat="46.95998" lon="-0.78373">
        <ele>123.19</ele>
        <time>2021-08-02T17:06:33Z</time>
      </trkpt>
      <trkpt lat="46.95743" lon="-0.77996">
        <ele>127.03</ele>
        <time>2021-08-02T17:06:48Z</time>
      </trkpt>
      <trkpt lat="46.95246" lon="-0.77285">
        <ele>143.85</ele>
        <time>2021-08-02T17:07:18Z</time>
      </trkpt>
      <trkpt lat="46.95011" lon="-0.76887">
        <ele>152.03</ele>
        <time>2021-08-02T17:07:33Z</time>
      </trkpt>
      <trkpt lat="46.94638" lon="-0.76155">
        <ele>162.6</ele>
        <time>2021-08-02T17:07:59Z</time>
      </trkpt>
      <trkpt lat="46.94352" lon="-0.75689">
        <ele>156.35</ele>
        <time>2021-08-02T17:08:16Z</time>
      </trkpt>
      <trkpt lat="46.93912" lon="-0.75037">
        <ele>152.51</ele>
        <time>2021-08-02T17:08:40Z</time>
      </trkpt>
      <trkpt lat="46.9358" lon="-0.74542">
        <ele>159.24</ele>
        <time>2021-08-02T17:08:58Z</time>
      </trkpt>
      <trkpt lat="46.93371" lon="-0.74154">
        <ele>168.37</ele>
        <time>2021-08-02T17:09:11Z</time>
      </trkpt>
      <trkpt lat="46.93205" lon="-0.73729">
        <ele>172.21</ele>
        <time>2021-08-02T17:09:24Z</time>
      </trkpt>
      <trkpt lat="46.93065" lon="-0.73198">
        <ele>170.77</ele>
        <time>2021-08-02T17:09:38Z</time>
      </trkpt>
      <trkpt lat="46.92929" lon="-0.72538">
        <ele>173.17</ele>
        <time>2021-08-02T17:09:57Z</time>
      </trkpt>
      <trkpt lat="46.92824" lon="-0.72095">
        <ele>177.98</ele>
        <time>2021-08-02T17:10:10Z</time>
      </trkpt>
      <trkpt lat="46.92667" lon="-0.71524">
        <ele>178.94</ele>
        <time>2021-08-02T17:10:27Z</time>
      </trkpt>
      <trkpt lat="46.92449" lon="-0.70739">
        <ele>175.58</ele>
        <time>2021-08-02T17:10:49Z</time>
      </trkpt>
      <trkpt lat="46.92283" lon="-0.70239">
        <ele>172.69</ele>
        <time>2021-08-02T17:11:03Z</time>
      </trkpt>
      <trkpt lat="46.92101" lon="-0.6984">
        <ele>168.85</ele>
        <time>2021-08-02T17:11:15Z</time>
      </trkpt>
      <trkpt lat="46.91712" lon="-0.69069">
        <ele>161.16</ele>
        <time>2021-08-02T17:11:39Z</time>
      </trkpt>
      <trkpt lat="46.91475" lon="-0.68625">
        <ele>150.1</ele>
        <time>2021-08-02T17:11:53Z</time>
      </trkpt>
      <trkpt lat="46.91275" lon="-0.68346">
        <ele>140.01</ele>
        <time>2021-08-02T17:12:03Z</time>
      </trkpt>
      <trkpt lat="46.90979" lon="-0.68036">
        <ele>137.13</ele>
        <time>2021-08-02T17:12:17Z</time>
      </trkpt>
      <trkpt lat="46.90787" lon="-0.67797">
        <ele>143.85</ele>
        <time>2021-08-02T17:12:27Z</time>
      </trkpt>
      <trkpt lat="46.90627" lon="-0.67512">
        <ele>150.58</ele>
        <time>2021-08-02T17:12:37Z</time>
      </trkpt>
      <trkpt lat="46.90328" lon="-0.66903">
        <ele>152.03</ele>
        <time>2021-08-02T17:12:57Z</time>
      </trkpt>
      <trkpt lat="46.90087" lon="-0.66395">
        <ele>138.57</ele>
        <time>2021-08-02T17:13:13Z</time>
      </trkpt>
      <trkpt lat="46.89969" lon="-0.66055">
        <ele>131.84</ele>
        <time>2021-08-02T17:13:23Z</time>
      </trkpt>
      <trkpt lat="46.89874" lon="-0.65625">
        <ele>126.55</ele>
        <time>2021-08-02T17:13:35Z</time>
      </trkpt>
      <trkpt lat="46.89803" lon="-0.65068">
        <ele>133.28</ele>
        <time>2021-08-02T17:13:49Z</time>
      </trkpt>
      <trkpt lat="46.8977" lon="-0.64658">
        <ele>140.49</ele>
        <time>2021-08-02T17:14:01Z</time>
      </trkpt>
      <trkpt lat="46.8974" lon="-0.6406">
        <ele>151.06</ele>
        <time>2021-08-02T17:14:17Z</time>
      </trkpt>
      <trkpt lat="46.89745" lon="-0.63487">
        <ele>167.41</ele>
        <time>2021-08-02T17:14:33Z</time>
      </trkpt>
      <trkpt lat="46.89717" lon="-0.63085">
        <ele>174.14</ele>
        <time>2021-08-02T17:14:44Z</time>
      </trkpt>
      <trkpt lat="46.89632" lon="-0.62654">
        <ele>179.42</ele>
        <time>2021-08-02T17:14:55Z</time>
      </trkpt>
      <trkpt lat="46.8951" lon="-0.62248">
        <ele>187.11</ele>
        <time>2021-08-02T17:15:08Z</time>
      </trkpt>
      <trkpt lat="46.89337" lon="-0.61704">
        <ele>187.59</ele>
        <time>2021-08-02T17:15:24Z</time>
      </trkpt>
      <trkpt lat="46.89148" lon="-0.61209">
        <ele>188.08</ele>
        <time>2021-08-02T17:15:38Z</time>
      </trkpt>
      <trkpt lat="46.88961" lon="-0.60782">
        <ele>193.36</ele>
        <time>2021-08-02T17:15:51Z</time>
      </trkpt>
      <trkpt lat="46.8876" lon="-0.60484">
        <ele>197.21</ele>
        <time>2021-08-02T17:16:02Z</time>
      </trkpt>
      <trkpt lat="46.88524" lon="-0.60238">
        <ele>199.61</ele>
        <time>2021-08-02T17:16:13Z</time>
      </trkpt>
      <trkpt lat="46.88236" lon="-0.59911">
        <ele>202.98</ele>
        <time>2021-08-02T17:16:26Z</time>
      </trkpt>
      <trkpt lat="46.88071" lon="-0.59621">
        <ele>205.38</ele>
        <time>2021-08-02T17:16:36Z</time>
      </trkpt>
      <trkpt lat="46.87847" lon="-0.59123">
        <ele>214.03</ele>
        <time>2021-08-02T17:16:53Z</time>
      </trkpt>
      <trkpt lat="46.87611" lon="-0.58654">
        <ele>222.2</ele>
        <time>2021-08-02T17:17:08Z</time>
      </trkpt>
      <trkpt lat="46.87388" lon="-0.58279">
        <ele>227.49</ele>
        <time>2021-08-02T17:17:23Z</time>
      </trkpt>
      <trkpt lat="46.87141" lon="-0.57912">
        <ele>228.93</ele>
        <time>2021-08-02T17:17:37Z</time>
      </trkpt>
      <trkpt lat="46.86893" lon="-0.57635">
        <ele>226.05</ele>
        <time>2021-08-02T17:17:49Z</time>
      </trkpt>
      <trkpt lat="46.86341" lon="-0.57076">
        <ele>221.72</ele>
        <time>2021-08-02T17:18:15Z</time>
      </trkpt>
      <trkpt lat="46.85791" lon="-0.56556">
        <ele>217.4</ele>
        <time>2021-08-02T17:18:41Z</time>
      </trkpt>
      <trkpt lat="46.85574" lon="-0.56304">
        <ele>218.84</ele>
        <time>2021-08-02T17:18:52Z</time>
      </trkpt>
      <trkpt lat="46.8537" lon="-0.55973">
        <ele>221.24</ele>
        <time>2021-08-02T17:19:04Z</time>
      </trkpt>
      <trkpt lat="46.85215" lon="-0.55624">
        <ele>219.8</ele>
        <time>2021-08-02T17:19:15Z</time>
      </trkpt>
      <trkpt lat="46.85099" lon="-0.55237">
        <ele>218.36</ele>
        <time>2021-08-02T17:19:26Z</time>
      </trkpt>
      <trkpt lat="46.85017" lon="-0.54783">
        <ele>217.88</ele>
        <time>2021-08-02T17:19:38Z</time>
      </trkpt>
      <trkpt lat="46.84888" lon="-0.53875">
        <ele>211.63</ele>
        <time>2021-08-02T17:20:01Z</time>
      </trkpt>
      <trkpt lat="46.84852" lon="-0.53481">
        <ele>207.78</ele>
        <time>2021-08-02T17:20:11Z</time>
      </trkpt>
      <trkpt lat="46.84872" lon="-0.53121">
        <ele>202.49</ele>
        <time>2021-08-02T17:20:20Z</time>
      </trkpt>
      <trkpt lat="46.84947" lon="-0.52738">
        <ele>198.17</ele>
        <time>2021-08-02T17:20:29Z</time>
      </trkpt>
      <trkpt lat="46.85061" lon="-0.52419">
        <ele>196.25</ele>
        <time>2021-08-02T17:20:39Z</time>
      </trkpt>
      <trkpt lat="46.85216" lon="-0.5214">
        <ele>191.44</ele>
        <time>2021-08-02T17:20:48Z</time>
      </trkpt>
      <trkpt lat="46.85468" lon="-0.51734">
        <ele>181.35</ele>
        <time>2021-08-02T17:21:01Z</time>
      </trkpt>
      <trkpt lat="46.85703" lon="-0.51288">
        <ele>174.14</ele>
        <time>2021-08-02T17:21:17Z</time>
      </trkpt>
      <trkpt lat="46.85817" lon="-0.50948">
        <ele>168.85</ele>
        <time>2021-08-02T17:21:27Z</time>
      </trkpt>
      <trkpt lat="46.85871" lon="-0.50618">
        <ele>163.56</ele>
        <time>2021-08-02T17:21:36Z</time>
      </trkpt>
      <trkpt lat="46.8588" lon="-0.50283">
        <ele>154.91</ele>
        <time>2021-08-02T17:21:45Z</time>
      </trkpt>
      <trkpt lat="46.85839" lon="-0.49908">
        <ele>145.3</ele>
        <time>2021-08-02T17:21:55Z</time>
      </trkpt>
      <trkpt lat="46.8572" lon="-0.4934">
        <ele>132.8</ele>
        <time>2021-08-02T17:22:10Z</time>
      </trkpt>
      <trkpt lat="46.85602" lon="-0.48782">
        <ele>140.49</ele>
        <time>2021-08-02T17:22:25Z</time>
      </trkpt>
      <trkpt lat="46.85506" lon="-0.48329">
        <ele>154.91</ele>
        <time>2021-08-02T17:22:39Z</time>
      </trkpt>
      <trkpt lat="46.85398" lon="-0.47834">
        <ele>167.89</ele>
        <time>2021-08-02T17:22:56Z</time>
      </trkpt>
      <trkpt lat="46.85299" lon="-0.47594">
        <ele>171.73</ele>
        <time>2021-08-02T17:23:05Z</time>
      </trkpt>
      <trkpt lat="46.8517" lon="-0.47404">
        <ele>175.1</ele>
        <time>2021-08-02T17:23:13Z</time>
      </trkpt>
      <trkpt lat="46.84988" lon="-0.47245">
        <ele>177.5</ele>
        <time>2021-08-02T17:23:22Z</time>
      </trkpt>
      <trkpt lat="46.8458" lon="-0.46934">
        <ele>188.08</ele>
        <time>2021-08-02T17:23:41Z</time>
      </trkpt>
      <trkpt lat="46.84189" lon="-0.46628">
        <ele>187.11</ele>
        <time>2021-08-02T17:23:59Z</time>
      </trkpt>
      <trkpt lat="46.84003" lon="-0.46426">
        <ele>184.23</ele>
        <time>2021-08-02T17:24:08Z</time>
      </trkpt>
      <trkpt lat="46.83833" lon="-0.4614">
        <ele>181.83</ele>
        <time>2021-08-02T17:24:18Z</time>
      </trkpt>
      <trkpt lat="46.8372" lon="-0.45838">
        <ele>178.46</ele>
        <time>2021-08-02T17:24:27Z</time>
      </trkpt>
      <trkpt lat="46.8365" lon="-0.45512">
        <ele>176.06</ele>
        <time>2021-08-02T17:24:36Z</time>
      </trkpt>
      <trkpt lat="46.83626" lon="-0.45137">
        <ele>176.06</ele>
        <time>2021-08-02T17:24:45Z</time>
      </trkpt>
      <trkpt lat="46.83625" lon="-0.44638">
        <ele>174.14</ele>
        <time>2021-08-02T17:24:58Z</time>
      </trkpt>
      <trkpt lat="46.83577" lon="-0.44314">
        <ele>172.69</ele>
        <time>2021-08-02T17:25:07Z</time>
      </trkpt>
      <trkpt lat="46.835" lon="-0.4404">
        <ele>171.73</ele>
        <time>2021-08-02T17:25:16Z</time>
      </trkpt>
      <trkpt lat="46.83423" lon="-0.43827">
        <ele>171.73</ele>
        <time>2021-08-02T17:25:27Z</time>
      </trkpt>
      <trkpt lat="46.83373" lon="-0.43702">
        <ele>174.62</ele>
        <time>2021-08-02T17:25:36Z</time>
      </trkpt>
      <trkpt lat="46.83364" lon="-0.43685">
        <ele>175.58</ele>
        <time>2021-08-02T17:25:38Z</time>
      </trkpt>
      <trkpt lat="46.8336" lon="-0.43677">
        <ele>176.06</ele>
        <time>2021-08-02T17:25:39Z</time>
      </trkpt>
      <trkpt lat="46.83354" lon="-0.43676">
        <ele>176.54</ele>
        <time>2021-08-02T17:25:40Z</time>
      </trkpt>
      <trkpt lat="46.83339" lon="-0.43668">
        <ele>177.02</ele>
        <time>2021-08-02T17:25:42Z</time>
      </trkpt>
      <trkpt lat="46.83335" lon="-0.43661">
        <ele>177.02</ele>
        <time>2021-08-02T17:25:43Z</time>
      </trkpt>
      <trkpt lat="46.83324" lon="-0.43643">
        <ele>177.02</ele>
        <time>2021-08-02T17:25:44Z</time>
      </trkpt>
      <trkpt lat="46.83324" lon="-0.43643">
        <ele>177.02</ele>
        <time>2021-08-02T17:25:45Z</time>
      </trkpt>
      <trkpt lat="46.83323" lon="-0.43632">
        <ele>176.54</ele>
        <time>2021-08-02T17:25:46Z</time>
      </trkpt>
      <trkpt lat="46.83322" lon="-0.43621">
        <ele>176.54</ele>
        <time>2021-08-02T17:25:47Z</time>
      </trkpt>
      <trkpt lat="46.83322" lon="-0.43609">
        <ele>176.06</ele>
        <time>2021-08-02T17:25:48Z</time>
      </trkpt>
      <trkpt lat="46.83318" lon="-0.43597">
        <ele>176.06</ele>
        <time>2021-08-02T17:25:49Z</time>
      </trkpt>
      <trkpt lat="46.83314" lon="-0.43584">
        <ele>174.62</ele>
        <time>2021-08-02T17:25:50Z</time>
      </trkpt>
      <trkpt lat="46.83308" lon="-0.43573">
        <ele>173.66</ele>
        <time>2021-08-02T17:25:51Z</time>
      </trkpt>
      <trkpt lat="46.83301" lon="-0.43561">
        <ele>174.62</ele>
        <time>2021-08-02T17:25:52Z</time>
      </trkpt>
      <trkpt lat="46.83237" lon="-0.4343">
        <ele>172.69</ele>
        <time>2021-08-02T17:26:01Z</time>
      </trkpt>
      <trkpt lat="46.83131" lon="-0.43205">
        <ele>170.77</ele>
        <time>2021-08-02T17:26:12Z</time>
      </trkpt>
      <trkpt lat="46.8297" lon="-0.42861">
        <ele>166.93</ele>
        <time>2021-08-02T17:26:27Z</time>
      </trkpt>
      <trkpt lat="46.82801" lon="-0.42502">
        <ele>156.83</ele>
        <time>2021-08-02T17:26:44Z</time>
      </trkpt>
      <trkpt lat="46.82715" lon="-0.42322">
        <ele>151.54</ele>
        <time>2021-08-02T17:26:56Z</time>
      </trkpt>
      <trkpt lat="46.82615" lon="-0.42109">
        <ele>145.78</ele>
        <time>2021-08-02T17:27:10Z</time>
      </trkpt>
      <trkpt lat="46.82549" lon="-0.4197">
        <ele>144.82</ele>
        <time>2021-08-02T17:27:20Z</time>
      </trkpt>
      <trkpt lat="46.82447" lon="-0.41753">
        <ele>146.26</ele>
        <time>2021-08-02T17:27:35Z</time>
      </trkpt>
      <trkpt lat="46.82292" lon="-0.41419">
        <ele>145.78</ele>
        <time>2021-08-02T17:27:58Z</time>
      </trkpt>
      <trkpt lat="46.82202" lon="-0.4123">
        <ele>145.3</ele>
        <time>2021-08-02T17:28:08Z</time>
      </trkpt>
      <trkpt lat="46.82106" lon="-0.41025">
        <ele>153.95</ele>
        <time>2021-08-02T17:28:18Z</time>
      </trkpt>
      <trkpt lat="46.81966" lon="-0.40727">
        <ele>147.22</ele>
        <time>2021-08-02T17:28:30Z</time>
      </trkpt>
      <trkpt lat="46.81757" lon="-0.40283">
        <ele>145.78</ele>
        <time>2021-08-02T17:28:47Z</time>
      </trkpt>
      <trkpt lat="46.81537" lon="-0.39816">
        <ele>141.45</ele>
        <time>2021-08-02T17:29:05Z</time>
      </trkpt>
      <trkpt lat="46.81404" lon="-0.39532">
        <ele>144.82</ele>
        <time>2021-08-02T17:29:17Z</time>
      </trkpt>
      <trkpt lat="46.81228" lon="-0.39157">
        <ele>147.22</ele>
        <time>2021-08-02T17:29:33Z</time>
      </trkpt>
      <trkpt lat="46.81057" lon="-0.38794">
        <ele>155.39</ele>
        <time>2021-08-02T17:29:49Z</time>
      </trkpt>
      <trkpt lat="46.80829" lon="-0.38312">
        <ele>140.49</ele>
        <time>2021-08-02T17:30:10Z</time>
      </trkpt>
      <trkpt lat="46.80631" lon="-0.37891">
        <ele>146.74</ele>
        <time>2021-08-02T17:30:29Z</time>
      </trkpt>
      <trkpt lat="46.80514" lon="-0.37643">
        <ele>143.85</ele>
        <time>2021-08-02T17:30:40Z</time>
      </trkpt>
      <trkpt lat="46.80334" lon="-0.3726">
        <ele>139.05</ele>
        <time>2021-08-02T17:30:56Z</time>
      </trkpt>
      <trkpt lat="46.80155" lon="-0.36876">
        <ele>136.64</ele>
        <time>2021-08-02T17:31:11Z</time>
      </trkpt>
      <trkpt lat="46.80099" lon="-0.36707">
        <ele>138.09</ele>
        <time>2021-08-02T17:31:19Z</time>
      </trkpt>
      <trkpt lat="46.80015" lon="-0.36336">
        <ele>127.99</ele>
        <time>2021-08-02T17:31:34Z</time>
      </trkpt>
      <trkpt lat="46.79936" lon="-0.36213">
        <ele>130.4</ele>
        <time>2021-08-02T17:31:41Z</time>
      </trkpt>
      <trkpt lat="46.79803" lon="-0.36064">
        <ele>130.4</ele>
        <time>2021-08-02T17:31:55Z</time>
      </trkpt>
      <trkpt lat="46.79694" lon="-0.35938">
        <ele>137.61</ele>
        <time>2021-08-02T17:32:07Z</time>
      </trkpt>
      <trkpt lat="46.79694" lon="-0.35938">
        <ele>138.09</ele>
        <time>2021-08-02T17:32:08Z</time>
      </trkpt>
      <trkpt lat="46.79687" lon="-0.35927">
        <ele>138.57</ele>
        <time>2021-08-02T17:32:09Z</time>
      </trkpt>
      <trkpt lat="46.79645" lon="-0.35829">
        <ele>142.41</ele>
        <time>2021-08-02T17:32:19Z</time>
      </trkpt>
      <trkpt lat="46.79642" lon="-0.3582">
        <ele>141.45</ele>
        <time>2021-08-02T17:32:29Z</time>
      </trkpt>
      <trkpt lat="46.7964" lon="-0.35815">
        <ele>141.45</ele>
        <time>2021-08-02T17:38:01Z</time>
      </trkpt>
      <trkpt lat="46.79627" lon="-0.35725">
        <ele>141.45</ele>
        <time>2021-08-02T17:38:11Z</time>
      </trkpt>
      <trkpt lat="46.79624" lon="-0.35695">
        <ele>142.89</ele>
        <time>2021-08-02T17:38:14Z</time>
      </trkpt>
      <trkpt lat="46.79623" lon="-0.35687">
        <ele>143.37</ele>
        <time>2021-08-02T17:38:15Z</time>
      </trkpt>
      <trkpt lat="46.79584" lon="-0.35594">
        <ele>146.74</ele>
        <time>2021-08-02T17:38:24Z</time>
      </trkpt>
      <trkpt lat="46.79492" lon="-0.35387">
        <ele>150.58</ele>
        <time>2021-08-02T17:38:38Z</time>
      </trkpt>
      <trkpt lat="46.79382" lon="-0.35142">
        <ele>152.51</ele>
        <time>2021-08-02T17:38:51Z</time>
      </trkpt>
      <trkpt lat="46.79257" lon="-0.34853">
        <ele>158.75</ele>
        <time>2021-08-02T17:39:05Z</time>
      </trkpt>
      <trkpt lat="46.79131" lon="-0.34581">
        <ele>163.08</ele>
        <time>2021-08-02T17:39:20Z</time>
      </trkpt>
      <trkpt lat="46.79007" lon="-0.34409">
        <ele>160.68</ele>
        <time>2021-08-02T17:39:30Z</time>
      </trkpt>
      <trkpt lat="46.7877" lon="-0.34114">
        <ele>150.1</ele>
        <time>2021-08-02T17:39:46Z</time>
      </trkpt>
      <trkpt lat="46.78485" lon="-0.33756">
        <ele>144.82</ele>
        <time>2021-08-02T17:40:04Z</time>
      </trkpt>
      <trkpt lat="46.78263" lon="-0.33479">
        <ele>152.51</ele>
        <time>2021-08-02T17:40:21Z</time>
      </trkpt>
      <trkpt lat="46.78052" lon="-0.33215">
        <ele>156.83</ele>
        <time>2021-08-02T17:40:37Z</time>
      </trkpt>
      <trkpt lat="46.77817" lon="-0.32924">
        <ele>161.16</ele>
        <time>2021-08-02T17:40:54Z</time>
      </trkpt>
      <trkpt lat="46.77619" lon="-0.32676">
        <ele>162.6</ele>
        <time>2021-08-02T17:41:08Z</time>
      </trkpt>
      <trkpt lat="46.77421" lon="-0.3243">
        <ele>163.08</ele>
        <time>2021-08-02T17:41:24Z</time>
      </trkpt>
      <trkpt lat="46.77241" lon="-0.32205">
        <ele>165</ele>
        <time>2021-08-02T17:41:37Z</time>
      </trkpt>
      <trkpt lat="46.76999" lon="-0.31903">
        <ele>166.45</ele>
        <time>2021-08-02T17:41:54Z</time>
      </trkpt>
      <trkpt lat="46.76766" lon="-0.31611">
        <ele>176.06</ele>
        <time>2021-08-02T17:42:11Z</time>
      </trkpt>
      <trkpt lat="46.76541" lon="-0.31359">
        <ele>170.77</ele>
        <time>2021-08-02T17:42:27Z</time>
      </trkpt>
      <trkpt lat="46.76379" lon="-0.31277">
        <ele>170.29</ele>
        <time>2021-08-02T17:42:36Z</time>
      </trkpt>
      <trkpt lat="46.7608" lon="-0.31152">
        <ele>164.52</ele>
        <time>2021-08-02T17:42:52Z</time>
      </trkpt>
      <trkpt lat="46.75769" lon="-0.31023">
        <ele>169.81</ele>
        <time>2021-08-02T17:43:09Z</time>
      </trkpt>
      <trkpt lat="46.75452" lon="-0.30891">
        <ele>175.58</ele>
        <time>2021-08-02T17:43:27Z</time>
      </trkpt>
      <trkpt lat="46.75137" lon="-0.3076">
        <ele>178.46</ele>
        <time>2021-08-02T17:43:45Z</time>
      </trkpt>
      <trkpt lat="46.74866" lon="-0.30649">
        <ele>171.73</ele>
        <time>2021-08-02T17:44:00Z</time>
      </trkpt>
      <trkpt lat="46.74519" lon="-0.30506">
        <ele>161.16</ele>
        <time>2021-08-02T17:44:22Z</time>
      </trkpt>
      <trkpt lat="46.74199" lon="-0.30373">
        <ele>156.83</ele>
        <time>2021-08-02T17:44:40Z</time>
      </trkpt>
      <trkpt lat="46.74002" lon="-0.30292">
        <ele>158.75</ele>
        <time>2021-08-02T17:44:50Z</time>
      </trkpt>
      <trkpt lat="46.73714" lon="-0.30172">
        <ele>169.33</ele>
        <time>2021-08-02T17:45:06Z</time>
      </trkpt>
      <trkpt lat="46.73453" lon="-0.30064">
        <ele>177.98</ele>
        <time>2021-08-02T17:45:18Z</time>
      </trkpt>
      <trkpt lat="46.73175" lon="-0.29953">
        <ele>182.31</ele>
        <time>2021-08-02T17:45:30Z</time>
      </trkpt>
      <trkpt lat="46.72935" lon="-0.29902">
        <ele>177.98</ele>
        <time>2021-08-02T17:45:42Z</time>
      </trkpt>
      <trkpt lat="46.72615" lon="-0.29855">
        <ele>167.89</ele>
        <time>2021-08-02T17:45:59Z</time>
      </trkpt>
      <trkpt lat="46.72257" lon="-0.29797">
        <ele>163.08</ele>
        <time>2021-08-02T17:46:17Z</time>
      </trkpt>
      <trkpt lat="46.72125" lon="-0.29731">
        <ele>167.89</ele>
        <time>2021-08-02T17:46:25Z</time>
      </trkpt>
      <trkpt lat="46.71871" lon="-0.29524">
        <ele>174.62</ele>
        <time>2021-08-02T17:46:39Z</time>
      </trkpt>
      <trkpt lat="46.71477" lon="-0.29204">
        <ele>159.72</ele>
        <time>2021-08-02T17:47:01Z</time>
      </trkpt>
      <trkpt lat="46.71265" lon="-0.29033">
        <ele>160.2</ele>
        <time>2021-08-02T17:47:13Z</time>
      </trkpt>
      <trkpt lat="46.70929" lon="-0.28759">
        <ele>148.66</ele>
        <time>2021-08-02T17:47:33Z</time>
      </trkpt>
      <trkpt lat="46.70674" lon="-0.28554">
        <ele>144.82</ele>
        <time>2021-08-02T17:47:47Z</time>
      </trkpt>
      <trkpt lat="46.70362" lon="-0.28302">
        <ele>147.7</ele>
        <time>2021-08-02T17:48:06Z</time>
      </trkpt>
      <trkpt lat="46.70152" lon="-0.28131">
        <ele>151.54</ele>
        <time>2021-08-02T17:48:19Z</time>
      </trkpt>
      <trkpt lat="46.69824" lon="-0.27863">
        <ele>162.6</ele>
        <time>2021-08-02T17:48:39Z</time>
      </trkpt>
      <trkpt lat="46.69455" lon="-0.27567">
        <ele>162.12</ele>
        <time>2021-08-02T17:49:00Z</time>
      </trkpt>
      <trkpt lat="46.69075" lon="-0.27257">
        <ele>165</ele>
        <time>2021-08-02T17:49:22Z</time>
      </trkpt>
      <trkpt lat="46.68761" lon="-0.27003">
        <ele>165.48</ele>
        <time>2021-08-02T17:49:40Z</time>
      </trkpt>
      <trkpt lat="46.68453" lon="-0.26751">
        <ele>166.45</ele>
        <time>2021-08-02T17:49:57Z</time>
      </trkpt>
      <trkpt lat="46.68176" lon="-0.26529">
        <ele>168.37</ele>
        <time>2021-08-02T17:50:14Z</time>
      </trkpt>
      <trkpt lat="46.67912" lon="-0.26315">
        <ele>163.56</ele>
        <time>2021-08-02T17:50:29Z</time>
      </trkpt>
      <trkpt lat="46.67618" lon="-0.26076">
        <ele>166.45</ele>
        <time>2021-08-02T17:50:46Z</time>
      </trkpt>
      <trkpt lat="46.67262" lon="-0.25788">
        <ele>168.37</ele>
        <time>2021-08-02T17:51:07Z</time>
      </trkpt>
      <trkpt lat="46.67181" lon="-0.25721">
        <ele>167.41</ele>
        <time>2021-08-02T17:51:13Z</time>
      </trkpt>
      <trkpt lat="46.67181" lon="-0.25721">
        <ele>166.93</ele>
        <time>2021-08-02T17:51:14Z</time>
      </trkpt>
      <trkpt lat="46.67174" lon="-0.25716">
        <ele>166.93</ele>
        <time>2021-08-02T17:51:15Z</time>
      </trkpt>
      <trkpt lat="46.6717" lon="-0.25713">
        <ele>166.93</ele>
        <time>2021-08-02T17:51:16Z</time>
      </trkpt>
      <trkpt lat="46.67158" lon="-0.25724">
        <ele>166.93</ele>
        <time>2021-08-02T17:51:17Z</time>
      </trkpt>
      <trkpt lat="46.67152" lon="-0.25724">
        <ele>166.93</ele>
        <time>2021-08-02T17:51:18Z</time>
      </trkpt>
      <trkpt lat="46.67146" lon="-0.25717">
        <ele>166.93</ele>
        <time>2021-08-02T17:51:19Z</time>
      </trkpt>
      <trkpt lat="46.67143" lon="-0.25711">
        <ele>167.41</ele>
        <time>2021-08-02T17:51:20Z</time>
      </trkpt>
      <trkpt lat="46.67139" lon="-0.25703">
        <ele>167.41</ele>
        <time>2021-08-02T17:51:21Z</time>
      </trkpt>
      <trkpt lat="46.67138" lon="-0.25702">
        <ele>166.93</ele>
        <time>2021-08-02T17:51:22Z</time>
      </trkpt>
      <trkpt lat="46.6713" lon="-0.25679">
        <ele>166.93</ele>
        <time>2021-08-02T17:51:23Z</time>
      </trkpt>
      <trkpt lat="46.67123" lon="-0.25674">
        <ele>166.93</ele>
        <time>2021-08-02T17:51:24Z</time>
      </trkpt>
      <trkpt lat="46.67022" lon="-0.25589">
        <ele>167.41</ele>
        <time>2021-08-02T17:51:33Z</time>
      </trkpt>
      <trkpt lat="46.66825" lon="-0.25433">
        <ele>168.85</ele>
        <time>2021-08-02T17:51:45Z</time>
      </trkpt>
      <trkpt lat="46.66591" lon="-0.25243">
        <ele>165.48</ele>
        <time>2021-08-02T17:52:01Z</time>
      </trkpt>
      <trkpt lat="46.6651" lon="-0.25178">
        <ele>163.56</ele>
        <time>2021-08-02T17:52:08Z</time>
      </trkpt>
      <trkpt lat="46.66492" lon="-0.25173">
        <ele>163.08</ele>
        <time>2021-08-02T17:52:10Z</time>
      </trkpt>
      <trkpt lat="46.66483" lon="-0.25171">
        <ele>162.6</ele>
        <time>2021-08-02T17:52:11Z</time>
      </trkpt>
      <trkpt lat="46.66467" lon="-0.25171">
        <ele>162.6</ele>
        <time>2021-08-02T17:52:12Z</time>
      </trkpt>
      <trkpt lat="46.66458" lon="-0.25171">
        <ele>162.6</ele>
        <time>2021-08-02T17:52:14Z</time>
      </trkpt>
      <trkpt lat="46.6645" lon="-0.25169">
        <ele>163.08</ele>
        <time>2021-08-02T17:52:15Z</time>
      </trkpt>
      <trkpt lat="46.66443" lon="-0.25168">
        <ele>163.56</ele>
        <time>2021-08-02T17:52:16Z</time>
      </trkpt>
      <trkpt lat="46.66437" lon="-0.25156">
        <ele>163.56</ele>
        <time>2021-08-02T17:52:17Z</time>
      </trkpt>
      <trkpt lat="46.66432" lon="-0.25147">
        <ele>163.56</ele>
        <time>2021-08-02T17:52:18Z</time>
      </trkpt>
      <trkpt lat="46.6643" lon="-0.25138">
        <ele>163.08</ele>
        <time>2021-08-02T17:52:19Z</time>
      </trkpt>
      <trkpt lat="46.66431" lon="-0.25127">
        <ele>162.6</ele>
        <time>2021-08-02T17:52:20Z</time>
      </trkpt>
      <trkpt lat="46.66432" lon="-0.25115">
        <ele>162.6</ele>
        <time>2021-08-02T17:52:21Z</time>
      </trkpt>
      <trkpt lat="46.66436" lon="-0.25107">
        <ele>162.6</ele>
        <time>2021-08-02T17:52:22Z</time>
      </trkpt>
      <trkpt lat="46.66443" lon="-0.25099">
        <ele>162.12</ele>
        <time>2021-08-02T17:52:23Z</time>
      </trkpt>
      <trkpt lat="46.66449" lon="-0.25084">
        <ele>161.64</ele>
        <time>2021-08-02T17:52:24Z</time>
      </trkpt>
      <trkpt lat="46.66452" lon="-0.2507">
        <ele>161.64</ele>
        <time>2021-08-02T17:52:25Z</time>
      </trkpt>
      <trkpt lat="46.66466" lon="-0.24914">
        <ele>160.68</ele>
        <time>2021-08-02T17:52:34Z</time>
      </trkpt>
      <trkpt lat="46.66472" lon="-0.24818">
        <ele>159.72</ele>
        <time>2021-08-02T17:52:42Z</time>
      </trkpt>
      <trkpt lat="46.66472" lon="-0.2481">
        <ele>159.72</ele>
        <time>2021-08-02T17:52:43Z</time>
      </trkpt>
      <trkpt lat="46.66465" lon="-0.24793">
        <ele>159.72</ele>
        <time>2021-08-02T17:52:44Z</time>
      </trkpt>
      <trkpt lat="46.66459" lon="-0.24788">
        <ele>159.72</ele>
        <time>2021-08-02T17:52:46Z</time>
      </trkpt>
      <trkpt lat="46.66458" lon="-0.24768">
        <ele>159.72</ele>
        <time>2021-08-02T17:52:47Z</time>
      </trkpt>
      <trkpt lat="46.66458" lon="-0.24768">
        <ele>159.72</ele>
        <time>2021-08-02T17:52:48Z</time>
      </trkpt>
      <trkpt lat="46.6646" lon="-0.24754">
        <ele>159.72</ele>
        <time>2021-08-02T17:52:49Z</time>
      </trkpt>
      <trkpt lat="46.66468" lon="-0.24749">
        <ele>159.24</ele>
        <time>2021-08-02T17:52:50Z</time>
      </trkpt>
      <trkpt lat="46.66468" lon="-0.24749">
        <ele>159.24</ele>
        <time>2021-08-02T17:52:51Z</time>
      </trkpt>
      <trkpt lat="46.66476" lon="-0.24731">
        <ele>159.24</ele>
        <time>2021-08-02T17:52:52Z</time>
      </trkpt>
      <trkpt lat="46.66476" lon="-0.24719">
        <ele>159.24</ele>
        <time>2021-08-02T17:52:53Z</time>
      </trkpt>
      <trkpt lat="46.66477" lon="-0.24705">
        <ele>159.72</ele>
        <time>2021-08-02T17:52:54Z</time>
      </trkpt>
      <trkpt lat="46.66477" lon="-0.24691">
        <ele>159.72</ele>
        <time>2021-08-02T17:52:55Z</time>
      </trkpt>
      <trkpt lat="46.66488" lon="-0.24486">
        <ele>158.75</ele>
        <time>2021-08-02T17:53:07Z</time>
      </trkpt>
      <trkpt lat="46.66507" lon="-0.24145">
        <ele>157.79</ele>
        <time>2021-08-02T17:53:23Z</time>
      </trkpt>
      <trkpt lat="46.66521" lon="-0.23867">
        <ele>159.72</ele>
        <time>2021-08-02T17:53:36Z</time>
      </trkpt>
      <trkpt lat="46.66531" lon="-0.2372">
        <ele>160.2</ele>
        <time>2021-08-02T17:53:45Z</time>
      </trkpt>
      <trkpt lat="46.66529" lon="-0.23709">
        <ele>160.2</ele>
        <time>2021-08-02T17:53:46Z</time>
      </trkpt>
      <trkpt lat="46.66527" lon="-0.23699">
        <ele>159.72</ele>
        <time>2021-08-02T17:53:47Z</time>
      </trkpt>
      <trkpt lat="46.66516" lon="-0.23691">
        <ele>159.24</ele>
        <time>2021-08-02T17:53:48Z</time>
      </trkpt>
      <trkpt lat="46.66516" lon="-0.23691">
        <ele>158.75</ele>
        <time>2021-08-02T17:53:49Z</time>
      </trkpt>
      <trkpt lat="46.66507" lon="-0.23694">
        <ele>157.79</ele>
        <time>2021-08-02T17:53:50Z</time>
      </trkpt>
      <trkpt lat="46.66507" lon="-0.23694">
        <ele>157.31</ele>
        <time>2021-08-02T17:53:51Z</time>
      </trkpt>
      <trkpt lat="46.6649" lon="-0.23696">
        <ele>156.83</ele>
        <time>2021-08-02T17:53:52Z</time>
      </trkpt>
      <trkpt lat="46.66484" lon="-0.23701">
        <ele>156.35</ele>
        <time>2021-08-02T17:53:53Z</time>
      </trkpt>
      <trkpt lat="46.66328" lon="-0.23819">
        <ele>148.18</ele>
        <time>2021-08-02T17:54:10Z</time>
      </trkpt>
      <trkpt lat="46.66276" lon="-0.23871">
        <ele>144.82</ele>
        <time>2021-08-02T17:54:20Z</time>
      </trkpt>
      <trkpt lat="46.66271" lon="-0.23879">
        <ele>144.34</ele>
        <time>2021-08-02T17:54:21Z</time>
      </trkpt>
      <trkpt lat="46.66263" lon="-0.23884">
        <ele>144.34</ele>
        <time>2021-08-02T17:54:22Z</time>
      </trkpt>
      <trkpt lat="46.6619" lon="-0.23897">
        <ele>143.85</ele>
        <time>2021-08-02T17:54:31Z</time>
      </trkpt>
      <trkpt lat="46.66015" lon="-0.23945">
        <ele>141.93</ele>
        <time>2021-08-02T17:54:44Z</time>
      </trkpt>
      <trkpt lat="46.65839" lon="-0.23975">
        <ele>138.09</ele>
        <time>2021-08-02T17:54:58Z</time>
      </trkpt>
      <trkpt lat="46.65628" lon="-0.23955">
        <ele>132.32</ele>
        <time>2021-08-02T17:55:14Z</time>
      </trkpt>
      <trkpt lat="46.65536" lon="-0.23896">
        <ele>140.49</ele>
        <time>2021-08-02T17:55:23Z</time>
      </trkpt>
      <trkpt lat="46.65459" lon="-0.23791">
        <ele>147.22</ele>
        <time>2021-08-02T17:55:32Z</time>
      </trkpt>
      <trkpt lat="46.65417" lon="-0.23667">
        <ele>151.54</ele>
        <time>2021-08-02T17:55:40Z</time>
      </trkpt>
      <trkpt lat="46.65401" lon="-0.23604">
        <ele>152.51</ele>
        <time>2021-08-02T17:55:45Z</time>
      </trkpt>
      <trkpt lat="46.65396" lon="-0.23595">
        <ele>152.51</ele>
        <time>2021-08-02T17:55:46Z</time>
      </trkpt>
      <trkpt lat="46.65384" lon="-0.23577">
        <ele>152.99</ele>
        <time>2021-08-02T17:55:47Z</time>
      </trkpt>
      <trkpt lat="46.65379" lon="-0.23569">
        <ele>152.99</ele>
        <time>2021-08-02T17:55:48Z</time>
      </trkpt>
      <trkpt lat="46.65379" lon="-0.23569">
        <ele>152.99</ele>
        <time>2021-08-02T17:55:49Z</time>
      </trkpt>
      <trkpt lat="46.65379" lon="-0.23556">
        <ele>152.99</ele>
        <time>2021-08-02T17:55:50Z</time>
      </trkpt>
      <trkpt lat="46.65379" lon="-0.23552">
        <ele>152.99</ele>
        <time>2021-08-02T17:55:51Z</time>
      </trkpt>
      <trkpt lat="46.65385" lon="-0.23534">
        <ele>152.51</ele>
        <time>2021-08-02T17:55:52Z</time>
      </trkpt>
      <trkpt lat="46.65384" lon="-0.23523">
        <ele>152.51</ele>
        <time>2021-08-02T17:55:53Z</time>
      </trkpt>
      <trkpt lat="46.65384" lon="-0.2351">
        <ele>152.51</ele>
        <time>2021-08-02T17:55:54Z</time>
      </trkpt>
      <trkpt lat="46.65383" lon="-0.23495">
        <ele>152.51</ele>
        <time>2021-08-02T17:55:55Z</time>
      </trkpt>
      <trkpt lat="46.65359" lon="-0.23313">
        <ele>155.39</ele>
        <time>2021-08-02T17:56:05Z</time>
      </trkpt>
      <trkpt lat="46.65312" lon="-0.23041">
        <ele>160.2</ele>
        <time>2021-08-02T17:56:18Z</time>
      </trkpt>
      <trkpt lat="46.6524" lon="-0.22844">
        <ele>160.68</ele>
        <time>2021-08-02T17:56:28Z</time>
      </trkpt>
      <trkpt lat="46.6515" lon="-0.22633">
        <ele>154.43</ele>
        <time>2021-08-02T17:56:39Z</time>
      </trkpt>
      <trkpt lat="46.65037" lon="-0.22381">
        <ele>155.87</ele>
        <time>2021-08-02T17:56:52Z</time>
      </trkpt>
      <trkpt lat="46.65009" lon="-0.22325">
        <ele>156.83</ele>
        <time>2021-08-02T17:56:58Z</time>
      </trkpt>
      <trkpt lat="46.64988" lon="-0.22287">
        <ele>157.79</ele>
        <time>2021-08-02T17:57:06Z</time>
      </trkpt>
      <trkpt lat="46.64984" lon="-0.22281">
        <ele>157.79</ele>
        <time>2021-08-02T17:57:07Z</time>
      </trkpt>
      <trkpt lat="46.64972" lon="-0.22273">
        <ele>157.79</ele>
        <time>2021-08-02T17:57:09Z</time>
      </trkpt>
      <trkpt lat="46.64969" lon="-0.22266">
        <ele>157.79</ele>
        <time>2021-08-02T17:57:10Z</time>
      </trkpt>
      <trkpt lat="46.64966" lon="-0.22258">
        <ele>157.79</ele>
        <time>2021-08-02T17:57:11Z</time>
      </trkpt>
      <trkpt lat="46.64958" lon="-0.22229">
        <ele>157.79</ele>
        <time>2021-08-02T17:57:14Z</time>
      </trkpt>
      <trkpt lat="46.64953" lon="-0.22219">
        <ele>157.79</ele>
        <time>2021-08-02T17:57:15Z</time>
      </trkpt>
      <trkpt lat="46.64948" lon="-0.2221">
        <ele>158.27</ele>
        <time>2021-08-02T17:57:16Z</time>
      </trkpt>
      <trkpt lat="46.64864" lon="-0.22102">
        <ele>160.68</ele>
        <time>2021-08-02T17:57:27Z</time>
      </trkpt>
      <trkpt lat="46.64782" lon="-0.22035">
        <ele>164.52</ele>
        <time>2021-08-02T17:57:36Z</time>
      </trkpt>
      <trkpt lat="46.64738" lon="-0.2201">
        <ele>166.45</ele>
        <time>2021-08-02T17:57:44Z</time>
      </trkpt>
      <trkpt lat="46.64715" lon="-0.22001">
        <ele>167.89</ele>
        <time>2021-08-02T17:57:53Z</time>
      </trkpt>
      <trkpt lat="46.64711" lon="-0.22">
        <ele>168.37</ele>
        <time>2021-08-02T17:57:54Z</time>
      </trkpt>
      <trkpt lat="46.64706" lon="-0.21999">
        <ele>168.37</ele>
        <time>2021-08-02T17:57:55Z</time>
      </trkpt>
      <trkpt lat="46.64701" lon="-0.22003">
        <ele>168.85</ele>
        <time>2021-08-02T17:57:56Z</time>
      </trkpt>
      <trkpt lat="46.64697" lon="-0.22007">
        <ele>168.85</ele>
        <time>2021-08-02T17:57:57Z</time>
      </trkpt>
      <trkpt lat="46.64692" lon="-0.22011">
        <ele>169.33</ele>
        <time>2021-08-02T17:57:58Z</time>
      </trkpt>
      <trkpt lat="46.64686" lon="-0.22014">
        <ele>169.81</ele>
        <time>2021-08-02T17:57:59Z</time>
      </trkpt>
      <trkpt lat="46.6468" lon="-0.22015">
        <ele>169.81</ele>
        <time>2021-08-02T17:58:00Z</time>
      </trkpt>
      <trkpt lat="46.64675" lon="-0.22013">
        <ele>170.29</ele>
        <time>2021-08-02T17:58:01Z</time>
      </trkpt>
      <trkpt lat="46.64668" lon="-0.22009">
        <ele>170.29</ele>
        <time>2021-08-02T17:58:02Z</time>
      </trkpt>
      <trkpt lat="46.64662" lon="-0.22005">
        <ele>170.29</ele>
        <time>2021-08-02T17:58:03Z</time>
      </trkpt>
      <trkpt lat="46.64657" lon="-0.22001">
        <ele>170.29</ele>
        <time>2021-08-02T17:58:04Z</time>
      </trkpt>
      <trkpt lat="46.64655" lon="-0.21993">
        <ele>170.29</ele>
        <time>2021-08-02T17:58:05Z</time>
      </trkpt>
      <trkpt lat="46.64652" lon="-0.21984">
        <ele>170.29</ele>
        <time>2021-08-02T17:58:06Z</time>
      </trkpt>
      <trkpt lat="46.6465" lon="-0.21975">
        <ele>169.81</ele>
        <time>2021-08-02T17:58:07Z</time>
      </trkpt>
      <trkpt lat="46.64651" lon="-0.21967">
        <ele>169.33</ele>
        <time>2021-08-02T17:58:08Z</time>
      </trkpt>
      <trkpt lat="46.64655" lon="-0.21958">
        <ele>168.85</ele>
        <time>2021-08-02T17:58:09Z</time>
      </trkpt>
      <trkpt lat="46.64658" lon="-0.21948">
        <ele>168.37</ele>
        <time>2021-08-02T17:58:10Z</time>
      </trkpt>
      <trkpt lat="46.64672" lon="-0.21935">
        <ele>167.89</ele>
        <time>2021-08-02T17:58:11Z</time>
      </trkpt>
      <trkpt lat="46.64672" lon="-0.21935">
        <ele>167.41</ele>
        <time>2021-08-02T17:58:12Z</time>
      </trkpt>
      <trkpt lat="46.64687" lon="-0.21913">
        <ele>166.93</ele>
        <time>2021-08-02T17:58:13Z</time>
      </trkpt>
      <trkpt lat="46.64687" lon="-0.21913">
        <ele>167.41</ele>
        <time>2021-08-02T17:58:14Z</time>
      </trkpt>
      <trkpt lat="46.64689" lon="-0.219">
        <ele>166.93</ele>
        <time>2021-08-02T17:58:15Z</time>
      </trkpt>
      <trkpt lat="46.6469" lon="-0.21885">
        <ele>166.93</ele>
        <time>2021-08-02T17:58:16Z</time>
      </trkpt>
      <trkpt lat="46.64703" lon="-0.2168">
        <ele>165</ele>
        <time>2021-08-02T17:58:28Z</time>
      </trkpt>
      <trkpt lat="46.64715" lon="-0.21458">
        <ele>159.24</ele>
        <time>2021-08-02T17:58:38Z</time>
      </trkpt>
      <trkpt lat="46.64733" lon="-0.2113">
        <ele>147.22</ele>
        <time>2021-08-02T17:58:50Z</time>
      </trkpt>
      <trkpt lat="46.64765" lon="-0.20589">
        <ele>126.55</ele>
        <time>2021-08-02T17:59:07Z</time>
      </trkpt>
      <trkpt lat="46.64791" lon="-0.20114">
        <ele>134.72</ele>
        <time>2021-08-02T17:59:22Z</time>
      </trkpt>
      <trkpt lat="46.64825" lon="-0.19505">
        <ele>142.41</ele>
        <time>2021-08-02T17:59:43Z</time>
      </trkpt>
      <trkpt lat="46.64852" lon="-0.19068">
        <ele>148.18</ele>
        <time>2021-08-02T17:59:59Z</time>
      </trkpt>
      <trkpt lat="46.6487" lon="-0.18636">
        <ele>144.34</ele>
        <time>2021-08-02T18:00:14Z</time>
      </trkpt>
      <trkpt lat="46.64894" lon="-0.18219">
        <ele>151.06</ele>
        <time>2021-08-02T18:00:28Z</time>
      </trkpt>
      <trkpt lat="46.64922" lon="-0.17725">
        <ele>148.18</ele>
        <time>2021-08-02T18:00:46Z</time>
      </trkpt>
      <trkpt lat="46.64952" lon="-0.17222">
        <ele>152.51</ele>
        <time>2021-08-02T18:01:04Z</time>
      </trkpt>
      <trkpt lat="46.64986" lon="-0.1665">
        <ele>153.47</ele>
        <time>2021-08-02T18:01:24Z</time>
      </trkpt>
      <trkpt lat="46.65" lon="-0.16431">
        <ele>154.43</ele>
        <time>2021-08-02T18:01:32Z</time>
      </trkpt>
      <trkpt lat="46.65002" lon="-0.16398">
        <ele>154.43</ele>
        <time>2021-08-02T18:01:35Z</time>
      </trkpt>
      <trkpt lat="46.65002" lon="-0.16383">
        <ele>154.43</ele>
        <time>2021-08-02T18:01:36Z</time>
      </trkpt>
      <trkpt lat="46.65003" lon="-0.1637">
        <ele>154.43</ele>
        <time>2021-08-02T18:01:37Z</time>
      </trkpt>
      <trkpt lat="46.6499" lon="-0.16359">
        <ele>154.43</ele>
        <time>2021-08-02T18:01:38Z</time>
      </trkpt>
      <trkpt lat="46.64988" lon="-0.16344">
        <ele>154.43</ele>
        <time>2021-08-02T18:01:39Z</time>
      </trkpt>
      <trkpt lat="46.64995" lon="-0.16324">
        <ele>154.43</ele>
        <time>2021-08-02T18:01:40Z</time>
      </trkpt>
      <trkpt lat="46.64995" lon="-0.16324">
        <ele>154.91</ele>
        <time>2021-08-02T18:01:41Z</time>
      </trkpt>
      <trkpt lat="46.65006" lon="-0.16311">
        <ele>154.91</ele>
        <time>2021-08-02T18:01:42Z</time>
      </trkpt>
      <trkpt lat="46.65008" lon="-0.16284">
        <ele>155.39</ele>
        <time>2021-08-02T18:01:43Z</time>
      </trkpt>
      <trkpt lat="46.65009" lon="-0.16269">
        <ele>155.39</ele>
        <time>2021-08-02T18:01:44Z</time>
      </trkpt>
      <trkpt lat="46.6501" lon="-0.16252">
        <ele>155.87</ele>
        <time>2021-08-02T18:01:45Z</time>
      </trkpt>
      <trkpt lat="46.65019" lon="-0.16086">
        <ele>157.79</ele>
        <time>2021-08-02T18:01:54Z</time>
      </trkpt>
      <trkpt lat="46.65035" lon="-0.15807">
        <ele>158.75</ele>
        <time>2021-08-02T18:02:06Z</time>
      </trkpt>
      <trkpt lat="46.6505" lon="-0.15554">
        <ele>159.24</ele>
        <time>2021-08-02T18:02:15Z</time>
      </trkpt>
      <trkpt lat="46.65072" lon="-0.15186">
        <ele>158.27</ele>
        <time>2021-08-02T18:02:26Z</time>
      </trkpt>
      <trkpt lat="46.6511" lon="-0.14506">
        <ele>153.95</ele>
        <time>2021-08-02T18:02:44Z</time>
      </trkpt>
      <trkpt lat="46.65154" lon="-0.13744">
        <ele>150.58</ele>
        <time>2021-08-02T18:03:04Z</time>
      </trkpt>
      <trkpt lat="46.65187" lon="-0.13168">
        <ele>157.31</ele>
        <time>2021-08-02T18:03:20Z</time>
      </trkpt>
      <trkpt lat="46.65208" lon="-0.12664">
        <ele>170.29</ele>
        <time>2021-08-02T18:03:35Z</time>
      </trkpt>
      <trkpt lat="46.65239" lon="-0.12093">
        <ele>157.31</ele>
        <time>2021-08-02T18:03:52Z</time>
      </trkpt>
      <trkpt lat="46.65265" lon="-0.11629">
        <ele>166.45</ele>
        <time>2021-08-02T18:04:05Z</time>
      </trkpt>
      <trkpt lat="46.65296" lon="-0.1107">
        <ele>168.37</ele>
        <time>2021-08-02T18:04:24Z</time>
      </trkpt>
      <trkpt lat="46.65319" lon="-0.10601">
        <ele>167.41</ele>
        <time>2021-08-02T18:04:39Z</time>
      </trkpt>
      <trkpt lat="46.6536" lon="-0.10029">
        <ele>172.69</ele>
        <time>2021-08-02T18:05:00Z</time>
      </trkpt>
      <trkpt lat="46.65383" lon="-0.09574">
        <ele>175.58</ele>
        <time>2021-08-02T18:05:17Z</time>
      </trkpt>
      <trkpt lat="46.65405" lon="-0.09172">
        <ele>173.66</ele>
        <time>2021-08-02T18:05:32Z</time>
      </trkpt>
      <trkpt lat="46.65413" lon="-0.0903">
        <ele>174.14</ele>
        <time>2021-08-02T18:05:39Z</time>
      </trkpt>
      <trkpt lat="46.65413" lon="-0.09017">
        <ele>174.14</ele>
        <time>2021-08-02T18:05:40Z</time>
      </trkpt>
      <trkpt lat="46.65415" lon="-0.09005">
        <ele>173.66</ele>
        <time>2021-08-02T18:05:41Z</time>
      </trkpt>
      <trkpt lat="46.654" lon="-0.08985">
        <ele>173.66</ele>
        <time>2021-08-02T18:05:43Z</time>
      </trkpt>
      <trkpt lat="46.65402" lon="-0.08968">
        <ele>173.17</ele>
        <time>2021-08-02T18:05:44Z</time>
      </trkpt>
      <trkpt lat="46.65406" lon="-0.08959">
        <ele>173.17</ele>
        <time>2021-08-02T18:05:45Z</time>
      </trkpt>
      <trkpt lat="46.65407" lon="-0.08959">
        <ele>172.69</ele>
        <time>2021-08-02T18:05:46Z</time>
      </trkpt>
      <trkpt lat="46.65416" lon="-0.08938">
        <ele>172.69</ele>
        <time>2021-08-02T18:05:47Z</time>
      </trkpt>
      <trkpt lat="46.65417" lon="-0.08925">
        <ele>172.21</ele>
        <time>2021-08-02T18:05:48Z</time>
      </trkpt>
      <trkpt lat="46.65417" lon="-0.08911">
        <ele>172.21</ele>
        <time>2021-08-02T18:05:49Z</time>
      </trkpt>
      <trkpt lat="46.65432" lon="-0.08655">
        <ele>170.29</ele>
        <time>2021-08-02T18:06:03Z</time>
      </trkpt>
      <trkpt lat="46.65454" lon="-0.08256">
        <ele>168.85</ele>
        <time>2021-08-02T18:06:24Z</time>
      </trkpt>
      <trkpt lat="46.65485" lon="-0.07695">
        <ele>162.6</ele>
        <time>2021-08-02T18:06:54Z</time>
      </trkpt>
      <trkpt lat="46.65507" lon="-0.07388">
        <ele>166.93</ele>
        <time>2021-08-02T18:07:11Z</time>
      </trkpt>
      <trkpt lat="46.65538" lon="-0.07069">
        <ele>165.96</ele>
        <time>2021-08-02T18:07:28Z</time>
      </trkpt>
      <trkpt lat="46.65566" lon="-0.06792">
        <ele>166.45</ele>
        <time>2021-08-02T18:07:39Z</time>
      </trkpt>
      <trkpt lat="46.65603" lon="-0.06411">
        <ele>163.08</ele>
        <time>2021-08-02T18:07:52Z</time>
      </trkpt>
      <trkpt lat="46.65669" lon="-0.05741">
        <ele>160.2</ele>
        <time>2021-08-02T18:08:14Z</time>
      </trkpt>
      <trkpt lat="46.65718" lon="-0.05243">
        <ele>168.37</ele>
        <time>2021-08-02T18:08:32Z</time>
      </trkpt>
      <trkpt lat="46.65771" lon="-0.04681">
        <ele>170.29</ele>
        <time>2021-08-02T18:08:52Z</time>
      </trkpt>
      <trkpt lat="46.65835" lon="-0.0403">
        <ele>165.96</ele>
        <time>2021-08-02T18:09:14Z</time>
      </trkpt>
      <trkpt lat="46.65899" lon="-0.03381">
        <ele>165.96</ele>
        <time>2021-08-02T18:09:36Z</time>
      </trkpt>
      <trkpt lat="46.65974" lon="-0.02607">
        <ele>163.56</ele>
        <time>2021-08-02T18:10:03Z</time>
      </trkpt>
      <trkpt lat="46.65999" lon="-0.02354">
        <ele>162.6</ele>
        <time>2021-08-02T18:10:12Z</time>
      </trkpt>
      <trkpt lat="46.66002" lon="-0.02325">
        <ele>162.12</ele>
        <time>2021-08-02T18:10:13Z</time>
      </trkpt>
      <trkpt lat="46.66041" lon="-0.01922">
        <ele>159.24</ele>
        <time>2021-08-02T18:10:27Z</time>
      </trkpt>
      <trkpt lat="46.6609" lon="-0.01448">
        <ele>157.31</ele>
        <time>2021-08-02T18:10:43Z</time>
      </trkpt>
      <trkpt lat="46.66126" lon="-0.01062">
        <ele>153.95</ele>
        <time>2021-08-02T18:10:57Z</time>
      </trkpt>
      <trkpt lat="46.66149" lon="-0.00844">
        <ele>160.2</ele>
        <time>2021-08-02T18:11:06Z</time>
      </trkpt>
      <trkpt lat="46.66152" lon="-0.00614">
        <ele>160.68</ele>
        <time>2021-08-02T18:11:18Z</time>
      </trkpt>
      <trkpt lat="46.66146" lon="-0.00297">
        <ele>159.24</ele>
        <time>2021-08-02T18:11:36Z</time>
      </trkpt>
      <trkpt lat="46.66137" lon="-0.00028">
        <ele>153.95</ele>
        <time>2021-08-02T18:11:51Z</time>
      </trkpt>
      <trkpt lat="46.66128" lon="0.00304">
        <ele>158.27</ele>
        <time>2021-08-02T18:12:07Z</time>
      </trkpt>
      <trkpt lat="46.66117" lon="0.00672">
        <ele>158.75</ele>
        <time>2021-08-02T18:12:20Z</time>
      </trkpt>
      <trkpt lat="46.66094" lon="0.0147">
        <ele>160.68</ele>
        <time>2021-08-02T18:12:48Z</time>
      </trkpt>
      <trkpt lat="46.66073" lon="0.02178">
        <ele>158.27</ele>
        <time>2021-08-02T18:13:12Z</time>
      </trkpt>
      <trkpt lat="46.6605" lon="0.02951">
        <ele>156.35</ele>
        <time>2021-08-02T18:13:39Z</time>
      </trkpt>
      <trkpt lat="46.66034" lon="0.03502">
        <ele>155.39</ele>
        <time>2021-08-02T18:13:59Z</time>
      </trkpt>
      <trkpt lat="46.66025" lon="0.03845">
        <ele>152.03</ele>
        <time>2021-08-02T18:14:11Z</time>
      </trkpt>
      <trkpt lat="46.66018" lon="0.0415">
        <ele>146.74</ele>
        <time>2021-08-02T18:14:22Z</time>
      </trkpt>
      <trkpt lat="46.66009" lon="0.04433">
        <ele>151.54</ele>
        <time>2021-08-02T18:14:32Z</time>
      </trkpt>
      <trkpt lat="46.66" lon="0.0474">
        <ele>146.74</ele>
        <time>2021-08-02T18:14:43Z</time>
      </trkpt>
      <trkpt lat="46.65988" lon="0.05202">
        <ele>143.37</ele>
        <time>2021-08-02T18:14:59Z</time>
      </trkpt>
      <trkpt lat="46.65976" lon="0.05533">
        <ele>140.49</ele>
        <time>2021-08-02T18:15:11Z</time>
      </trkpt>
      <trkpt lat="46.65971" lon="0.05817">
        <ele>144.34</ele>
        <time>2021-08-02T18:15:22Z</time>
      </trkpt>
      <trkpt lat="46.65963" lon="0.06084">
        <ele>141.93</ele>
        <time>2021-08-02T18:15:35Z</time>
      </trkpt>
      <trkpt lat="46.65954" lon="0.06341">
        <ele>135.2</ele>
        <time>2021-08-02T18:15:49Z</time>
      </trkpt>
      <trkpt lat="46.65948" lon="0.0656">
        <ele>134.72</ele>
        <time>2021-08-02T18:16:01Z</time>
      </trkpt>
      <trkpt lat="46.65941" lon="0.06813">
        <ele>140.49</ele>
        <time>2021-08-02T18:16:17Z</time>
      </trkpt>
      <trkpt lat="46.65934" lon="0.07088">
        <ele>142.41</ele>
        <time>2021-08-02T18:16:33Z</time>
      </trkpt>
      <trkpt lat="46.65945" lon="0.07271">
        <ele>139.53</ele>
        <time>2021-08-02T18:16:45Z</time>
      </trkpt>
      <trkpt lat="46.66004" lon="0.07496">
        <ele>136.16</ele>
        <time>2021-08-02T18:17:01Z</time>
      </trkpt>
      <trkpt lat="46.66008" lon="0.07658">
        <ele>132.8</ele>
        <time>2021-08-02T18:17:12Z</time>
      </trkpt>
      <trkpt lat="46.65986" lon="0.07907">
        <ele>142.41</ele>
        <time>2021-08-02T18:17:26Z</time>
      </trkpt>
      <trkpt lat="46.65949" lon="0.08142">
        <ele>143.85</ele>
        <time>2021-08-02T18:17:38Z</time>
      </trkpt>
      <trkpt lat="46.65907" lon="0.08405">
        <ele>141.45</ele>
        <time>2021-08-02T18:17:50Z</time>
      </trkpt>
      <trkpt lat="46.65866" lon="0.08662">
        <ele>140.01</ele>
        <time>2021-08-02T18:18:02Z</time>
      </trkpt>
      <trkpt lat="46.6581" lon="0.09022">
        <ele>143.37</ele>
        <time>2021-08-02T18:18:16Z</time>
      </trkpt>
      <trkpt lat="46.6573" lon="0.09521">
        <ele>144.82</ele>
        <time>2021-08-02T18:18:34Z</time>
      </trkpt>
      <trkpt lat="46.65626" lon="0.1017">
        <ele>146.74</ele>
        <time>2021-08-02T18:18:57Z</time>
      </trkpt>
      <trkpt lat="46.65529" lon="0.10781">
        <ele>144.82</ele>
        <time>2021-08-02T18:19:18Z</time>
      </trkpt>
      <trkpt lat="46.65437" lon="0.11354">
        <ele>137.13</ele>
        <time>2021-08-02T18:19:38Z</time>
      </trkpt>
      <trkpt lat="46.65354" lon="0.11865">
        <ele>123.19</ele>
        <time>2021-08-02T18:19:55Z</time>
      </trkpt>
      <trkpt lat="46.65283" lon="0.12318">
        <ele>140.01</ele>
        <time>2021-08-02T18:20:12Z</time>
      </trkpt>
      <trkpt lat="46.65223" lon="0.12709">
        <ele>141.45</ele>
        <time>2021-08-02T18:20:26Z</time>
      </trkpt>
      <trkpt lat="46.65167" lon="0.13116">
        <ele>137.61</ele>
        <time>2021-08-02T18:20:40Z</time>
      </trkpt>
      <trkpt lat="46.65126" lon="0.13428">
        <ele>135.2</ele>
        <time>2021-08-02T18:20:49Z</time>
      </trkpt>
      <trkpt lat="46.65048" lon="0.14033">
        <ele>130.4</ele>
        <time>2021-08-02T18:21:05Z</time>
      </trkpt>
      <trkpt lat="46.6499" lon="0.14492">
        <ele>125.11</ele>
        <time>2021-08-02T18:21:16Z</time>
      </trkpt>
      <trkpt lat="46.64946" lon="0.14833">
        <ele>125.11</ele>
        <time>2021-08-02T18:21:26Z</time>
      </trkpt>
      <trkpt lat="46.64885" lon="0.15316">
        <ele>126.07</ele>
        <time>2021-08-02T18:21:41Z</time>
      </trkpt>
      <trkpt lat="46.64814" lon="0.15857">
        <ele>122.22</ele>
        <time>2021-08-02T18:22:01Z</time>
      </trkpt>
      <trkpt lat="46.64737" lon="0.16434">
        <ele>119.82</ele>
        <time>2021-08-02T18:22:21Z</time>
      </trkpt>
      <trkpt lat="46.64709" lon="0.16642">
        <ele>126.07</ele>
        <time>2021-08-02T18:22:30Z</time>
      </trkpt>
      <trkpt lat="46.64703" lon="0.16699">
        <ele>127.51</ele>
        <time>2021-08-02T18:22:36Z</time>
      </trkpt>
      <trkpt lat="46.64702" lon="0.16706">
        <ele>127.99</ele>
        <time>2021-08-02T18:22:46Z</time>
      </trkpt>
      <trkpt lat="46.64698" lon="0.16737">
        <ele>128.95</ele>
        <time>2021-08-02T18:23:02Z</time>
      </trkpt>
      <trkpt lat="46.64688" lon="0.16823">
        <ele>132.32</ele>
        <time>2021-08-02T18:23:11Z</time>
      </trkpt>
      <trkpt lat="46.64684" lon="0.16853">
        <ele>133.28</ele>
        <time>2021-08-02T18:23:17Z</time>
      </trkpt>
      <trkpt lat="46.64684" lon="0.16855">
        <ele>133.28</ele>
        <time>2021-08-02T18:23:32Z</time>
      </trkpt>
      <trkpt lat="46.64684" lon="0.16855">
        <ele>133.28</ele>
        <time>2021-08-02T18:24:06Z</time>
      </trkpt>
      <trkpt lat="46.64676" lon="0.1691">
        <ele>135.2</ele>
        <time>2021-08-02T18:24:15Z</time>
      </trkpt>
      <trkpt lat="46.6466" lon="0.17037">
        <ele>135.68</ele>
        <time>2021-08-02T18:24:24Z</time>
      </trkpt>
      <trkpt lat="46.64643" lon="0.17153">
        <ele>134.24</ele>
        <time>2021-08-02T18:24:36Z</time>
      </trkpt>
      <trkpt lat="46.64619" lon="0.17333">
        <ele>130.4</ele>
        <time>2021-08-02T18:24:48Z</time>
      </trkpt>
      <trkpt lat="46.64566" lon="0.17739">
        <ele>125.11</ele>
        <time>2021-08-02T18:25:10Z</time>
      </trkpt>
      <trkpt lat="46.64541" lon="0.17929">
        <ele>122.71</ele>
        <time>2021-08-02T18:25:22Z</time>
      </trkpt>
      <trkpt lat="46.64523" lon="0.18062">
        <ele>122.71</ele>
        <time>2021-08-02T18:25:35Z</time>
      </trkpt>
      <trkpt lat="46.64521" lon="0.18072">
        <ele>123.67</ele>
        <time>2021-08-02T18:25:43Z</time>
      </trkpt>
      <trkpt lat="46.64519" lon="0.18089">
        <ele>124.15</ele>
        <time>2021-08-02T18:25:49Z</time>
      </trkpt>
      <trkpt lat="46.64506" lon="0.18099">
        <ele>125.11</ele>
        <time>2021-08-02T18:25:55Z</time>
      </trkpt>
      <trkpt lat="46.64503" lon="0.1811">
        <ele>125.11</ele>
        <time>2021-08-02T18:25:56Z</time>
      </trkpt>
      <trkpt lat="46.64503" lon="0.1811">
        <ele>125.11</ele>
        <time>2021-08-02T18:25:57Z</time>
      </trkpt>
      <trkpt lat="46.64507" lon="0.18121">
        <ele>125.11</ele>
        <time>2021-08-02T18:25:58Z</time>
      </trkpt>
      <trkpt lat="46.64509" lon="0.18129">
        <ele>125.11</ele>
        <time>2021-08-02T18:25:59Z</time>
      </trkpt>
      <trkpt lat="46.6451" lon="0.1813">
        <ele>125.11</ele>
        <time>2021-08-02T18:26:00Z</time>
      </trkpt>
      <trkpt lat="46.64514" lon="0.18152">
        <ele>125.59</ele>
        <time>2021-08-02T18:26:01Z</time>
      </trkpt>
      <trkpt lat="46.6451" lon="0.1818">
        <ele>126.55</ele>
        <time>2021-08-02T18:26:02Z</time>
      </trkpt>
      <trkpt lat="46.64487" lon="0.18351">
        <ele>131.84</ele>
        <time>2021-08-02T18:26:11Z</time>
      </trkpt>
      <trkpt lat="46.64453" lon="0.18608">
        <ele>135.68</ele>
        <time>2021-08-02T18:26:22Z</time>
      </trkpt>
      <trkpt lat="46.64392" lon="0.18991">
        <ele>130.88</ele>
        <time>2021-08-02T18:26:35Z</time>
      </trkpt>
      <trkpt lat="46.64236" lon="0.19632">
        <ele>116.46</ele>
        <time>2021-08-02T18:26:56Z</time>
      </trkpt>
      <trkpt lat="46.64132" lon="0.20062">
        <ele>118.38</ele>
        <time>2021-08-02T18:27:12Z</time>
      </trkpt>
      <trkpt lat="46.64039" lon="0.20443">
        <ele>129.43</ele>
        <time>2021-08-02T18:27:28Z</time>
      </trkpt>
      <trkpt lat="46.63935" lon="0.20871">
        <ele>137.61</ele>
        <time>2021-08-02T18:27:45Z</time>
      </trkpt>
      <trkpt lat="46.63828" lon="0.21312">
        <ele>139.53</ele>
        <time>2021-08-02T18:28:01Z</time>
      </trkpt>
      <trkpt lat="46.6373" lon="0.21718">
        <ele>127.51</ele>
        <time>2021-08-02T18:28:15Z</time>
      </trkpt>
      <trkpt lat="46.63597" lon="0.22276">
        <ele>131.36</ele>
        <time>2021-08-02T18:28:34Z</time>
      </trkpt>
      <trkpt lat="46.63472" lon="0.22785">
        <ele>134.24</ele>
        <time>2021-08-02T18:28:52Z</time>
      </trkpt>
      <trkpt lat="46.63383" lon="0.2315">
        <ele>139.05</ele>
        <time>2021-08-02T18:29:05Z</time>
      </trkpt>
      <trkpt lat="46.63265" lon="0.23639">
        <ele>146.74</ele>
        <time>2021-08-02T18:29:24Z</time>
      </trkpt>
      <trkpt lat="46.63141" lon="0.24175">
        <ele>147.7</ele>
        <time>2021-08-02T18:29:44Z</time>
      </trkpt>
      <trkpt lat="46.63084" lon="0.24594">
        <ele>143.37</ele>
        <time>2021-08-02T18:30:00Z</time>
      </trkpt>
      <trkpt lat="46.63049" lon="0.24965">
        <ele>133.76</ele>
        <time>2021-08-02T18:30:13Z</time>
      </trkpt>
      <trkpt lat="46.63018" lon="0.25577">
        <ele>119.82</ele>
        <time>2021-08-02T18:30:33Z</time>
      </trkpt>
      <trkpt lat="46.62968" lon="0.2594">
        <ele>115.01</ele>
        <time>2021-08-02T18:30:48Z</time>
      </trkpt>
      <trkpt lat="46.62941" lon="0.2619">
        <ele>110.69</ele>
        <time>2021-08-02T18:31:00Z</time>
      </trkpt>
      <trkpt lat="46.62935" lon="0.26254">
        <ele>110.69</ele>
        <time>2021-08-02T18:31:04Z</time>
      </trkpt>
      <trkpt lat="46.62933" lon="0.26265">
        <ele>111.65</ele>
        <time>2021-08-02T18:31:05Z</time>
      </trkpt>
      <trkpt lat="46.62929" lon="0.26275">
        <ele>113.09</ele>
        <time>2021-08-02T18:31:06Z</time>
      </trkpt>
      <trkpt lat="46.62917" lon="0.26296">
        <ele>113.09</ele>
        <time>2021-08-02T18:31:08Z</time>
      </trkpt>
      <trkpt lat="46.62914" lon="0.26309">
        <ele>113.09</ele>
        <time>2021-08-02T18:31:09Z</time>
      </trkpt>
      <trkpt lat="46.62913" lon="0.26322">
        <ele>112.13</ele>
        <time>2021-08-02T18:31:10Z</time>
      </trkpt>
      <trkpt lat="46.62916" lon="0.26333">
        <ele>112.61</ele>
        <time>2021-08-02T18:31:11Z</time>
      </trkpt>
      <trkpt lat="46.62919" lon="0.26346">
        <ele>113.09</ele>
        <time>2021-08-02T18:31:12Z</time>
      </trkpt>
      <trkpt lat="46.62928" lon="0.26366">
        <ele>113.57</ele>
        <time>2021-08-02T18:31:13Z</time>
      </trkpt>
      <trkpt lat="46.62928" lon="0.26366">
        <ele>114.05</ele>
        <time>2021-08-02T18:31:14Z</time>
      </trkpt>
      <trkpt lat="46.62933" lon="0.26375">
        <ele>114.05</ele>
        <time>2021-08-02T18:31:15Z</time>
      </trkpt>
      <trkpt lat="46.62937" lon="0.26385">
        <ele>113.57</ele>
        <time>2021-08-02T18:31:16Z</time>
      </trkpt>
      <trkpt lat="46.62941" lon="0.26394">
        <ele>113.57</ele>
        <time>2021-08-02T18:31:17Z</time>
      </trkpt>
      <trkpt lat="46.62966" lon="0.26528">
        <ele>115.01</ele>
        <time>2021-08-02T18:31:26Z</time>
      </trkpt>
      <trkpt lat="46.63014" lon="0.26761">
        <ele>113.09</ele>
        <time>2021-08-02T18:31:38Z</time>
      </trkpt>
      <trkpt lat="46.6308" lon="0.27145">
        <ele>110.21</ele>
        <time>2021-08-02T18:31:54Z</time>
      </trkpt>
      <trkpt lat="46.6316" lon="0.2759">
        <ele>106.84</ele>
        <time>2021-08-02T18:32:12Z</time>
      </trkpt>
      <trkpt lat="46.63256" lon="0.2807">
        <ele>103</ele>
        <time>2021-08-02T18:32:29Z</time>
      </trkpt>
      <trkpt lat="46.63305" lon="0.28465">
        <ele>100.11</ele>
        <time>2021-08-02T18:32:43Z</time>
      </trkpt>
      <trkpt lat="46.63315" lon="0.28933">
        <ele>91.46</ele>
        <time>2021-08-02T18:32:59Z</time>
      </trkpt>
      <trkpt lat="46.63266" lon="0.29112">
        <ele>98.67</ele>
        <time>2021-08-02T18:33:07Z</time>
      </trkpt>
      <trkpt lat="46.63148" lon="0.29294">
        <ele>92.9</ele>
        <time>2021-08-02T18:33:15Z</time>
      </trkpt>
      <trkpt lat="46.62926" lon="0.29504">
        <ele>89.06</ele>
        <time>2021-08-02T18:33:30Z</time>
      </trkpt>
      <trkpt lat="46.62744" lon="0.29684">
        <ele>87.14</ele>
        <time>2021-08-02T18:33:40Z</time>
      </trkpt>
      <trkpt lat="46.62401" lon="0.30022">
        <ele>94.83</ele>
        <time>2021-08-02T18:33:58Z</time>
      </trkpt>
      <trkpt lat="46.62115" lon="0.30347">
        <ele>106.84</ele>
        <time>2021-08-02T18:34:14Z</time>
      </trkpt>
      <trkpt lat="46.61943" lon="0.30626">
        <ele>114.53</ele>
        <time>2021-08-02T18:34:25Z</time>
      </trkpt>
      <trkpt lat="46.61819" lon="0.30913">
        <ele>118.86</ele>
        <time>2021-08-02T18:34:36Z</time>
      </trkpt>
      <trkpt lat="46.61738" lon="0.312">
        <ele>116.46</ele>
        <time>2021-08-02T18:34:46Z</time>
      </trkpt>
      <trkpt lat="46.61682" lon="0.31544">
        <ele>110.21</ele>
        <time>2021-08-02T18:34:57Z</time>
      </trkpt>
      <trkpt lat="46.61666" lon="0.31897">
        <ele>105.88</ele>
        <time>2021-08-02T18:35:07Z</time>
      </trkpt>
      <trkpt lat="46.61699" lon="0.32269">
        <ele>106.84</ele>
        <time>2021-08-02T18:35:17Z</time>
      </trkpt>
      <trkpt lat="46.61786" lon="0.32703">
        <ele>114.53</ele>
        <time>2021-08-02T18:35:29Z</time>
      </trkpt>
      <trkpt lat="46.61903" lon="0.33291">
        <ele>120.3</ele>
        <time>2021-08-02T18:35:48Z</time>
      </trkpt>
      <trkpt lat="46.61949" lon="0.33657">
        <ele>123.19</ele>
        <time>2021-08-02T18:35:59Z</time>
      </trkpt>
      <trkpt lat="46.61965" lon="0.341">
        <ele>121.26</ele>
        <time>2021-08-02T18:36:12Z</time>
      </trkpt>
      <trkpt lat="46.61972" lon="0.3457">
        <ele>111.17</ele>
        <time>2021-08-02T18:36:27Z</time>
      </trkpt>
      <trkpt lat="46.61973" lon="0.35038">
        <ele>96.75</ele>
        <time>2021-08-02T18:36:41Z</time>
      </trkpt>
      <trkpt lat="46.61949" lon="0.35285">
        <ele>85.69</ele>
        <time>2021-08-02T18:36:49Z</time>
      </trkpt>
      <trkpt lat="46.61864" lon="0.35631">
        <ele>80.89</ele>
        <time>2021-08-02T18:36:59Z</time>
      </trkpt>
      <trkpt lat="46.61709" lon="0.36127">
        <ele>97.71</ele>
        <time>2021-08-02T18:37:17Z</time>
      </trkpt>
      <trkpt lat="46.61588" lon="0.36318">
        <ele>99.15</ele>
        <time>2021-08-02T18:37:25Z</time>
      </trkpt>
      <trkpt lat="46.6144" lon="0.36578">
        <ele>104.44</ele>
        <time>2021-08-02T18:37:35Z</time>
      </trkpt>
      <trkpt lat="46.61401" lon="0.36772">
        <ele>105.4</ele>
        <time>2021-08-02T18:37:41Z</time>
      </trkpt>
      <trkpt lat="46.61403" lon="0.37015">
        <ele>102.04</ele>
        <time>2021-08-02T18:37:48Z</time>
      </trkpt>
      <trkpt lat="46.61465" lon="0.37246">
        <ele>98.19</ele>
        <time>2021-08-02T18:37:55Z</time>
      </trkpt>
      <trkpt lat="46.61583" lon="0.37606">
        <ele>96.75</ele>
        <time>2021-08-02T18:38:06Z</time>
      </trkpt>
      <trkpt lat="46.6161" lon="0.37888">
        <ele>101.08</ele>
        <time>2021-08-02T18:38:14Z</time>
      </trkpt>
      <trkpt lat="46.61584" lon="0.38171">
        <ele>105.4</ele>
        <time>2021-08-02T18:38:22Z</time>
      </trkpt>
      <trkpt lat="46.61505" lon="0.38436">
        <ele>105.4</ele>
        <time>2021-08-02T18:38:30Z</time>
      </trkpt>
      <trkpt lat="46.61394" lon="0.38638">
        <ele>99.63</ele>
        <time>2021-08-02T18:38:37Z</time>
      </trkpt>
      <trkpt lat="46.61266" lon="0.38779">
        <ele>101.08</ele>
        <time>2021-08-02T18:38:44Z</time>
      </trkpt>
      <trkpt lat="46.6106" lon="0.38958">
        <ele>108.29</ele>
        <time>2021-08-02T18:38:56Z</time>
      </trkpt>
      <trkpt lat="46.60871" lon="0.39177">
        <ele>114.05</ele>
        <time>2021-08-02T18:39:07Z</time>
      </trkpt>
      <trkpt lat="46.60725" lon="0.39287">
        <ele>113.09</ele>
        <time>2021-08-02T18:39:14Z</time>
      </trkpt>
      <trkpt lat="46.60556" lon="0.3934">
        <ele>107.32</ele>
        <time>2021-08-02T18:39:21Z</time>
      </trkpt>
      <trkpt lat="46.60374" lon="0.39323">
        <ele>94.83</ele>
        <time>2021-08-02T18:39:28Z</time>
      </trkpt>
      <trkpt lat="46.60179" lon="0.3924">
        <ele>99.15</ele>
        <time>2021-08-02T18:39:36Z</time>
      </trkpt>
      <trkpt lat="46.59923" lon="0.39099">
        <ele>106.36</ele>
        <time>2021-08-02T18:39:48Z</time>
      </trkpt>
      <trkpt lat="46.59725" lon="0.39058">
        <ele>109.73</ele>
        <time>2021-08-02T18:39:57Z</time>
      </trkpt>
      <trkpt lat="46.59476" lon="0.39087">
        <ele>113.57</ele>
        <time>2021-08-02T18:40:08Z</time>
      </trkpt>
      <trkpt lat="46.59009" lon="0.39171">
        <ele>115.98</ele>
        <time>2021-08-02T18:40:27Z</time>
      </trkpt>
      <trkpt lat="46.58477" lon="0.39296">
        <ele>122.22</ele>
        <time>2021-08-02T18:40:49Z</time>
      </trkpt>
      <trkpt lat="46.5815" lon="0.39431">
        <ele>122.71</ele>
        <time>2021-08-02T18:41:03Z</time>
      </trkpt>
      <trkpt lat="46.57811" lon="0.39611">
        <ele>131.84</ele>
        <time>2021-08-02T18:41:18Z</time>
      </trkpt>
      <trkpt lat="46.57443" lon="0.3978">
        <ele>133.76</ele>
        <time>2021-08-02T18:41:35Z</time>
      </trkpt>
      <trkpt lat="46.57113" lon="0.39855">
        <ele>128.47</ele>
        <time>2021-08-02T18:41:48Z</time>
      </trkpt>
      <trkpt lat="46.56822" lon="0.39862">
        <ele>127.03</ele>
        <time>2021-08-02T18:42:01Z</time>
      </trkpt>
      <trkpt lat="46.56538" lon="0.39824">
        <ele>127.51</ele>
        <time>2021-08-02T18:42:13Z</time>
      </trkpt>
      <trkpt lat="46.56296" lon="0.39786">
        <ele>131.36</ele>
        <time>2021-08-02T18:42:24Z</time>
      </trkpt>
      <trkpt lat="46.55967" lon="0.39767">
        <ele>135.68</ele>
        <time>2021-08-02T18:42:38Z</time>
      </trkpt>
      <trkpt lat="46.55698" lon="0.39818">
        <ele>137.61</ele>
        <time>2021-08-02T18:42:50Z</time>
      </trkpt>
      <trkpt lat="46.55505" lon="0.39886">
        <ele>137.13</ele>
        <time>2021-08-02T18:43:00Z</time>
      </trkpt>
      <trkpt lat="46.55393" lon="0.39933">
        <ele>134.24</ele>
        <time>2021-08-02T18:43:08Z</time>
      </trkpt>
      <trkpt lat="46.55367" lon="0.39939">
        <ele>135.68</ele>
        <time>2021-08-02T18:43:11Z</time>
      </trkpt>
      <trkpt lat="46.5536" lon="0.39938">
        <ele>136.16</ele>
        <time>2021-08-02T18:43:12Z</time>
      </trkpt>
      <trkpt lat="46.55353" lon="0.39937">
        <ele>136.16</ele>
        <time>2021-08-02T18:43:13Z</time>
      </trkpt>
      <trkpt lat="46.55331" lon="0.39924">
        <ele>136.16</ele>
        <time>2021-08-02T18:43:15Z</time>
      </trkpt>
      <trkpt lat="46.55331" lon="0.39924">
        <ele>135.68</ele>
        <time>2021-08-02T18:43:16Z</time>
      </trkpt>
      <trkpt lat="46.55324" lon="0.39927">
        <ele>135.68</ele>
        <time>2021-08-02T18:43:17Z</time>
      </trkpt>
      <trkpt lat="46.55316" lon="0.3993">
        <ele>135.68</ele>
        <time>2021-08-02T18:43:18Z</time>
      </trkpt>
      <trkpt lat="46.55311" lon="0.39937">
        <ele>135.2</ele>
        <time>2021-08-02T18:43:19Z</time>
      </trkpt>
      <trkpt lat="46.55306" lon="0.39947">
        <ele>135.2</ele>
        <time>2021-08-02T18:43:20Z</time>
      </trkpt>
      <trkpt lat="46.55304" lon="0.39957">
        <ele>134.24</ele>
        <time>2021-08-02T18:43:21Z</time>
      </trkpt>
      <trkpt lat="46.55299" lon="0.39975">
        <ele>133.76</ele>
        <time>2021-08-02T18:43:22Z</time>
      </trkpt>
      <trkpt lat="46.55293" lon="0.39987">
        <ele>133.76</ele>
        <time>2021-08-02T18:43:23Z</time>
      </trkpt>
      <trkpt lat="46.55286" lon="0.39999">
        <ele>133.28</ele>
        <time>2021-08-02T18:43:24Z</time>
      </trkpt>
      <trkpt lat="46.55279" lon="0.4001">
        <ele>133.28</ele>
        <time>2021-08-02T18:43:25Z</time>
      </trkpt>
      <trkpt lat="46.55269" lon="0.40019">
        <ele>133.28</ele>
        <time>2021-08-02T18:43:26Z</time>
      </trkpt>
      <trkpt lat="46.55148" lon="0.40152">
        <ele>130.88</ele>
        <time>2021-08-02T18:43:37Z</time>
      </trkpt>
      <trkpt lat="46.55004" lon="0.40385">
        <ele>127.03</ele>
        <time>2021-08-02T18:43:48Z</time>
      </trkpt>
      <trkpt lat="46.54863" lon="0.40614">
        <ele>124.63</ele>
        <time>2021-08-02T18:44:00Z</time>
      </trkpt>
      <trkpt lat="46.54717" lon="0.40853">
        <ele>127.51</ele>
        <time>2021-08-02T18:44:12Z</time>
      </trkpt>
      <trkpt lat="46.54671" lon="0.40926">
        <ele>126.55</ele>
        <time>2021-08-02T18:44:19Z</time>
      </trkpt>
      <trkpt lat="46.54663" lon="0.4094">
        <ele>124.63</ele>
        <time>2021-08-02T18:44:28Z</time>
      </trkpt>
      <trkpt lat="46.54651" lon="0.40959">
        <ele>125.59</ele>
        <time>2021-08-02T18:44:43Z</time>
      </trkpt>
      <trkpt lat="46.54602" lon="0.41041">
        <ele>127.03</ele>
        <time>2021-08-02T18:44:53Z</time>
      </trkpt>
      <trkpt lat="46.54537" lon="0.41149">
        <ele>126.55</ele>
        <time>2021-08-02T18:45:03Z</time>
      </trkpt>
      <trkpt lat="46.54512" lon="0.41191">
        <ele>125.59</ele>
        <time>2021-08-02T18:45:11Z</time>
      </trkpt>
      <trkpt lat="46.54497" lon="0.41216">
        <ele>124.63</ele>
        <time>2021-08-02T18:45:26Z</time>
      </trkpt>
      <trkpt lat="46.54458" lon="0.41279">
        <ele>123.67</ele>
        <time>2021-08-02T18:45:40Z</time>
      </trkpt>
      <trkpt lat="46.54431" lon="0.41323">
        <ele>122.22</ele>
        <time>2021-08-02T18:45:57Z</time>
      </trkpt>
      <trkpt lat="46.54417" lon="0.41345">
        <ele>122.22</ele>
        <time>2021-08-02T18:46:30Z</time>
      </trkpt>
      <trkpt lat="46.54368" lon="0.41423">
        <ele>122.22</ele>
        <time>2021-08-02T18:46:39Z</time>
      </trkpt>
      <trkpt lat="46.54291" lon="0.41548">
        <ele>125.11</ele>
        <time>2021-08-02T18:46:53Z</time>
      </trkpt>
      <trkpt lat="46.54234" lon="0.41643">
        <ele>126.55</ele>
        <time>2021-08-02T18:47:04Z</time>
      </trkpt>
      <trkpt lat="46.54095" lon="0.41869">
        <ele>122.22</ele>
        <time>2021-08-02T18:47:18Z</time>
      </trkpt>
      <trkpt lat="46.53985" lon="0.42049">
        <ele>123.19</ele>
        <time>2021-08-02T18:47:29Z</time>
      </trkpt>
      <trkpt lat="46.53764" lon="0.42404">
        <ele>135.68</ele>
        <time>2021-08-02T18:47:47Z</time>
      </trkpt>
      <trkpt lat="46.53534" lon="0.42776">
        <ele>138.57</ele>
        <time>2021-08-02T18:48:05Z</time>
      </trkpt>
      <trkpt lat="46.53307" lon="0.43152">
        <ele>137.13</ele>
        <time>2021-08-02T18:48:21Z</time>
      </trkpt>
      <trkpt lat="46.53057" lon="0.4356">
        <ele>128.47</ele>
        <time>2021-08-02T18:48:41Z</time>
      </trkpt>
      <trkpt lat="46.52817" lon="0.43955">
        <ele>127.51</ele>
        <time>2021-08-02T18:48:59Z</time>
      </trkpt>
      <trkpt lat="46.52673" lon="0.44192">
        <ele>129.43</ele>
        <time>2021-08-02T18:49:12Z</time>
      </trkpt>
      <trkpt lat="46.52572" lon="0.44354">
        <ele>126.07</ele>
        <time>2021-08-02T18:49:22Z</time>
      </trkpt>
      <trkpt lat="46.52424" lon="0.44594">
        <ele>124.63</ele>
        <time>2021-08-02T18:49:35Z</time>
      </trkpt>
      <trkpt lat="46.52122" lon="0.45087">
        <ele>127.99</ele>
        <time>2021-08-02T18:49:58Z</time>
      </trkpt>
      <trkpt lat="46.51805" lon="0.456">
        <ele>127.99</ele>
        <time>2021-08-02T18:50:21Z</time>
      </trkpt>
      <trkpt lat="46.51531" lon="0.46047">
        <ele>131.84</ele>
        <time>2021-08-02T18:50:41Z</time>
      </trkpt>
      <trkpt lat="46.51277" lon="0.46461">
        <ele>130.4</ele>
        <time>2021-08-02T18:51:00Z</time>
      </trkpt>
      <trkpt lat="46.51131" lon="0.46697">
        <ele>129.92</ele>
        <time>2021-08-02T18:51:12Z</time>
      </trkpt>
      <trkpt lat="46.51027" lon="0.46867">
        <ele>127.51</ele>
        <time>2021-08-02T18:51:27Z</time>
      </trkpt>
      <trkpt lat="46.50904" lon="0.4707">
        <ele>124.15</ele>
        <time>2021-08-02T18:51:42Z</time>
      </trkpt>
      <trkpt lat="46.50863" lon="0.47135">
        <ele>125.59</ele>
        <time>2021-08-02T18:51:54Z</time>
      </trkpt>
      <trkpt lat="46.50823" lon="0.47189">
        <ele>127.03</ele>
        <time>2021-08-02T18:52:02Z</time>
      </trkpt>
      <trkpt lat="46.50795" lon="0.47206">
        <ele>127.51</ele>
        <time>2021-08-02T18:52:05Z</time>
      </trkpt>
      <trkpt lat="46.50795" lon="0.47206">
        <ele>127.99</ele>
        <time>2021-08-02T18:52:06Z</time>
      </trkpt>
      <trkpt lat="46.50789" lon="0.47217">
        <ele>127.99</ele>
        <time>2021-08-02T18:52:07Z</time>
      </trkpt>
      <trkpt lat="46.50787" lon="0.47228">
        <ele>127.99</ele>
        <time>2021-08-02T18:52:08Z</time>
      </trkpt>
      <trkpt lat="46.50785" lon="0.47239">
        <ele>127.99</ele>
        <time>2021-08-02T18:52:09Z</time>
      </trkpt>
      <trkpt lat="46.50785" lon="0.47269">
        <ele>128.47</ele>
        <time>2021-08-02T18:52:10Z</time>
      </trkpt>
      <trkpt lat="46.50785" lon="0.47269">
        <ele>129.43</ele>
        <time>2021-08-02T18:52:11Z</time>
      </trkpt>
      <trkpt lat="46.50778" lon="0.4728">
        <ele>129.92</ele>
        <time>2021-08-02T18:52:12Z</time>
      </trkpt>
      <trkpt lat="46.50771" lon="0.47292">
        <ele>129.43</ele>
        <time>2021-08-02T18:52:13Z</time>
      </trkpt>
      <trkpt lat="46.50681" lon="0.47435">
        <ele>127.51</ele>
        <time>2021-08-02T18:52:21Z</time>
      </trkpt>
      <trkpt lat="46.50544" lon="0.4764">
        <ele>125.59</ele>
        <time>2021-08-02T18:52:33Z</time>
      </trkpt>
      <trkpt lat="46.50386" lon="0.47858">
        <ele>125.11</ele>
        <time>2021-08-02T18:52:45Z</time>
      </trkpt>
      <trkpt lat="46.50242" lon="0.4807">
        <ele>123.19</ele>
        <time>2021-08-02T18:52:55Z</time>
      </trkpt>
      <trkpt lat="46.50015" lon="0.48438">
        <ele>121.26</ele>
        <time>2021-08-02T18:53:09Z</time>
      </trkpt>
      <trkpt lat="46.49601" lon="0.49107">
        <ele>117.42</ele>
        <time>2021-08-02T18:53:33Z</time>
      </trkpt>
      <trkpt lat="46.494" lon="0.49434">
        <ele>119.82</ele>
        <time>2021-08-02T18:53:45Z</time>
      </trkpt>
      <trkpt lat="46.49079" lon="0.49929">
        <ele>122.71</ele>
        <time>2021-08-02T18:54:04Z</time>
      </trkpt>
      <trkpt lat="46.48827" lon="0.50332">
        <ele>124.63</ele>
        <time>2021-08-02T18:54:19Z</time>
      </trkpt>
      <trkpt lat="46.48708" lon="0.50647">
        <ele>127.51</ele>
        <time>2021-08-02T18:54:29Z</time>
      </trkpt>
      <trkpt lat="46.48641" lon="0.50961">
        <ele>127.03</ele>
        <time>2021-08-02T18:54:38Z</time>
      </trkpt>
      <trkpt lat="46.4862" lon="0.51328">
        <ele>124.63</ele>
        <time>2021-08-02T18:54:48Z</time>
      </trkpt>
      <trkpt lat="46.48595" lon="0.52203">
        <ele>121.74</ele>
        <time>2021-08-02T18:55:10Z</time>
      </trkpt>
      <trkpt lat="46.48559" lon="0.52566">
        <ele>121.26</ele>
        <time>2021-08-02T18:55:20Z</time>
      </trkpt>
      <trkpt lat="46.48486" lon="0.52874">
        <ele>121.74</ele>
        <time>2021-08-02T18:55:30Z</time>
      </trkpt>
      <trkpt lat="46.48364" lon="0.53186">
        <ele>121.74</ele>
        <time>2021-08-02T18:55:40Z</time>
      </trkpt>
      <trkpt lat="46.4818" lon="0.53503">
        <ele>120.3</ele>
        <time>2021-08-02T18:55:51Z</time>
      </trkpt>
      <trkpt lat="46.47997" lon="0.53712">
        <ele>121.74</ele>
        <time>2021-08-02T18:56:02Z</time>
      </trkpt>
      <trkpt lat="46.47744" lon="0.53905">
        <ele>119.82</ele>
        <time>2021-08-02T18:56:13Z</time>
      </trkpt>
      <trkpt lat="46.47292" lon="0.54188">
        <ele>122.71</ele>
        <time>2021-08-02T18:56:35Z</time>
      </trkpt>
      <trkpt lat="46.46861" lon="0.54456">
        <ele>121.26</ele>
        <time>2021-08-02T18:56:55Z</time>
      </trkpt>
      <trkpt lat="46.46484" lon="0.54715">
        <ele>119.82</ele>
        <time>2021-08-02T18:57:12Z</time>
      </trkpt>
      <trkpt lat="46.46228" lon="0.54966">
        <ele>119.34</ele>
        <time>2021-08-02T18:57:25Z</time>
      </trkpt>
      <trkpt lat="46.46015" lon="0.55239">
        <ele>112.61</ele>
        <time>2021-08-02T18:57:38Z</time>
      </trkpt>
      <trkpt lat="46.45806" lon="0.55552">
        <ele>113.57</ele>
        <time>2021-08-02T18:57:53Z</time>
      </trkpt>
      <trkpt lat="46.45673" lon="0.55705">
        <ele>119.82</ele>
        <time>2021-08-02T18:58:03Z</time>
      </trkpt>
      <trkpt lat="46.45615" lon="0.55769">
        <ele>121.26</ele>
        <time>2021-08-02T18:58:10Z</time>
      </trkpt>
      <trkpt lat="46.45605" lon="0.55779">
        <ele>122.22</ele>
        <time>2021-08-02T18:58:12Z</time>
      </trkpt>
      <trkpt lat="46.45601" lon="0.55785">
        <ele>122.71</ele>
        <time>2021-08-02T18:58:13Z</time>
      </trkpt>
      <trkpt lat="46.45597" lon="0.55791">
        <ele>123.19</ele>
        <time>2021-08-02T18:58:14Z</time>
      </trkpt>
      <trkpt lat="46.45581" lon="0.55785">
        <ele>123.67</ele>
        <time>2021-08-02T18:58:16Z</time>
      </trkpt>
      <trkpt lat="46.45572" lon="0.55793">
        <ele>124.15</ele>
        <time>2021-08-02T18:58:17Z</time>
      </trkpt>
      <trkpt lat="46.45569" lon="0.55801">
        <ele>124.15</ele>
        <time>2021-08-02T18:58:18Z</time>
      </trkpt>
      <trkpt lat="46.45567" lon="0.55807">
        <ele>124.15</ele>
        <time>2021-08-02T18:58:19Z</time>
      </trkpt>
      <trkpt lat="46.45571" lon="0.55819">
        <ele>123.67</ele>
        <time>2021-08-02T18:58:20Z</time>
      </trkpt>
      <trkpt lat="46.45571" lon="0.55835">
        <ele>123.19</ele>
        <time>2021-08-02T18:58:21Z</time>
      </trkpt>
      <trkpt lat="46.45567" lon="0.55847">
        <ele>122.71</ele>
        <time>2021-08-02T18:58:22Z</time>
      </trkpt>
      <trkpt lat="46.45563" lon="0.5586">
        <ele>122.71</ele>
        <time>2021-08-02T18:58:23Z</time>
      </trkpt>
      <trkpt lat="46.45508" lon="0.56023">
        <ele>121.74</ele>
        <time>2021-08-02T18:58:32Z</time>
      </trkpt>
      <trkpt lat="46.45427" lon="0.56184">
        <ele>118.38</ele>
        <time>2021-08-02T18:58:40Z</time>
      </trkpt>
      <trkpt lat="46.45249" lon="0.56496">
        <ele>115.5</ele>
        <time>2021-08-02T18:58:56Z</time>
      </trkpt>
      <trkpt lat="46.45069" lon="0.56813">
        <ele>102.52</ele>
        <time>2021-08-02T18:59:09Z</time>
      </trkpt>
      <trkpt lat="46.44945" lon="0.57031">
        <ele>108.77</ele>
        <time>2021-08-02T18:59:20Z</time>
      </trkpt>
      <trkpt lat="46.44761" lon="0.57357">
        <ele>104.92</ele>
        <time>2021-08-02T18:59:37Z</time>
      </trkpt>
      <trkpt lat="46.44584" lon="0.57669">
        <ele>106.84</ele>
        <time>2021-08-02T18:59:52Z</time>
      </trkpt>
      <trkpt lat="46.44428" lon="0.57944">
        <ele>113.09</ele>
        <time>2021-08-02T19:00:06Z</time>
      </trkpt>
      <trkpt lat="46.44256" lon="0.58245">
        <ele>124.63</ele>
        <time>2021-08-02T19:00:21Z</time>
      </trkpt>
      <trkpt lat="46.44099" lon="0.58523">
        <ele>118.38</ele>
        <time>2021-08-02T19:00:35Z</time>
      </trkpt>
      <trkpt lat="46.43875" lon="0.58916">
        <ele>105.4</ele>
        <time>2021-08-02T19:00:54Z</time>
      </trkpt>
      <trkpt lat="46.43729" lon="0.59171">
        <ele>105.88</ele>
        <time>2021-08-02T19:01:09Z</time>
      </trkpt>
      <trkpt lat="46.43618" lon="0.59366">
        <ele>102.52</ele>
        <time>2021-08-02T19:01:23Z</time>
      </trkpt>
      <trkpt lat="46.43577" lon="0.59446">
        <ele>98.19</ele>
        <time>2021-08-02T19:01:29Z</time>
      </trkpt>
      <trkpt lat="46.43577" lon="0.59446">
        <ele>96.75</ele>
        <time>2021-08-02T19:01:30Z</time>
      </trkpt>
      <trkpt lat="46.43574" lon="0.59462">
        <ele>96.27</ele>
        <time>2021-08-02T19:01:31Z</time>
      </trkpt>
      <trkpt lat="46.43575" lon="0.59479">
        <ele>97.71</ele>
        <time>2021-08-02T19:01:32Z</time>
      </trkpt>
      <trkpt lat="46.43579" lon="0.59494">
        <ele>97.71</ele>
        <time>2021-08-02T19:01:33Z</time>
      </trkpt>
      <trkpt lat="46.43588" lon="0.59525">
        <ele>97.71</ele>
        <time>2021-08-02T19:01:34Z</time>
      </trkpt>
      <trkpt lat="46.4359" lon="0.59537">
        <ele>97.23</ele>
        <time>2021-08-02T19:01:36Z</time>
      </trkpt>
      <trkpt lat="46.43593" lon="0.59547">
        <ele>95.79</ele>
        <time>2021-08-02T19:01:37Z</time>
      </trkpt>
      <trkpt lat="46.43591" lon="0.59559">
        <ele>95.31</ele>
        <time>2021-08-02T19:01:38Z</time>
      </trkpt>
      <trkpt lat="46.43588" lon="0.59571">
        <ele>94.83</ele>
        <time>2021-08-02T19:01:39Z</time>
      </trkpt>
      <trkpt lat="46.43586" lon="0.59583">
        <ele>94.83</ele>
        <time>2021-08-02T19:01:40Z</time>
      </trkpt>
      <trkpt lat="46.43566" lon="0.59696">
        <ele>95.79</ele>
        <time>2021-08-02T19:01:52Z</time>
      </trkpt>
      <trkpt lat="46.43561" lon="0.59725">
        <ele>96.27</ele>
        <time>2021-08-02T19:02:04Z</time>
      </trkpt>
      <trkpt lat="46.43554" lon="0.59762">
        <ele>97.23</ele>
        <time>2021-08-02T19:02:21Z</time>
      </trkpt>
      <trkpt lat="46.43528" lon="0.5984">
        <ele>99.63</ele>
        <time>2021-08-02T19:02:30Z</time>
      </trkpt>
      <trkpt lat="46.43464" lon="0.60013">
        <ele>107.81</ele>
        <time>2021-08-02T19:02:41Z</time>
      </trkpt>
      <trkpt lat="46.43368" lon="0.60277">
        <ele>115.01</ele>
        <time>2021-08-02T19:02:53Z</time>
      </trkpt>
      <trkpt lat="46.43249" lon="0.60606">
        <ele>128.47</ele>
        <time>2021-08-02T19:03:06Z</time>
      </trkpt>
      <trkpt lat="46.43076" lon="0.61084">
        <ele>123.19</ele>
        <time>2021-08-02T19:03:25Z</time>
      </trkpt>
      <trkpt lat="46.42921" lon="0.61506">
        <ele>115.5</ele>
        <time>2021-08-02T19:03:40Z</time>
      </trkpt>
      <trkpt lat="46.4276" lon="0.61942">
        <ele>115.98</ele>
        <time>2021-08-02T19:03:57Z</time>
      </trkpt>
      <trkpt lat="46.4262" lon="0.62324">
        <ele>129.43</ele>
        <time>2021-08-02T19:04:14Z</time>
      </trkpt>
      <trkpt lat="46.42478" lon="0.62713">
        <ele>132.32</ele>
        <time>2021-08-02T19:04:30Z</time>
      </trkpt>
      <trkpt lat="46.42329" lon="0.63122">
        <ele>129.92</ele>
        <time>2021-08-02T19:04:46Z</time>
      </trkpt>
      <trkpt lat="46.42281" lon="0.63243">
        <ele>134.72</ele>
        <time>2021-08-02T19:04:53Z</time>
      </trkpt>
      <trkpt lat="46.42277" lon="0.63254">
        <ele>134.72</ele>
        <time>2021-08-02T19:04:54Z</time>
      </trkpt>
      <trkpt lat="46.42257" lon="0.63264">
        <ele>135.2</ele>
        <time>2021-08-02T19:04:56Z</time>
      </trkpt>
      <trkpt lat="46.42252" lon="0.63273">
        <ele>135.2</ele>
        <time>2021-08-02T19:04:57Z</time>
      </trkpt>
      <trkpt lat="46.42248" lon="0.6328">
        <ele>135.2</ele>
        <time>2021-08-02T19:04:58Z</time>
      </trkpt>
      <trkpt lat="46.4225" lon="0.63295">
        <ele>135.2</ele>
        <time>2021-08-02T19:04:59Z</time>
      </trkpt>
      <trkpt lat="46.42252" lon="0.63304">
        <ele>135.2</ele>
        <time>2021-08-02T19:05:00Z</time>
      </trkpt>
      <trkpt lat="46.42255" lon="0.63321">
        <ele>134.72</ele>
        <time>2021-08-02T19:05:01Z</time>
      </trkpt>
      <trkpt lat="46.4225" lon="0.63331">
        <ele>135.2</ele>
        <time>2021-08-02T19:05:02Z</time>
      </trkpt>
      <trkpt lat="46.4224" lon="0.63359">
        <ele>135.2</ele>
        <time>2021-08-02T19:05:03Z</time>
      </trkpt>
      <trkpt lat="46.42234" lon="0.63375">
        <ele>134.72</ele>
        <time>2021-08-02T19:05:04Z</time>
      </trkpt>
      <trkpt lat="46.42185" lon="0.63512">
        <ele>135.68</ele>
        <time>2021-08-02T19:05:13Z</time>
      </trkpt>
      <trkpt lat="46.4209" lon="0.63774">
        <ele>132.32</ele>
        <time>2021-08-02T19:05:25Z</time>
      </trkpt>
      <trkpt lat="46.41933" lon="0.64205">
        <ele>140.49</ele>
        <time>2021-08-02T19:05:42Z</time>
      </trkpt>
      <trkpt lat="46.4173" lon="0.64758">
        <ele>143.37</ele>
        <time>2021-08-02T19:06:01Z</time>
      </trkpt>
      <trkpt lat="46.41484" lon="0.65437">
        <ele>142.41</ele>
        <time>2021-08-02T19:06:27Z</time>
      </trkpt>
      <trkpt lat="46.41445" lon="0.65628">
        <ele>142.41</ele>
        <time>2021-08-02T19:06:34Z</time>
      </trkpt>
      <trkpt lat="46.41388" lon="0.66224">
        <ele>131.36</ele>
        <time>2021-08-02T19:06:55Z</time>
      </trkpt>
      <trkpt lat="46.41395" lon="0.66409">
        <ele>123.19</ele>
        <time>2021-08-02T19:07:03Z</time>
      </trkpt>
      <trkpt lat="46.41399" lon="0.66433">
        <ele>122.71</ele>
        <time>2021-08-02T19:07:04Z</time>
      </trkpt>
      <trkpt lat="46.41404" lon="0.66455">
        <ele>122.71</ele>
        <time>2021-08-02T19:07:05Z</time>
      </trkpt>
      <trkpt lat="46.4141" lon="0.66476">
        <ele>123.19</ele>
        <time>2021-08-02T19:07:06Z</time>
      </trkpt>
      <trkpt lat="46.41417" lon="0.66497">
        <ele>122.71</ele>
        <time>2021-08-02T19:07:07Z</time>
      </trkpt>
      <trkpt lat="46.41425" lon="0.66514">
        <ele>121.74</ele>
        <time>2021-08-02T19:07:08Z</time>
      </trkpt>
      <trkpt lat="46.41448" lon="0.66548">
        <ele>119.82</ele>
        <time>2021-08-02T19:07:10Z</time>
      </trkpt>
      <trkpt lat="46.41544" lon="0.66692">
        <ele>114.53</ele>
        <time>2021-08-02T19:07:18Z</time>
      </trkpt>
      <trkpt lat="46.41554" lon="0.66714">
        <ele>114.05</ele>
        <time>2021-08-02T19:07:19Z</time>
      </trkpt>
      <trkpt lat="46.41561" lon="0.66736">
        <ele>114.05</ele>
        <time>2021-08-02T19:07:20Z</time>
      </trkpt>
      <trkpt lat="46.41625" lon="0.66916">
        <ele>105.4</ele>
        <time>2021-08-02T19:07:28Z</time>
      </trkpt>
      <trkpt lat="46.41634" lon="0.66938">
        <ele>103.96</ele>
        <time>2021-08-02T19:07:29Z</time>
      </trkpt>
      <trkpt lat="46.41641" lon="0.66961">
        <ele>102.52</ele>
        <time>2021-08-02T19:07:30Z</time>
      </trkpt>
      <trkpt lat="46.41646" lon="0.66983">
        <ele>102.52</ele>
        <time>2021-08-02T19:07:31Z</time>
      </trkpt>
      <trkpt lat="46.4165" lon="0.67005">
        <ele>102.04</ele>
        <time>2021-08-02T19:07:32Z</time>
      </trkpt>
      <trkpt lat="46.41653" lon="0.67027">
        <ele>100.6</ele>
        <time>2021-08-02T19:07:33Z</time>
      </trkpt>
      <trkpt lat="46.41652" lon="0.67051">
        <ele>100.11</ele>
        <time>2021-08-02T19:07:34Z</time>
      </trkpt>
      <trkpt lat="46.41641" lon="0.67197">
        <ele>95.31</ele>
        <time>2021-08-02T19:07:40Z</time>
      </trkpt>
      <trkpt lat="46.41637" lon="0.6722">
        <ele>94.83</ele>
        <time>2021-08-02T19:07:41Z</time>
      </trkpt>
      <trkpt lat="46.4163" lon="0.67243">
        <ele>94.35</ele>
        <time>2021-08-02T19:07:42Z</time>
      </trkpt>
      <trkpt lat="46.41604" lon="0.6733">
        <ele>91.46</ele>
        <time>2021-08-02T19:07:46Z</time>
      </trkpt>
      <trkpt lat="46.41601" lon="0.67352">
        <ele>90.02</ele>
        <time>2021-08-02T19:07:47Z</time>
      </trkpt>
      <trkpt lat="46.416" lon="0.67375">
        <ele>89.06</ele>
        <time>2021-08-02T19:07:48Z</time>
      </trkpt>
      <trkpt lat="46.41599" lon="0.67399">
        <ele>89.54</ele>
        <time>2021-08-02T19:07:49Z</time>
      </trkpt>
      <trkpt lat="46.41603" lon="0.67422">
        <ele>89.06</ele>
        <time>2021-08-02T19:07:50Z</time>
      </trkpt>
      <trkpt lat="46.41607" lon="0.67445">
        <ele>88.1</ele>
        <time>2021-08-02T19:07:51Z</time>
      </trkpt>
      <trkpt lat="46.41616" lon="0.67468">
        <ele>88.1</ele>
        <time>2021-08-02T19:07:52Z</time>
      </trkpt>
      <trkpt lat="46.41624" lon="0.67489">
        <ele>87.14</ele>
        <time>2021-08-02T19:07:53Z</time>
      </trkpt>
      <trkpt lat="46.41633" lon="0.67507">
        <ele>86.18</ele>
        <time>2021-08-02T19:07:54Z</time>
      </trkpt>
      <trkpt lat="46.41646" lon="0.67524">
        <ele>85.69</ele>
        <time>2021-08-02T19:07:55Z</time>
      </trkpt>
      <trkpt lat="46.41706" lon="0.67613">
        <ele>82.33</ele>
        <time>2021-08-02T19:08:00Z</time>
      </trkpt>
      <trkpt lat="46.41716" lon="0.67633">
        <ele>82.33</ele>
        <time>2021-08-02T19:08:01Z</time>
      </trkpt>
      <trkpt lat="46.41723" lon="0.67654">
        <ele>81.85</ele>
        <time>2021-08-02T19:08:02Z</time>
      </trkpt>
      <trkpt lat="46.41726" lon="0.67676">
        <ele>80.41</ele>
        <time>2021-08-02T19:08:03Z</time>
      </trkpt>
      <trkpt lat="46.4173" lon="0.67727">
        <ele>78.48</ele>
        <time>2021-08-02T19:08:04Z</time>
      </trkpt>
      <trkpt lat="46.4173" lon="0.67753">
        <ele>78</ele>
        <time>2021-08-02T19:08:05Z</time>
      </trkpt>
      <trkpt lat="46.41728" lon="0.68018">
        <ele>77.04</ele>
        <time>2021-08-02T19:08:16Z</time>
      </trkpt>
      <trkpt lat="46.41727" lon="0.68042">
        <ele>77.04</ele>
        <time>2021-08-02T19:08:17Z</time>
      </trkpt>
      <trkpt lat="46.41725" lon="0.68062">
        <ele>77.52</ele>
        <time>2021-08-02T19:08:18Z</time>
      </trkpt>
      <trkpt lat="46.4172" lon="0.68083">
        <ele>78.97</ele>
        <time>2021-08-02T19:08:19Z</time>
      </trkpt>
      <trkpt lat="46.41712" lon="0.68101">
        <ele>79.93</ele>
        <time>2021-08-02T19:08:20Z</time>
      </trkpt>
      <trkpt lat="46.41703" lon="0.6812">
        <ele>81.85</ele>
        <time>2021-08-02T19:08:21Z</time>
      </trkpt>
      <trkpt lat="46.41693" lon="0.68135">
        <ele>81.85</ele>
        <time>2021-08-02T19:08:22Z</time>
      </trkpt>
      <trkpt lat="46.41682" lon="0.68152">
        <ele>80.89</ele>
        <time>2021-08-02T19:08:23Z</time>
      </trkpt>
      <trkpt lat="46.41526" lon="0.68352">
        <ele>81.37</ele>
        <time>2021-08-02T19:08:34Z</time>
      </trkpt>
      <trkpt lat="46.41307" lon="0.68625">
        <ele>81.85</ele>
        <time>2021-08-02T19:08:48Z</time>
      </trkpt>
      <trkpt lat="46.41108" lon="0.68874">
        <ele>76.08</ele>
        <time>2021-08-02T19:09:01Z</time>
      </trkpt>
      <trkpt lat="46.40941" lon="0.69082">
        <ele>77.04</ele>
        <time>2021-08-02T19:09:14Z</time>
      </trkpt>
      <trkpt lat="46.40768" lon="0.69299">
        <ele>77.04</ele>
        <time>2021-08-02T19:09:28Z</time>
      </trkpt>
      <trkpt lat="46.40594" lon="0.69517">
        <ele>74.16</ele>
        <time>2021-08-02T19:09:47Z</time>
      </trkpt>
      <trkpt lat="46.40501" lon="0.69634">
        <ele>74.64</ele>
        <time>2021-08-02T19:09:57Z</time>
      </trkpt>
      <trkpt lat="46.40492" lon="0.69646">
        <ele>74.64</ele>
        <time>2021-08-02T19:09:58Z</time>
      </trkpt>
      <trkpt lat="46.40486" lon="0.69659">
        <ele>75.6</ele>
        <time>2021-08-02T19:09:59Z</time>
      </trkpt>
      <trkpt lat="46.40482" lon="0.69673">
        <ele>76.08</ele>
        <time>2021-08-02T19:10:00Z</time>
      </trkpt>
      <trkpt lat="46.40475" lon="0.69706">
        <ele>75.12</ele>
        <time>2021-08-02T19:10:01Z</time>
      </trkpt>
      <trkpt lat="46.40475" lon="0.69724">
        <ele>74.64</ele>
        <time>2021-08-02T19:10:02Z</time>
      </trkpt>
      <trkpt lat="46.40475" lon="0.69724">
        <ele>75.12</ele>
        <time>2021-08-02T19:10:03Z</time>
      </trkpt>
      <trkpt lat="46.40463" lon="0.69905">
        <ele>77.04</ele>
        <time>2021-08-02T19:10:15Z</time>
      </trkpt>
      <trkpt lat="46.40453" lon="0.7011">
        <ele>76.56</ele>
        <time>2021-08-02T19:10:28Z</time>
      </trkpt>
      <trkpt lat="46.40444" lon="0.70253">
        <ele>77.04</ele>
        <time>2021-08-02T19:10:38Z</time>
      </trkpt>
      <trkpt lat="46.40435" lon="0.70395">
        <ele>74.64</ele>
        <time>2021-08-02T19:10:47Z</time>
      </trkpt>
      <trkpt lat="46.40433" lon="0.70429">
        <ele>74.64</ele>
        <time>2021-08-02T19:10:49Z</time>
      </trkpt>
      <trkpt lat="46.4043" lon="0.70512">
        <ele>74.16</ele>
        <time>2021-08-02T19:10:57Z</time>
      </trkpt>
      <trkpt lat="46.40426" lon="0.70685">
        <ele>75.12</ele>
        <time>2021-08-02T19:11:07Z</time>
      </trkpt>
      <trkpt lat="46.40441" lon="0.70878">
        <ele>80.41</ele>
        <time>2021-08-02T19:11:18Z</time>
      </trkpt>
      <trkpt lat="46.40443" lon="0.70947">
        <ele>84.25</ele>
        <time>2021-08-02T19:11:22Z</time>
      </trkpt>
      <trkpt lat="46.40443" lon="0.70947">
        <ele>84.73</ele>
        <time>2021-08-02T19:11:23Z</time>
      </trkpt>
      <trkpt lat="46.4044" lon="0.70958">
        <ele>84.73</ele>
        <time>2021-08-02T19:11:24Z</time>
      </trkpt>
      <trkpt lat="46.40423" lon="0.71026">
        <ele>87.62</ele>
        <time>2021-08-02T19:11:29Z</time>
      </trkpt>
      <trkpt lat="46.40417" lon="0.71052">
        <ele>86.66</ele>
        <time>2021-08-02T19:11:30Z</time>
      </trkpt>
      <trkpt lat="46.40417" lon="0.71052">
        <ele>87.14</ele>
        <time>2021-08-02T19:11:31Z</time>
      </trkpt>
      <trkpt lat="46.40419" lon="0.71065">
        <ele>87.14</ele>
        <time>2021-08-02T19:11:32Z</time>
      </trkpt>
      <trkpt lat="46.40421" lon="0.71078">
        <ele>87.62</ele>
        <time>2021-08-02T19:11:33Z</time>
      </trkpt>
      <trkpt lat="46.40427" lon="0.71087">
        <ele>90.02</ele>
        <time>2021-08-02T19:11:34Z</time>
      </trkpt>
      <trkpt lat="46.40435" lon="0.711">
        <ele>90.02</ele>
        <time>2021-08-02T19:11:35Z</time>
      </trkpt>
      <trkpt lat="46.40441" lon="0.71109">
        <ele>90.02</ele>
        <time>2021-08-02T19:11:36Z</time>
      </trkpt>
      <trkpt lat="46.40453" lon="0.71127">
        <ele>90.5</ele>
        <time>2021-08-02T19:11:38Z</time>
      </trkpt>
      <trkpt lat="46.40457" lon="0.7114">
        <ele>90.98</ele>
        <time>2021-08-02T19:11:39Z</time>
      </trkpt>
      <trkpt lat="46.40458" lon="0.7115">
        <ele>90.5</ele>
        <time>2021-08-02T19:11:40Z</time>
      </trkpt>
      <trkpt lat="46.4046" lon="0.71163">
        <ele>90.02</ele>
        <time>2021-08-02T19:11:41Z</time>
      </trkpt>
      <trkpt lat="46.40462" lon="0.71176">
        <ele>90.02</ele>
        <time>2021-08-02T19:11:42Z</time>
      </trkpt>
      <trkpt lat="46.4047" lon="0.71262">
        <ele>93.39</ele>
        <time>2021-08-02T19:11:48Z</time>
      </trkpt>
      <trkpt lat="46.4047" lon="0.71276">
        <ele>93.39</ele>
        <time>2021-08-02T19:11:49Z</time>
      </trkpt>
      <trkpt lat="46.40468" lon="0.71289">
        <ele>93.87</ele>
        <time>2021-08-02T19:11:50Z</time>
      </trkpt>
      <trkpt lat="46.40466" lon="0.71304">
        <ele>93.87</ele>
        <time>2021-08-02T19:11:51Z</time>
      </trkpt>
      <trkpt lat="46.40461" lon="0.71318">
        <ele>93.87</ele>
        <time>2021-08-02T19:11:52Z</time>
      </trkpt>
      <trkpt lat="46.40455" lon="0.71331">
        <ele>94.35</ele>
        <time>2021-08-02T19:11:53Z</time>
      </trkpt>
      <trkpt lat="46.40448" lon="0.71342">
        <ele>94.35</ele>
        <time>2021-08-02T19:11:54Z</time>
      </trkpt>
      <trkpt lat="46.4044" lon="0.71352">
        <ele>94.35</ele>
        <time>2021-08-02T19:11:55Z</time>
      </trkpt>
      <trkpt lat="46.40391" lon="0.7142">
        <ele>94.83</ele>
        <time>2021-08-02T19:12:01Z</time>
      </trkpt>
      <trkpt lat="46.40385" lon="0.71435">
        <ele>95.31</ele>
        <time>2021-08-02T19:12:02Z</time>
      </trkpt>
      <trkpt lat="46.40381" lon="0.7145">
        <ele>94.35</ele>
        <time>2021-08-02T19:12:03Z</time>
      </trkpt>
      <trkpt lat="46.40377" lon="0.71467">
        <ele>93.87</ele>
        <time>2021-08-02T19:12:04Z</time>
      </trkpt>
      <trkpt lat="46.40374" lon="0.71485">
        <ele>93.87</ele>
        <time>2021-08-02T19:12:05Z</time>
      </trkpt>
      <trkpt lat="46.40371" lon="0.71501">
        <ele>94.35</ele>
        <time>2021-08-02T19:12:06Z</time>
      </trkpt>
      <trkpt lat="46.40362" lon="0.71636">
        <ele>98.67</ele>
        <time>2021-08-02T19:12:15Z</time>
      </trkpt>
      <trkpt lat="46.40357" lon="0.71731">
        <ele>101.56</ele>
        <time>2021-08-02T19:12:25Z</time>
      </trkpt>
      <trkpt lat="46.40344" lon="0.71916">
        <ele>103.48</ele>
        <time>2021-08-02T19:12:37Z</time>
      </trkpt>
      <trkpt lat="46.40333" lon="0.72117">
        <ele>106.84</ele>
        <time>2021-08-02T19:12:49Z</time>
      </trkpt>
      <trkpt lat="46.40318" lon="0.72327">
        <ele>109.25</ele>
        <time>2021-08-02T19:13:05Z</time>
      </trkpt>
      <trkpt lat="46.40289" lon="0.72406">
        <ele>107.81</ele>
        <time>2021-08-02T19:13:14Z</time>
      </trkpt>
      <trkpt lat="46.40265" lon="0.72443">
        <ele>105.88</ele>
        <time>2021-08-02T19:13:26Z</time>
      </trkpt>
      <trkpt lat="46.40254" lon="0.72456">
        <ele>104.92</ele>
        <time>2021-08-02T19:13:38Z</time>
      </trkpt>
      <trkpt lat="46.40212" lon="0.72502">
        <ele>104.44</ele>
        <time>2021-08-02T19:13:49Z</time>
      </trkpt>
      <trkpt lat="46.40136" lon="0.72597">
        <ele>103.96</ele>
        <time>2021-08-02T19:14:03Z</time>
      </trkpt>
      <trkpt lat="46.40032" lon="0.72719">
        <ele>103</ele>
        <time>2021-08-02T19:14:15Z</time>
      </trkpt>
      <trkpt lat="46.39926" lon="0.72846">
        <ele>106.84</ele>
        <time>2021-08-02T19:14:27Z</time>
      </trkpt>
      <trkpt lat="46.3978" lon="0.73024">
        <ele>108.29</ele>
        <time>2021-08-02T19:14:40Z</time>
      </trkpt>
      <trkpt lat="46.39658" lon="0.73164">
        <ele>107.32</ele>
        <time>2021-08-02T19:14:52Z</time>
      </trkpt>
      <trkpt lat="46.39616" lon="0.73202">
        <ele>108.29</ele>
        <time>2021-08-02T19:15:00Z</time>
      </trkpt>
      <trkpt lat="46.39609" lon="0.73205">
        <ele>108.29</ele>
        <time>2021-08-02T19:15:01Z</time>
      </trkpt>
      <trkpt lat="46.39602" lon="0.73208">
        <ele>108.29</ele>
        <time>2021-08-02T19:15:02Z</time>
      </trkpt>
      <trkpt lat="46.39595" lon="0.73209">
        <ele>108.77</ele>
        <time>2021-08-02T19:15:03Z</time>
      </trkpt>
      <trkpt lat="46.39586" lon="0.73213">
        <ele>108.77</ele>
        <time>2021-08-02T19:15:04Z</time>
      </trkpt>
      <trkpt lat="46.39579" lon="0.73232">
        <ele>108.77</ele>
        <time>2021-08-02T19:15:05Z</time>
      </trkpt>
      <trkpt lat="46.39579" lon="0.73232">
        <ele>108.77</ele>
        <time>2021-08-02T19:15:06Z</time>
      </trkpt>
      <trkpt lat="46.39577" lon="0.73243">
        <ele>108.77</ele>
        <time>2021-08-02T19:15:07Z</time>
      </trkpt>
      <trkpt lat="46.39576" lon="0.73255">
        <ele>108.77</ele>
        <time>2021-08-02T19:15:08Z</time>
      </trkpt>
      <trkpt lat="46.39569" lon="0.73267">
        <ele>108.77</ele>
        <time>2021-08-02T19:15:09Z</time>
      </trkpt>
      <trkpt lat="46.39563" lon="0.73277">
        <ele>108.77</ele>
        <time>2021-08-02T19:15:10Z</time>
      </trkpt>
      <trkpt lat="46.3946" lon="0.73409">
        <ele>108.77</ele>
        <time>2021-08-02T19:15:20Z</time>
      </trkpt>
      <trkpt lat="46.39317" lon="0.73583">
        <ele>109.25</ele>
        <time>2021-08-02T19:15:34Z</time>
      </trkpt>
      <trkpt lat="46.39108" lon="0.73837">
        <ele>106.36</ele>
        <time>2021-08-02T19:15:51Z</time>
      </trkpt>
      <trkpt lat="46.3888" lon="0.74114">
        <ele>110.69</ele>
        <time>2021-08-02T19:16:07Z</time>
      </trkpt>
      <trkpt lat="46.38641" lon="0.74406">
        <ele>114.05</ele>
        <time>2021-08-02T19:16:25Z</time>
      </trkpt>
      <trkpt lat="46.38436" lon="0.7466">
        <ele>109.73</ele>
        <time>2021-08-02T19:16:38Z</time>
      </trkpt>
      <trkpt lat="46.38034" lon="0.75157">
        <ele>114.05</ele>
        <time>2021-08-02T19:17:04Z</time>
      </trkpt>
      <trkpt lat="46.37713" lon="0.75557">
        <ele>116.94</ele>
        <time>2021-08-02T19:17:25Z</time>
      </trkpt>
      <trkpt lat="46.37406" lon="0.75932">
        <ele>110.69</ele>
        <time>2021-08-02T19:17:45Z</time>
      </trkpt>
      <trkpt lat="46.37162" lon="0.76229">
        <ele>110.21</ele>
        <time>2021-08-02T19:18:02Z</time>
      </trkpt>
      <trkpt lat="46.37037" lon="0.76382">
        <ele>112.61</ele>
        <time>2021-08-02T19:18:11Z</time>
      </trkpt>
      <trkpt lat="46.36851" lon="0.7661">
        <ele>116.46</ele>
        <time>2021-08-02T19:18:26Z</time>
      </trkpt>
      <trkpt lat="46.36624" lon="0.76885">
        <ele>113.57</ele>
        <time>2021-08-02T19:18:42Z</time>
      </trkpt>
      <trkpt lat="46.36368" lon="0.77193">
        <ele>116.46</ele>
        <time>2021-08-02T19:18:59Z</time>
      </trkpt>
      <trkpt lat="46.36061" lon="0.77567">
        <ele>124.15</ele>
        <time>2021-08-02T19:19:19Z</time>
      </trkpt>
      <trkpt lat="46.35804" lon="0.77881">
        <ele>129.43</ele>
        <time>2021-08-02T19:19:36Z</time>
      </trkpt>
      <trkpt lat="46.35587" lon="0.78146">
        <ele>140.97</ele>
        <time>2021-08-02T19:19:51Z</time>
      </trkpt>
      <trkpt lat="46.35391" lon="0.78382">
        <ele>148.66</ele>
        <time>2021-08-02T19:20:04Z</time>
      </trkpt>
      <trkpt lat="46.35126" lon="0.78702">
        <ele>140.01</ele>
        <time>2021-08-02T19:20:21Z</time>
      </trkpt>
      <trkpt lat="46.3488" lon="0.78996">
        <ele>142.41</ele>
        <time>2021-08-02T19:20:38Z</time>
      </trkpt>
      <trkpt lat="46.34684" lon="0.79228">
        <ele>144.34</ele>
        <time>2021-08-02T19:20:51Z</time>
      </trkpt>
      <trkpt lat="46.34441" lon="0.7952">
        <ele>149.62</ele>
        <time>2021-08-02T19:21:09Z</time>
      </trkpt>
      <trkpt lat="46.34216" lon="0.79789">
        <ele>155.39</ele>
        <time>2021-08-02T19:21:25Z</time>
      </trkpt>
      <trkpt lat="46.33986" lon="0.80065">
        <ele>164.04</ele>
        <time>2021-08-02T19:21:42Z</time>
      </trkpt>
      <trkpt lat="46.33722" lon="0.80382">
        <ele>165.96</ele>
        <time>2021-08-02T19:22:01Z</time>
      </trkpt>
      <trkpt lat="46.33549" lon="0.80593">
        <ele>160.68</ele>
        <time>2021-08-02T19:22:14Z</time>
      </trkpt>
      <trkpt lat="46.33439" lon="0.80728">
        <ele>153.95</ele>
        <time>2021-08-02T19:22:26Z</time>
      </trkpt>
      <trkpt lat="46.33296" lon="0.80898">
        <ele>149.14</ele>
        <time>2021-08-02T19:22:42Z</time>
      </trkpt>
      <trkpt lat="46.33169" lon="0.81053">
        <ele>150.1</ele>
        <time>2021-08-02T19:22:54Z</time>
      </trkpt>
      <trkpt lat="46.33113" lon="0.81121">
        <ele>152.99</ele>
        <time>2021-08-02T19:23:02Z</time>
      </trkpt>
      <trkpt lat="46.33063" lon="0.8118">
        <ele>156.83</ele>
        <time>2021-08-02T19:23:09Z</time>
      </trkpt>
      <trkpt lat="46.32975" lon="0.81291">
        <ele>163.08</ele>
        <time>2021-08-02T19:23:20Z</time>
      </trkpt>
      <trkpt lat="46.32822" lon="0.81473">
        <ele>157.31</ele>
        <time>2021-08-02T19:23:36Z</time>
      </trkpt>
      <trkpt lat="46.32692" lon="0.81617">
        <ele>149.62</ele>
        <time>2021-08-02T19:23:45Z</time>
      </trkpt>
      <trkpt lat="46.32491" lon="0.81777">
        <ele>144.34</ele>
        <time>2021-08-02T19:23:56Z</time>
      </trkpt>
      <trkpt lat="46.3218" lon="0.8203">
        <ele>166.93</ele>
        <time>2021-08-02T19:24:15Z</time>
      </trkpt>
      <trkpt lat="46.31824" lon="0.82317">
        <ele>177.5</ele>
        <time>2021-08-02T19:24:35Z</time>
      </trkpt>
      <trkpt lat="46.31513" lon="0.8257">
        <ele>184.71</ele>
        <time>2021-08-02T19:24:53Z</time>
      </trkpt>
      <trkpt lat="46.31119" lon="0.82894">
        <ele>185.67</ele>
        <time>2021-08-02T19:25:15Z</time>
      </trkpt>
      <trkpt lat="46.30787" lon="0.83167">
        <ele>186.63</ele>
        <time>2021-08-02T19:25:34Z</time>
      </trkpt>
      <trkpt lat="46.30395" lon="0.83489">
        <ele>191.44</ele>
        <time>2021-08-02T19:25:57Z</time>
      </trkpt>
      <trkpt lat="46.30015" lon="0.83805">
        <ele>192.4</ele>
        <time>2021-08-02T19:26:18Z</time>
      </trkpt>
      <trkpt lat="46.29651" lon="0.84111">
        <ele>193.84</ele>
        <time>2021-08-02T19:26:38Z</time>
      </trkpt>
      <trkpt lat="46.29294" lon="0.84417">
        <ele>187.59</ele>
        <time>2021-08-02T19:26:57Z</time>
      </trkpt>
      <trkpt lat="46.28995" lon="0.84669">
        <ele>196.25</ele>
        <time>2021-08-02T19:27:14Z</time>
      </trkpt>
      <trkpt lat="46.28718" lon="0.84908">
        <ele>191.92</ele>
        <time>2021-08-02T19:27:29Z</time>
      </trkpt>
      <trkpt lat="46.28452" lon="0.85135">
        <ele>194.32</ele>
        <time>2021-08-02T19:27:44Z</time>
      </trkpt>
      <trkpt lat="46.28164" lon="0.85379">
        <ele>199.61</ele>
        <time>2021-08-02T19:28:01Z</time>
      </trkpt>
      <trkpt lat="46.27952" lon="0.85559">
        <ele>200.57</ele>
        <time>2021-08-02T19:28:14Z</time>
      </trkpt>
      <trkpt lat="46.2773" lon="0.85747">
        <ele>204.9</ele>
        <time>2021-08-02T19:28:27Z</time>
      </trkpt>
      <trkpt lat="46.27465" lon="0.85974">
        <ele>206.82</ele>
        <time>2021-08-02T19:28:42Z</time>
      </trkpt>
      <trkpt lat="46.27223" lon="0.8618">
        <ele>214.03</ele>
        <time>2021-08-02T19:28:57Z</time>
      </trkpt>
      <trkpt lat="46.27102" lon="0.86284">
        <ele>212.59</ele>
        <time>2021-08-02T19:29:05Z</time>
      </trkpt>
      <trkpt lat="46.2704" lon="0.86337">
        <ele>208.74</ele>
        <time>2021-08-02T19:29:13Z</time>
      </trkpt>
      <trkpt lat="46.27018" lon="0.86356">
        <ele>209.22</ele>
        <time>2021-08-02T19:29:18Z</time>
      </trkpt>
      <trkpt lat="46.27013" lon="0.8636">
        <ele>209.7</ele>
        <time>2021-08-02T19:29:19Z</time>
      </trkpt>
      <trkpt lat="46.26997" lon="0.8635">
        <ele>210.19</ele>
        <time>2021-08-02T19:29:21Z</time>
      </trkpt>
      <trkpt lat="46.26991" lon="0.8635">
        <ele>210.19</ele>
        <time>2021-08-02T19:29:22Z</time>
      </trkpt>
      <trkpt lat="46.26985" lon="0.86357">
        <ele>210.67</ele>
        <time>2021-08-02T19:29:23Z</time>
      </trkpt>
      <trkpt lat="46.2698" lon="0.86364">
        <ele>210.67</ele>
        <time>2021-08-02T19:29:24Z</time>
      </trkpt>
      <trkpt lat="46.26978" lon="0.86367">
        <ele>210.19</ele>
        <time>2021-08-02T19:29:25Z</time>
      </trkpt>
      <trkpt lat="46.26975" lon="0.86391">
        <ele>209.7</ele>
        <time>2021-08-02T19:29:26Z</time>
      </trkpt>
      <trkpt lat="46.26968" lon="0.86397">
        <ele>209.22</ele>
        <time>2021-08-02T19:29:27Z</time>
      </trkpt>
      <trkpt lat="46.26961" lon="0.86404">
        <ele>209.22</ele>
        <time>2021-08-02T19:29:28Z</time>
      </trkpt>
      <trkpt lat="46.26953" lon="0.8641">
        <ele>209.7</ele>
        <time>2021-08-02T19:29:29Z</time>
      </trkpt>
      <trkpt lat="46.26934" lon="0.86425">
        <ele>209.7</ele>
        <time>2021-08-02T19:29:30Z</time>
      </trkpt>
      <trkpt lat="46.26831" lon="0.86511">
        <ele>216.43</ele>
        <time>2021-08-02T19:29:41Z</time>
      </trkpt>
      <trkpt lat="46.26726" lon="0.86607">
        <ele>217.4</ele>
        <time>2021-08-02T19:29:52Z</time>
      </trkpt>
      <trkpt lat="46.26553" lon="0.86763">
        <ele>217.88</ele>
        <time>2021-08-02T19:30:06Z</time>
      </trkpt>
      <trkpt lat="46.26337" lon="0.86966">
        <ele>214.51</ele>
        <time>2021-08-02T19:30:21Z</time>
      </trkpt>
      <trkpt lat="46.26116" lon="0.87187">
        <ele>214.03</ele>
        <time>2021-08-02T19:30:34Z</time>
      </trkpt>
      <trkpt lat="46.2575" lon="0.87555">
        <ele>214.51</ele>
        <time>2021-08-02T19:30:53Z</time>
      </trkpt>
      <trkpt lat="46.25458" lon="0.87848">
        <ele>219.32</ele>
        <time>2021-08-02T19:31:10Z</time>
      </trkpt>
      <trkpt lat="46.25163" lon="0.88145">
        <ele>221.24</ele>
        <time>2021-08-02T19:31:26Z</time>
      </trkpt>
      <trkpt lat="46.24944" lon="0.88366">
        <ele>215.95</ele>
        <time>2021-08-02T19:31:39Z</time>
      </trkpt>
      <trkpt lat="46.24735" lon="0.8858">
        <ele>217.4</ele>
        <time>2021-08-02T19:31:53Z</time>
      </trkpt>
      <trkpt lat="46.24481" lon="0.88837">
        <ele>222.68</ele>
        <time>2021-08-02T19:32:08Z</time>
      </trkpt>
      <trkpt lat="46.24218" lon="0.89102">
        <ele>232.78</ele>
        <time>2021-08-02T19:32:27Z</time>
      </trkpt>
      <trkpt lat="46.24106" lon="0.89218">
        <ele>233.26</ele>
        <time>2021-08-02T19:32:37Z</time>
      </trkpt>
      <trkpt lat="46.24034" lon="0.89283">
        <ele>230.85</ele>
        <time>2021-08-02T19:32:47Z</time>
      </trkpt>
      <trkpt lat="46.24031" lon="0.89286">
        <ele>230.85</ele>
        <time>2021-08-02T19:32:48Z</time>
      </trkpt>
      <trkpt lat="46.24032" lon="0.893">
        <ele>230.85</ele>
        <time>2021-08-02T19:32:49Z</time>
      </trkpt>
      <trkpt lat="46.24031" lon="0.89307">
        <ele>230.37</ele>
        <time>2021-08-02T19:32:50Z</time>
      </trkpt>
      <trkpt lat="46.24031" lon="0.89314">
        <ele>229.89</ele>
        <time>2021-08-02T19:32:51Z</time>
      </trkpt>
      <trkpt lat="46.2403" lon="0.89321">
        <ele>229.89</ele>
        <time>2021-08-02T19:32:52Z</time>
      </trkpt>
      <trkpt lat="46.2403" lon="0.89329">
        <ele>229.89</ele>
        <time>2021-08-02T19:32:53Z</time>
      </trkpt>
      <trkpt lat="46.24028" lon="0.89339">
        <ele>229.89</ele>
        <time>2021-08-02T19:32:54Z</time>
      </trkpt>
      <trkpt lat="46.24024" lon="0.89346">
        <ele>229.89</ele>
        <time>2021-08-02T19:32:55Z</time>
      </trkpt>
      <trkpt lat="46.2402" lon="0.89354">
        <ele>229.41</ele>
        <time>2021-08-02T19:32:56Z</time>
      </trkpt>
      <trkpt lat="46.24015" lon="0.89361">
        <ele>229.41</ele>
        <time>2021-08-02T19:32:57Z</time>
      </trkpt>
      <trkpt lat="46.23993" lon="0.89388">
        <ele>229.41</ele>
        <time>2021-08-02T19:33:01Z</time>
      </trkpt>
      <trkpt lat="46.23985" lon="0.89408">
        <ele>229.41</ele>
        <time>2021-08-02T19:33:02Z</time>
      </trkpt>
      <trkpt lat="46.23928" lon="0.89555">
        <ele>227.49</ele>
        <time>2021-08-02T19:33:15Z</time>
      </trkpt>
      <trkpt lat="46.23865" lon="0.89722">
        <ele>223.16</ele>
        <time>2021-08-02T19:33:25Z</time>
      </trkpt>
      <trkpt lat="46.23822" lon="0.89833">
        <ele>223.16</ele>
        <time>2021-08-02T19:33:32Z</time>
      </trkpt>
      <trkpt lat="46.23812" lon="0.89858">
        <ele>223.64</ele>
        <time>2021-08-02T19:33:39Z</time>
      </trkpt>
      <trkpt lat="46.23809" lon="0.89866">
        <ele>223.64</ele>
        <time>2021-08-02T19:34:13Z</time>
      </trkpt>
      <trkpt lat="46.23807" lon="0.89872">
        <ele>223.64</ele>
        <time>2021-08-02T19:34:14Z</time>
      </trkpt>
      <trkpt lat="46.23772" lon="0.89962">
        <ele>220.76</ele>
        <time>2021-08-02T19:34:21Z</time>
      </trkpt>
      <trkpt lat="46.23719" lon="0.90099">
        <ele>220.28</ele>
        <time>2021-08-02T19:34:32Z</time>
      </trkpt>
      <trkpt lat="46.23708" lon="0.9013">
        <ele>220.28</ele>
        <time>2021-08-02T19:34:36Z</time>
      </trkpt>
      <trkpt lat="46.23706" lon="0.90134">
        <ele>220.28</ele>
        <time>2021-08-02T19:34:37Z</time>
      </trkpt>
      <trkpt lat="46.23705" lon="0.90137">
        <ele>220.28</ele>
        <time>2021-08-02T19:34:38Z</time>
      </trkpt>
      <trkpt lat="46.23705" lon="0.90137">
        <ele>219.8</ele>
        <time>2021-08-02T19:34:39Z</time>
      </trkpt>
      <trkpt lat="46.23706" lon="0.90135">
        <ele>218.36</ele>
        <time>2021-08-02T19:34:42Z</time>
      </trkpt>
      <trkpt lat="46.23707" lon="0.90131">
        <ele>218.36</ele>
        <time>2021-08-02T19:34:43Z</time>
      </trkpt>
      <trkpt lat="46.23709" lon="0.90126">
        <ele>217.88</ele>
        <time>2021-08-02T19:34:44Z</time>
      </trkpt>
      <trkpt lat="46.23711" lon="0.90121">
        <ele>217.88</ele>
        <time>2021-08-02T19:34:45Z</time>
      </trkpt>
      <trkpt lat="46.23713" lon="0.90116">
        <ele>217.4</ele>
        <time>2021-08-02T19:34:46Z</time>
      </trkpt>
      <trkpt lat="46.23714" lon="0.90111">
        <ele>217.4</ele>
        <time>2021-08-02T19:34:47Z</time>
      </trkpt>
      <trkpt lat="46.23716" lon="0.90107">
        <ele>217.4</ele>
        <time>2021-08-02T19:34:48Z</time>
      </trkpt>
      <trkpt lat="46.23718" lon="0.90102">
        <ele>217.4</ele>
        <time>2021-08-02T19:34:49Z</time>
      </trkpt>
      <trkpt lat="46.2372" lon="0.90095">
        <ele>216.91</ele>
        <time>2021-08-02T19:34:50Z</time>
      </trkpt>
      <trkpt lat="46.23728" lon="0.90075">
        <ele>216.43</ele>
        <time>2021-08-02T19:34:51Z</time>
      </trkpt>
      <trkpt lat="46.23728" lon="0.90075">
        <ele>215.47</ele>
        <time>2021-08-02T19:34:52Z</time>
      </trkpt>
      <trkpt lat="46.23733" lon="0.90062">
        <ele>214.03</ele>
        <time>2021-08-02T19:34:53Z</time>
      </trkpt>
      <trkpt lat="46.23799" lon="0.89893">
        <ele>208.26</ele>
        <time>2021-08-02T19:35:01Z</time>
      </trkpt>
      <trkpt lat="46.23884" lon="0.89672">
        <ele>208.74</ele>
        <time>2021-08-02T19:35:11Z</time>
      </trkpt>
      <trkpt lat="46.23955" lon="0.89484">
        <ele>210.67</ele>
        <time>2021-08-02T19:35:20Z</time>
      </trkpt>
      <trkpt lat="46.23987" lon="0.89403">
        <ele>213.07</ele>
        <time>2021-08-02T19:35:25Z</time>
      </trkpt>
      <trkpt lat="46.23992" lon="0.89389">
        <ele>214.03</ele>
        <time>2021-08-02T19:35:26Z</time>
      </trkpt>
      <trkpt lat="46.24" lon="0.89379">
        <ele>214.03</ele>
        <time>2021-08-02T19:35:27Z</time>
      </trkpt>
      <trkpt lat="46.24023" lon="0.89349">
        <ele>215.47</ele>
        <time>2021-08-02T19:35:30Z</time>
      </trkpt>
      <trkpt lat="46.24027" lon="0.8934">
        <ele>216.43</ele>
        <time>2021-08-02T19:35:31Z</time>
      </trkpt>
      <trkpt lat="46.2403" lon="0.89332">
        <ele>216.91</ele>
        <time>2021-08-02T19:35:32Z</time>
      </trkpt>
      <trkpt lat="46.2403" lon="0.89323">
        <ele>217.4</ele>
        <time>2021-08-02T19:35:33Z</time>
      </trkpt>
      <trkpt lat="46.24031" lon="0.89315">
        <ele>218.84</ele>
        <time>2021-08-02T19:35:34Z</time>
      </trkpt>
      <trkpt lat="46.24031" lon="0.89308">
        <ele>219.32</ele>
        <time>2021-08-02T19:35:35Z</time>
      </trkpt>
      <trkpt lat="46.24031" lon="0.89304">
        <ele>219.8</ele>
        <time>2021-08-02T19:35:36Z</time>
      </trkpt>
      <trkpt lat="46.24032" lon="0.89301">
        <ele>220.28</ele>
        <time>2021-08-02T19:35:37Z</time>
      </trkpt>
      <trkpt lat="46.24032" lon="0.89299">
        <ele>220.76</ele>
        <time>2021-08-02T19:35:38Z</time>
      </trkpt>
      <trkpt lat="46.24032" lon="0.89297">
        <ele>221.24</ele>
        <time>2021-08-02T19:35:39Z</time>
      </trkpt>
      <trkpt lat="46.24025" lon="0.8929">
        <ele>221.24</ele>
        <time>2021-08-02T19:35:40Z</time>
      </trkpt>
      <trkpt lat="46.24025" lon="0.8929">
        <ele>221.24</ele>
        <time>2021-08-02T19:35:41Z</time>
      </trkpt>
      <trkpt lat="46.24019" lon="0.89293">
        <ele>220.76</ele>
        <time>2021-08-02T19:35:42Z</time>
      </trkpt>
      <trkpt lat="46.24012" lon="0.89297">
        <ele>221.24</ele>
        <time>2021-08-02T19:35:43Z</time>
      </trkpt>
      <trkpt lat="46.23928" lon="0.89348">
        <ele>222.68</ele>
        <time>2021-08-02T19:35:50Z</time>
      </trkpt>
      <trkpt lat="46.23722" lon="0.89453">
        <ele>221.24</ele>
        <time>2021-08-02T19:36:01Z</time>
      </trkpt>
      <trkpt lat="46.23462" lon="0.8959">
        <ele>224.12</ele>
        <time>2021-08-02T19:36:15Z</time>
      </trkpt>
      <trkpt lat="46.23142" lon="0.89752">
        <ele>228.45</ele>
        <time>2021-08-02T19:36:30Z</time>
      </trkpt>
      <trkpt lat="46.2297" lon="0.89875">
        <ele>224.61</ele>
        <time>2021-08-02T19:36:40Z</time>
      </trkpt>
      <trkpt lat="46.22614" lon="0.90155">
        <ele>224.12</ele>
        <time>2021-08-02T19:36:59Z</time>
      </trkpt>
      <trkpt lat="46.22312" lon="0.90393">
        <ele>227.49</ele>
        <time>2021-08-02T19:37:15Z</time>
      </trkpt>
      <trkpt lat="46.21894" lon="0.90721">
        <ele>228.93</ele>
        <time>2021-08-02T19:37:37Z</time>
      </trkpt>
      <trkpt lat="46.2157" lon="0.90975">
        <ele>223.64</ele>
        <time>2021-08-02T19:37:55Z</time>
      </trkpt>
      <trkpt lat="46.21209" lon="0.9126">
        <ele>222.68</ele>
        <time>2021-08-02T19:38:15Z</time>
      </trkpt>
      <trkpt lat="46.2097" lon="0.91445">
        <ele>223.64</ele>
        <time>2021-08-02T19:38:29Z</time>
      </trkpt>
      <trkpt lat="46.20711" lon="0.91646">
        <ele>231.81</ele>
        <time>2021-08-02T19:38:43Z</time>
      </trkpt>
      <trkpt lat="46.20449" lon="0.91851">
        <ele>236.14</ele>
        <time>2021-08-02T19:38:55Z</time>
      </trkpt>
      <trkpt lat="46.20131" lon="0.92099">
        <ele>239.02</ele>
        <time>2021-08-02T19:39:13Z</time>
      </trkpt>
      <trkpt lat="46.19859" lon="0.92311">
        <ele>238.54</ele>
        <time>2021-08-02T19:39:28Z</time>
      </trkpt>
      <trkpt lat="46.19505" lon="0.92587">
        <ele>236.62</ele>
        <time>2021-08-02T19:39:47Z</time>
      </trkpt>
      <trkpt lat="46.19202" lon="0.92823">
        <ele>242.87</ele>
        <time>2021-08-02T19:40:04Z</time>
      </trkpt>
      <trkpt lat="46.18761" lon="0.93166">
        <ele>248.16</ele>
        <time>2021-08-02T19:40:29Z</time>
      </trkpt>
      <trkpt lat="46.18506" lon="0.9337">
        <ele>247.68</ele>
        <time>2021-08-02T19:40:43Z</time>
      </trkpt>
      <trkpt lat="46.18344" lon="0.93556">
        <ele>245.75</ele>
        <time>2021-08-02T19:40:53Z</time>
      </trkpt>
      <trkpt lat="46.18132" lon="0.93815">
        <ele>235.18</ele>
        <time>2021-08-02T19:41:07Z</time>
      </trkpt>
      <trkpt lat="46.17937" lon="0.94057">
        <ele>220.76</ele>
        <time>2021-08-02T19:41:20Z</time>
      </trkpt>
      <trkpt lat="46.17743" lon="0.94296">
        <ele>226.53</ele>
        <time>2021-08-02T19:41:33Z</time>
      </trkpt>
      <trkpt lat="46.17521" lon="0.94569">
        <ele>234.22</ele>
        <time>2021-08-02T19:41:47Z</time>
      </trkpt>
      <trkpt lat="46.17309" lon="0.94831">
        <ele>212.59</ele>
        <time>2021-08-02T19:42:01Z</time>
      </trkpt>
      <trkpt lat="46.17185" lon="0.94984">
        <ele>198.65</ele>
        <time>2021-08-02T19:42:10Z</time>
      </trkpt>
      <trkpt lat="46.17064" lon="0.95133">
        <ele>205.38</ele>
        <time>2021-08-02T19:42:21Z</time>
      </trkpt>
      <trkpt lat="46.1699" lon="0.95225">
        <ele>208.26</ele>
        <time>2021-08-02T19:42:30Z</time>
      </trkpt>
      <trkpt lat="46.16959" lon="0.95261">
        <ele>209.22</ele>
        <time>2021-08-02T19:42:38Z</time>
      </trkpt>
      <trkpt lat="46.16955" lon="0.95265">
        <ele>208.74</ele>
        <time>2021-08-02T19:42:58Z</time>
      </trkpt>
      <trkpt lat="46.16912" lon="0.9532">
        <ele>207.78</ele>
        <time>2021-08-02T19:43:07Z</time>
      </trkpt>
      <trkpt lat="46.16826" lon="0.9542">
        <ele>204.42</ele>
        <time>2021-08-02T19:43:16Z</time>
      </trkpt>
      <trkpt lat="46.16816" lon="0.95431">
        <ele>203.94</ele>
        <time>2021-08-02T19:43:17Z</time>
      </trkpt>
      <trkpt lat="46.16806" lon="0.9544">
        <ele>202.49</ele>
        <time>2021-08-02T19:43:18Z</time>
      </trkpt>
      <trkpt lat="46.16783" lon="0.95448">
        <ele>202.98</ele>
        <time>2021-08-02T19:43:19Z</time>
      </trkpt>
      <trkpt lat="46.1677" lon="0.95448">
        <ele>203.46</ele>
        <time>2021-08-02T19:43:20Z</time>
      </trkpt>
      <trkpt lat="46.1677" lon="0.95448">
        <ele>204.9</ele>
        <time>2021-08-02T19:43:21Z</time>
      </trkpt>
      <trkpt lat="46.16744" lon="0.9544">
        <ele>203.94</ele>
        <time>2021-08-02T19:43:22Z</time>
      </trkpt>
      <trkpt lat="46.16717" lon="0.95431">
        <ele>201.05</ele>
        <time>2021-08-02T19:43:25Z</time>
      </trkpt>
      <trkpt lat="46.16704" lon="0.95429">
        <ele>200.09</ele>
        <time>2021-08-02T19:43:26Z</time>
      </trkpt>
      <trkpt lat="46.16691" lon="0.95429">
        <ele>198.17</ele>
        <time>2021-08-02T19:43:27Z</time>
      </trkpt>
      <trkpt lat="46.16676" lon="0.95429">
        <ele>196.73</ele>
        <time>2021-08-02T19:43:28Z</time>
      </trkpt>
      <trkpt lat="46.1665" lon="0.95446">
        <ele>196.73</ele>
        <time>2021-08-02T19:43:29Z</time>
      </trkpt>
      <trkpt lat="46.1665" lon="0.95446">
        <ele>195.28</ele>
        <time>2021-08-02T19:43:30Z</time>
      </trkpt>
      <trkpt lat="46.16639" lon="0.95457">
        <ele>194.8</ele>
        <time>2021-08-02T19:43:31Z</time>
      </trkpt>
      <trkpt lat="46.16628" lon="0.9547">
        <ele>194.32</ele>
        <time>2021-08-02T19:43:32Z</time>
      </trkpt>
      <trkpt lat="46.16618" lon="0.95482">
        <ele>194.32</ele>
        <time>2021-08-02T19:43:33Z</time>
      </trkpt>
      <trkpt lat="46.16611" lon="0.95501">
        <ele>193.36</ele>
        <time>2021-08-02T19:43:34Z</time>
      </trkpt>
      <trkpt lat="46.16605" lon="0.95519">
        <ele>192.88</ele>
        <time>2021-08-02T19:43:35Z</time>
      </trkpt>
      <trkpt lat="46.1658" lon="0.95596">
        <ele>189.04</ele>
        <time>2021-08-02T19:43:39Z</time>
      </trkpt>
      <trkpt lat="46.16578" lon="0.95615">
        <ele>187.59</ele>
        <time>2021-08-02T19:43:40Z</time>
      </trkpt>
      <trkpt lat="46.16576" lon="0.95636">
        <ele>186.63</ele>
        <time>2021-08-02T19:43:41Z</time>
      </trkpt>
      <trkpt lat="46.16574" lon="0.95655">
        <ele>186.15</ele>
        <time>2021-08-02T19:43:42Z</time>
      </trkpt>
      <trkpt lat="46.16573" lon="0.95676">
        <ele>186.15</ele>
        <time>2021-08-02T19:43:43Z</time>
      </trkpt>
      <trkpt lat="46.16573" lon="0.95697">
        <ele>185.19</ele>
        <time>2021-08-02T19:43:44Z</time>
      </trkpt>
      <trkpt lat="46.16576" lon="0.95717">
        <ele>184.71</ele>
        <time>2021-08-02T19:43:45Z</time>
      </trkpt>
      <trkpt lat="46.16581" lon="0.95739">
        <ele>184.23</ele>
        <time>2021-08-02T19:43:46Z</time>
      </trkpt>
      <trkpt lat="46.16589" lon="0.95781">
        <ele>183.27</ele>
        <time>2021-08-02T19:43:48Z</time>
      </trkpt>
      <trkpt lat="46.16591" lon="0.95801">
        <ele>181.35</ele>
        <time>2021-08-02T19:43:49Z</time>
      </trkpt>
      <trkpt lat="46.16592" lon="0.95822">
        <ele>179.42</ele>
        <time>2021-08-02T19:43:50Z</time>
      </trkpt>
      <trkpt lat="46.16589" lon="0.95842">
        <ele>179.42</ele>
        <time>2021-08-02T19:43:51Z</time>
      </trkpt>
      <trkpt lat="46.16584" lon="0.95859">
        <ele>179.42</ele>
        <time>2021-08-02T19:43:52Z</time>
      </trkpt>
      <trkpt lat="46.16577" lon="0.95876">
        <ele>179.42</ele>
        <time>2021-08-02T19:43:53Z</time>
      </trkpt>
      <trkpt lat="46.16565" lon="0.9591">
        <ele>178.94</ele>
        <time>2021-08-02T19:43:54Z</time>
      </trkpt>
      <trkpt lat="46.1655" lon="0.95943">
        <ele>179.42</ele>
        <time>2021-08-02T19:43:57Z</time>
      </trkpt>
      <trkpt lat="46.16541" lon="0.95959">
        <ele>177.98</ele>
        <time>2021-08-02T19:43:58Z</time>
      </trkpt>
      <trkpt lat="46.16532" lon="0.95975">
        <ele>177.02</ele>
        <time>2021-08-02T19:43:59Z</time>
      </trkpt>
      <trkpt lat="46.1652" lon="0.95986">
        <ele>176.06</ele>
        <time>2021-08-02T19:44:00Z</time>
      </trkpt>
      <trkpt lat="46.16508" lon="0.95997">
        <ele>176.06</ele>
        <time>2021-08-02T19:44:01Z</time>
      </trkpt>
      <trkpt lat="46.16477" lon="0.96002">
        <ele>174.62</ele>
        <time>2021-08-02T19:44:02Z</time>
      </trkpt>
      <trkpt lat="46.16477" lon="0.96002">
        <ele>174.14</ele>
        <time>2021-08-02T19:44:03Z</time>
      </trkpt>
      <trkpt lat="46.16303" lon="0.95994">
        <ele>179.42</ele>
        <time>2021-08-02T19:44:14Z</time>
      </trkpt>
      <trkpt lat="46.16288" lon="0.95989">
        <ele>179.9</ele>
        <time>2021-08-02T19:44:15Z</time>
      </trkpt>
      <trkpt lat="46.16225" lon="0.95969">
        <ele>182.31</ele>
        <time>2021-08-02T19:44:19Z</time>
      </trkpt>
      <trkpt lat="46.16209" lon="0.95964">
        <ele>182.79</ele>
        <time>2021-08-02T19:44:20Z</time>
      </trkpt>
      <trkpt lat="46.16192" lon="0.95961">
        <ele>182.79</ele>
        <time>2021-08-02T19:44:21Z</time>
      </trkpt>
      <trkpt lat="46.15991" lon="0.95997">
        <ele>189.04</ele>
        <time>2021-08-02T19:44:31Z</time>
      </trkpt>
      <trkpt lat="46.15937" lon="0.96021">
        <ele>193.84</ele>
        <time>2021-08-02T19:44:35Z</time>
      </trkpt>
      <trkpt lat="46.15917" lon="0.96021">
        <ele>195.28</ele>
        <time>2021-08-02T19:44:36Z</time>
      </trkpt>
      <trkpt lat="46.15898" lon="0.96019">
        <ele>196.25</ele>
        <time>2021-08-02T19:44:37Z</time>
      </trkpt>
      <trkpt lat="46.1584" lon="0.96006">
        <ele>199.13</ele>
        <time>2021-08-02T19:44:40Z</time>
      </trkpt>
      <trkpt lat="46.1582" lon="0.96008">
        <ele>200.09</ele>
        <time>2021-08-02T19:44:41Z</time>
      </trkpt>
      <trkpt lat="46.15781" lon="0.96015">
        <ele>201.53</ele>
        <time>2021-08-02T19:44:42Z</time>
      </trkpt>
      <trkpt lat="46.15781" lon="0.96015">
        <ele>202.49</ele>
        <time>2021-08-02T19:44:43Z</time>
      </trkpt>
      <trkpt lat="46.15743" lon="0.96034">
        <ele>202.98</ele>
        <time>2021-08-02T19:44:44Z</time>
      </trkpt>
      <trkpt lat="46.1546" lon="0.96182">
        <ele>215.95</ele>
        <time>2021-08-02T19:45:00Z</time>
      </trkpt>
      <trkpt lat="46.15212" lon="0.96378">
        <ele>230.85</ele>
        <time>2021-08-02T19:45:14Z</time>
      </trkpt>
      <trkpt lat="46.1509" lon="0.96473">
        <ele>234.22</ele>
        <time>2021-08-02T19:45:23Z</time>
      </trkpt>
      <trkpt lat="46.14899" lon="0.96626">
        <ele>238.54</ele>
        <time>2021-08-02T19:45:36Z</time>
      </trkpt>
      <trkpt lat="46.14868" lon="0.96652">
        <ele>241.43</ele>
        <time>2021-08-02T19:45:38Z</time>
      </trkpt>
      <trkpt lat="46.14839" lon="0.96682">
        <ele>242.39</ele>
        <time>2021-08-02T19:45:39Z</time>
      </trkpt>
      <trkpt lat="46.14732" lon="0.96845">
        <ele>240.47</ele>
        <time>2021-08-02T19:45:48Z</time>
      </trkpt>
      <trkpt lat="46.14413" lon="0.97339">
        <ele>243.83</ele>
        <time>2021-08-02T19:46:09Z</time>
      </trkpt>
      <trkpt lat="46.14262" lon="0.97538">
        <ele>242.87</ele>
        <time>2021-08-02T19:46:19Z</time>
      </trkpt>
      <trkpt lat="46.13924" lon="0.97965">
        <ele>248.64</ele>
        <time>2021-08-02T19:46:40Z</time>
      </trkpt>
      <trkpt lat="46.13661" lon="0.98298">
        <ele>243.83</ele>
        <time>2021-08-02T19:46:56Z</time>
      </trkpt>
      <trkpt lat="46.13447" lon="0.98566">
        <ele>256.81</ele>
        <time>2021-08-02T19:47:10Z</time>
      </trkpt>
      <trkpt lat="46.1324" lon="0.98828">
        <ele>258.73</ele>
        <time>2021-08-02T19:47:24Z</time>
      </trkpt>
      <trkpt lat="46.13078" lon="0.99025">
        <ele>257.29</ele>
        <time>2021-08-02T19:47:35Z</time>
      </trkpt>
      <trkpt lat="46.13001" lon="0.9907">
        <ele>257.77</ele>
        <time>2021-08-02T19:47:42Z</time>
      </trkpt>
      <trkpt lat="46.12994" lon="0.99072">
        <ele>257.29</ele>
        <time>2021-08-02T19:47:43Z</time>
      </trkpt>
      <trkpt lat="46.12988" lon="0.99073">
        <ele>257.29</ele>
        <time>2021-08-02T19:47:44Z</time>
      </trkpt>
      <trkpt lat="46.12982" lon="0.99074">
        <ele>257.29</ele>
        <time>2021-08-02T19:47:52Z</time>
      </trkpt>
      <trkpt lat="46.12968" lon="0.99062">
        <ele>258.25</ele>
        <time>2021-08-02T19:48:05Z</time>
      </trkpt>
      <trkpt lat="46.12963" lon="0.99062">
        <ele>258.25</ele>
        <time>2021-08-02T19:48:06Z</time>
      </trkpt>
      <trkpt lat="46.12957" lon="0.99065">
        <ele>258.25</ele>
        <time>2021-08-02T19:48:07Z</time>
      </trkpt>
      <trkpt lat="46.12952" lon="0.9907">
        <ele>257.77</ele>
        <time>2021-08-02T19:48:08Z</time>
      </trkpt>
      <trkpt lat="46.12949" lon="0.99074">
        <ele>257.77</ele>
        <time>2021-08-02T19:48:09Z</time>
      </trkpt>
      <trkpt lat="46.1295" lon="0.99085">
        <ele>257.29</ele>
        <time>2021-08-02T19:48:10Z</time>
      </trkpt>
      <trkpt lat="46.12949" lon="0.99108">
        <ele>257.29</ele>
        <time>2021-08-02T19:48:11Z</time>
      </trkpt>
      <trkpt lat="46.12942" lon="0.99118">
        <ele>257.29</ele>
        <time>2021-08-02T19:48:12Z</time>
      </trkpt>
      <trkpt lat="46.12871" lon="0.99254">
        <ele>255.37</ele>
        <time>2021-08-02T19:48:21Z</time>
      </trkpt>
      <trkpt lat="46.12827" lon="0.99446">
        <ele>250.08</ele>
        <time>2021-08-02T19:48:29Z</time>
      </trkpt>
      <trkpt lat="46.12754" lon="0.99825">
        <ele>244.79</ele>
        <time>2021-08-02T19:48:42Z</time>
      </trkpt>
      <trkpt lat="46.12715" lon="1.00194">
        <ele>231.33</ele>
        <time>2021-08-02T19:48:54Z</time>
      </trkpt>
      <trkpt lat="46.12728" lon="1.00522">
        <ele>214.99</ele>
        <time>2021-08-02T19:49:04Z</time>
      </trkpt>
      <trkpt lat="46.12785" lon="1.0087">
        <ele>200.09</ele>
        <time>2021-08-02T19:49:15Z</time>
      </trkpt>
      <trkpt lat="46.12832" lon="1.01128">
        <ele>197.21</ele>
        <time>2021-08-02T19:49:24Z</time>
      </trkpt>
      <trkpt lat="46.12927" lon="1.01675">
        <ele>203.94</ele>
        <time>2021-08-02T19:49:43Z</time>
      </trkpt>
      <trkpt lat="46.12931" lon="1.02002">
        <ele>202.98</ele>
        <time>2021-08-02T19:49:53Z</time>
      </trkpt>
      <trkpt lat="46.12885" lon="1.02359">
        <ele>198.17</ele>
        <time>2021-08-02T19:50:06Z</time>
      </trkpt>
      <trkpt lat="46.12819" lon="1.02857">
        <ele>202.98</ele>
        <time>2021-08-02T19:50:23Z</time>
      </trkpt>
      <trkpt lat="46.12838" lon="1.03118">
        <ele>208.26</ele>
        <time>2021-08-02T19:50:32Z</time>
      </trkpt>
      <trkpt lat="46.12897" lon="1.03336">
        <ele>215.95</ele>
        <time>2021-08-02T19:50:40Z</time>
      </trkpt>
      <trkpt lat="46.13" lon="1.03517">
        <ele>221.24</ele>
        <time>2021-08-02T19:50:48Z</time>
      </trkpt>
      <trkpt lat="46.13172" lon="1.03758">
        <ele>230.85</ele>
        <time>2021-08-02T19:50:59Z</time>
      </trkpt>
      <trkpt lat="46.13369" lon="1.04114">
        <ele>242.87</ele>
        <time>2021-08-02T19:51:13Z</time>
      </trkpt>
      <trkpt lat="46.13586" lon="1.04526">
        <ele>254.41</ele>
        <time>2021-08-02T19:51:28Z</time>
      </trkpt>
      <trkpt lat="46.13618" lon="1.04602">
        <ele>255.37</ele>
        <time>2021-08-02T19:51:31Z</time>
      </trkpt>
      <trkpt lat="46.137" lon="1.0488">
        <ele>258.73</ele>
        <time>2021-08-02T19:51:42Z</time>
      </trkpt>
      <trkpt lat="46.13798" lon="1.05347">
        <ele>256.81</ele>
        <time>2021-08-02T19:51:58Z</time>
      </trkpt>
      <trkpt lat="46.13839" lon="1.0554">
        <ele>257.77</ele>
        <time>2021-08-02T19:52:06Z</time>
      </trkpt>
      <trkpt lat="46.13843" lon="1.05557">
        <ele>258.25</ele>
        <time>2021-08-02T19:52:07Z</time>
      </trkpt>
      <trkpt lat="46.13847" lon="1.05571">
        <ele>257.77</ele>
        <time>2021-08-02T19:52:08Z</time>
      </trkpt>
      <trkpt lat="46.1385" lon="1.05583">
        <ele>258.25</ele>
        <time>2021-08-02T19:52:09Z</time>
      </trkpt>
      <trkpt lat="46.1384" lon="1.0565">
        <ele>259.21</ele>
        <time>2021-08-02T19:52:12Z</time>
      </trkpt>
      <trkpt lat="46.1384" lon="1.0565">
        <ele>258.73</ele>
        <time>2021-08-02T19:52:13Z</time>
      </trkpt>
      <trkpt lat="46.13834" lon="1.05664">
        <ele>257.77</ele>
        <time>2021-08-02T19:52:14Z</time>
      </trkpt>
      <trkpt lat="46.1376" lon="1.05864">
        <ele>254.41</ele>
        <time>2021-08-02T19:52:24Z</time>
      </trkpt>
      <trkpt lat="46.13642" lon="1.06185">
        <ele>255.37</ele>
        <time>2021-08-02T19:52:38Z</time>
      </trkpt>
      <trkpt lat="46.1352" lon="1.06459">
        <ele>259.21</ele>
        <time>2021-08-02T19:52:50Z</time>
      </trkpt>
      <trkpt lat="46.13359" lon="1.06696">
        <ele>258.73</ele>
        <time>2021-08-02T19:53:02Z</time>
      </trkpt>
      <trkpt lat="46.13152" lon="1.06901">
        <ele>257.77</ele>
        <time>2021-08-02T19:53:14Z</time>
      </trkpt>
      <trkpt lat="46.12863" lon="1.07118">
        <ele>256.81</ele>
        <time>2021-08-02T19:53:32Z</time>
      </trkpt>
      <trkpt lat="46.12715" lon="1.07271">
        <ele>257.77</ele>
        <time>2021-08-02T19:53:42Z</time>
      </trkpt>
      <trkpt lat="46.12647" lon="1.07343">
        <ele>259.21</ele>
        <time>2021-08-02T19:53:49Z</time>
      </trkpt>
      <trkpt lat="46.12605" lon="1.07389">
        <ele>260.17</ele>
        <time>2021-08-02T19:53:58Z</time>
      </trkpt>
      <trkpt lat="46.126" lon="1.07395">
        <ele>260.65</ele>
        <time>2021-08-02T19:53:59Z</time>
      </trkpt>
      <trkpt lat="46.12585" lon="1.07393">
        <ele>260.65</ele>
        <time>2021-08-02T19:54:00Z</time>
      </trkpt>
      <trkpt lat="46.12585" lon="1.07393">
        <ele>260.65</ele>
        <time>2021-08-02T19:54:01Z</time>
      </trkpt>
      <trkpt lat="46.12577" lon="1.07387">
        <ele>260.65</ele>
        <time>2021-08-02T19:54:02Z</time>
      </trkpt>
      <trkpt lat="46.12571" lon="1.07387">
        <ele>260.65</ele>
        <time>2021-08-02T19:54:03Z</time>
      </trkpt>
      <trkpt lat="46.12561" lon="1.07391">
        <ele>260.65</ele>
        <time>2021-08-02T19:54:04Z</time>
      </trkpt>
      <trkpt lat="46.12556" lon="1.07396">
        <ele>260.65</ele>
        <time>2021-08-02T19:54:05Z</time>
      </trkpt>
      <trkpt lat="46.12549" lon="1.07405">
        <ele>260.65</ele>
        <time>2021-08-02T19:54:06Z</time>
      </trkpt>
      <trkpt lat="46.12547" lon="1.07413">
        <ele>260.65</ele>
        <time>2021-08-02T19:54:07Z</time>
      </trkpt>
      <trkpt lat="46.12547" lon="1.07425">
        <ele>260.65</ele>
        <time>2021-08-02T19:54:08Z</time>
      </trkpt>
      <trkpt lat="46.1255" lon="1.07434">
        <ele>260.17</ele>
        <time>2021-08-02T19:54:09Z</time>
      </trkpt>
      <trkpt lat="46.12552" lon="1.07442">
        <ele>259.69</ele>
        <time>2021-08-02T19:54:10Z</time>
      </trkpt>
      <trkpt lat="46.12557" lon="1.0745">
        <ele>259.69</ele>
        <time>2021-08-02T19:54:11Z</time>
      </trkpt>
      <trkpt lat="46.12563" lon="1.07458">
        <ele>259.69</ele>
        <time>2021-08-02T19:54:12Z</time>
      </trkpt>
      <trkpt lat="46.1257" lon="1.07458">
        <ele>259.69</ele>
        <time>2021-08-02T19:54:13Z</time>
      </trkpt>
      <trkpt lat="46.12576" lon="1.07458">
        <ele>259.69</ele>
        <time>2021-08-02T19:54:14Z</time>
      </trkpt>
      <trkpt lat="46.12593" lon="1.07448">
        <ele>259.69</ele>
        <time>2021-08-02T19:54:15Z</time>
      </trkpt>
      <trkpt lat="46.12602" lon="1.07458">
        <ele>260.17</ele>
        <time>2021-08-02T19:54:16Z</time>
      </trkpt>
      <trkpt lat="46.12612" lon="1.07468">
        <ele>260.17</ele>
        <time>2021-08-02T19:54:17Z</time>
      </trkpt>
      <trkpt lat="46.12622" lon="1.07479">
        <ele>260.17</ele>
        <time>2021-08-02T19:54:18Z</time>
      </trkpt>
      <trkpt lat="46.1273" lon="1.07596">
        <ele>258.73</ele>
        <time>2021-08-02T19:54:27Z</time>
      </trkpt>
      <trkpt lat="46.12825" lon="1.07754">
        <ele>256.33</ele>
        <time>2021-08-02T19:54:35Z</time>
      </trkpt>
      <trkpt lat="46.12973" lon="1.08088">
        <ele>259.21</ele>
        <time>2021-08-02T19:54:51Z</time>
      </trkpt>
      <trkpt lat="46.1304" lon="1.08236">
        <ele>260.17</ele>
        <time>2021-08-02T19:55:01Z</time>
      </trkpt>
      <trkpt lat="46.13098" lon="1.08365">
        <ele>258.73</ele>
        <time>2021-08-02T19:55:11Z</time>
      </trkpt>
      <trkpt lat="46.13183" lon="1.08551">
        <ele>258.73</ele>
        <time>2021-08-02T19:55:21Z</time>
      </trkpt>
      <trkpt lat="46.13309" lon="1.08828">
        <ele>253.93</ele>
        <time>2021-08-02T19:55:35Z</time>
      </trkpt>
      <trkpt lat="46.13463" lon="1.09171">
        <ele>251.04</ele>
        <time>2021-08-02T19:55:49Z</time>
      </trkpt>
      <trkpt lat="46.13639" lon="1.0956">
        <ele>244.31</ele>
        <time>2021-08-02T19:56:05Z</time>
      </trkpt>
      <trkpt lat="46.13732" lon="1.09704">
        <ele>240.47</ele>
        <time>2021-08-02T19:56:13Z</time>
      </trkpt>
      <trkpt lat="46.1385" lon="1.09789">
        <ele>236.14</ele>
        <time>2021-08-02T19:56:20Z</time>
      </trkpt>
      <trkpt lat="46.14015" lon="1.09819">
        <ele>223.64</ele>
        <time>2021-08-02T19:56:29Z</time>
      </trkpt>
      <trkpt lat="46.14211" lon="1.09864">
        <ele>220.28</ele>
        <time>2021-08-02T19:56:40Z</time>
      </trkpt>
      <trkpt lat="46.14337" lon="1.09979">
        <ele>217.4</ele>
        <time>2021-08-02T19:56:48Z</time>
      </trkpt>
      <trkpt lat="46.14526" lon="1.10211">
        <ele>215.95</ele>
        <time>2021-08-02T19:57:01Z</time>
      </trkpt>
      <trkpt lat="46.1467" lon="1.1031">
        <ele>210.67</ele>
        <time>2021-08-02T19:57:09Z</time>
      </trkpt>
      <trkpt lat="46.14938" lon="1.10442">
        <ele>197.69</ele>
        <time>2021-08-02T19:57:23Z</time>
      </trkpt>
      <trkpt lat="46.15025" lon="1.10567">
        <ele>190</ele>
        <time>2021-08-02T19:57:29Z</time>
      </trkpt>
      <trkpt lat="46.15035" lon="1.10593">
        <ele>189.52</ele>
        <time>2021-08-02T19:57:30Z</time>
      </trkpt>
      <trkpt lat="46.15109" lon="1.10834">
        <ele>193.84</ele>
        <time>2021-08-02T19:57:39Z</time>
      </trkpt>
      <trkpt lat="46.15118" lon="1.1105">
        <ele>199.61</ele>
        <time>2021-08-02T19:57:47Z</time>
      </trkpt>
      <trkpt lat="46.15159" lon="1.11233">
        <ele>203.94</ele>
        <time>2021-08-02T19:57:54Z</time>
      </trkpt>
      <trkpt lat="46.15269" lon="1.11646">
        <ele>217.88</ele>
        <time>2021-08-02T19:58:08Z</time>
      </trkpt>
      <trkpt lat="46.15308" lon="1.11879">
        <ele>227.49</ele>
        <time>2021-08-02T19:58:17Z</time>
      </trkpt>
      <trkpt lat="46.15306" lon="1.12193">
        <ele>231.33</ele>
        <time>2021-08-02T19:58:28Z</time>
      </trkpt>
      <trkpt lat="46.15311" lon="1.12475">
        <ele>231.33</ele>
        <time>2021-08-02T19:58:39Z</time>
      </trkpt>
      <trkpt lat="46.15353" lon="1.12662">
        <ele>229.89</ele>
        <time>2021-08-02T19:58:46Z</time>
      </trkpt>
      <trkpt lat="46.15451" lon="1.12826">
        <ele>229.41</ele>
        <time>2021-08-02T19:58:54Z</time>
      </trkpt>
      <trkpt lat="46.15617" lon="1.12973">
        <ele>227.01</ele>
        <time>2021-08-02T19:59:04Z</time>
      </trkpt>
      <trkpt lat="46.15905" lon="1.132">
        <ele>225.57</ele>
        <time>2021-08-02T19:59:21Z</time>
      </trkpt>
      <trkpt lat="46.16058" lon="1.13271">
        <ele>231.33</ele>
        <time>2021-08-02T19:59:30Z</time>
      </trkpt>
      <trkpt lat="46.16127" lon="1.13298">
        <ele>232.3</ele>
        <time>2021-08-02T19:59:36Z</time>
      </trkpt>
      <trkpt lat="46.16211" lon="1.13332">
        <ele>232.3</ele>
        <time>2021-08-02T19:59:43Z</time>
      </trkpt>
      <trkpt lat="46.16339" lon="1.13435">
        <ele>232.78</ele>
        <time>2021-08-02T19:59:51Z</time>
      </trkpt>
      <trkpt lat="46.16435" lon="1.13618">
        <ele>233.26</ele>
        <time>2021-08-02T19:59:58Z</time>
      </trkpt>
      <trkpt lat="46.16502" lon="1.13868">
        <ele>236.14</ele>
        <time>2021-08-02T20:00:07Z</time>
      </trkpt>
      <trkpt lat="46.16555" lon="1.14074">
        <ele>240.47</ele>
        <time>2021-08-02T20:00:17Z</time>
      </trkpt>
      <trkpt lat="46.16597" lon="1.1424">
        <ele>243.83</ele>
        <time>2021-08-02T20:00:28Z</time>
      </trkpt>
      <trkpt lat="46.16654" lon="1.14387">
        <ele>245.75</ele>
        <time>2021-08-02T20:00:38Z</time>
      </trkpt>
      <trkpt lat="46.16738" lon="1.14458">
        <ele>246.72</ele>
        <time>2021-08-02T20:00:47Z</time>
      </trkpt>
      <trkpt lat="46.16853" lon="1.14542">
        <ele>251.04</ele>
        <time>2021-08-02T20:01:00Z</time>
      </trkpt>
      <trkpt lat="46.17006" lon="1.14686">
        <ele>258.25</ele>
        <time>2021-08-02T20:01:14Z</time>
      </trkpt>
      <trkpt lat="46.17139" lon="1.14813">
        <ele>263.54</ele>
        <time>2021-08-02T20:01:24Z</time>
      </trkpt>
      <trkpt lat="46.17354" lon="1.15021">
        <ele>272.19</ele>
        <time>2021-08-02T20:01:39Z</time>
      </trkpt>
      <trkpt lat="46.17556" lon="1.1523">
        <ele>276.04</ele>
        <time>2021-08-02T20:01:52Z</time>
      </trkpt>
      <trkpt lat="46.17705" lon="1.15464">
        <ele>281.32</ele>
        <time>2021-08-02T20:02:05Z</time>
      </trkpt>
      <trkpt lat="46.17901" lon="1.15784">
        <ele>289.97</ele>
        <time>2021-08-02T20:02:21Z</time>
      </trkpt>
      <trkpt lat="46.17978" lon="1.15957">
        <ele>293.34</ele>
        <time>2021-08-02T20:02:29Z</time>
      </trkpt>
      <trkpt lat="46.17994" lon="1.16115">
        <ele>294.78</ele>
        <time>2021-08-02T20:02:36Z</time>
      </trkpt>
      <trkpt lat="46.17992" lon="1.1634">
        <ele>296.7</ele>
        <time>2021-08-02T20:02:44Z</time>
      </trkpt>
      <trkpt lat="46.17989" lon="1.16677">
        <ele>303.91</ele>
        <time>2021-08-02T20:02:57Z</time>
      </trkpt>
      <trkpt lat="46.18049" lon="1.16913">
        <ele>308.24</ele>
        <time>2021-08-02T20:03:06Z</time>
      </trkpt>
      <trkpt lat="46.18166" lon="1.17332">
        <ele>306.32</ele>
        <time>2021-08-02T20:03:22Z</time>
      </trkpt>
      <trkpt lat="46.18243" lon="1.17608">
        <ele>303.91</ele>
        <time>2021-08-02T20:03:33Z</time>
      </trkpt>
      <trkpt lat="46.18299" lon="1.17807">
        <ele>304.39</ele>
        <time>2021-08-02T20:03:41Z</time>
      </trkpt>
      <trkpt lat="46.18408" lon="1.18209">
        <ele>303.43</ele>
        <time>2021-08-02T20:03:56Z</time>
      </trkpt>
      <trkpt lat="46.18424" lon="1.18411">
        <ele>302.95</ele>
        <time>2021-08-02T20:04:03Z</time>
      </trkpt>
      <trkpt lat="46.18388" lon="1.18803">
        <ele>294.78</ele>
        <time>2021-08-02T20:04:16Z</time>
      </trkpt>
      <trkpt lat="46.18352" lon="1.1925">
        <ele>294.3</ele>
        <time>2021-08-02T20:04:30Z</time>
      </trkpt>
      <trkpt lat="46.18387" lon="1.19521">
        <ele>295.26</ele>
        <time>2021-08-02T20:04:37Z</time>
      </trkpt>
      <trkpt lat="46.18455" lon="1.19947">
        <ele>293.82</ele>
        <time>2021-08-02T20:04:49Z</time>
      </trkpt>
      <trkpt lat="46.18493" lon="1.20186">
        <ele>294.78</ele>
        <time>2021-08-02T20:04:56Z</time>
      </trkpt>
      <trkpt lat="46.1853" lon="1.20518">
        <ele>295.26</ele>
        <time>2021-08-02T20:05:07Z</time>
      </trkpt>
      <trkpt lat="46.18503" lon="1.20691">
        <ele>293.34</ele>
        <time>2021-08-02T20:05:13Z</time>
      </trkpt>
      <trkpt lat="46.18389" lon="1.21053">
        <ele>304.39</ele>
        <time>2021-08-02T20:05:27Z</time>
      </trkpt>
      <trkpt lat="46.18371" lon="1.21248">
        <ele>309.68</ele>
        <time>2021-08-02T20:05:34Z</time>
      </trkpt>
      <trkpt lat="46.18356" lon="1.21863">
        <ele>322.66</ele>
        <time>2021-08-02T20:05:57Z</time>
      </trkpt>
      <trkpt lat="46.18365" lon="1.22242">
        <ele>329.39</ele>
        <time>2021-08-02T20:06:13Z</time>
      </trkpt>
      <trkpt lat="46.18443" lon="1.22414">
        <ele>331.79</ele>
        <time>2021-08-02T20:06:20Z</time>
      </trkpt>
      <trkpt lat="46.1857" lon="1.22541">
        <ele>328.91</ele>
        <time>2021-08-02T20:06:29Z</time>
      </trkpt>
      <trkpt lat="46.18758" lon="1.22755">
        <ele>327.47</ele>
        <time>2021-08-02T20:06:41Z</time>
      </trkpt>
      <trkpt lat="46.18855" lon="1.23006">
        <ele>327.95</ele>
        <time>2021-08-02T20:06:50Z</time>
      </trkpt>
      <trkpt lat="46.18957" lon="1.23235">
        <ele>323.14</ele>
        <time>2021-08-02T20:07:00Z</time>
      </trkpt>
      <trkpt lat="46.19104" lon="1.23439">
        <ele>317.85</ele>
        <time>2021-08-02T20:07:10Z</time>
      </trkpt>
      <trkpt lat="46.19189" lon="1.23632">
        <ele>316.89</ele>
        <time>2021-08-02T20:07:18Z</time>
      </trkpt>
      <trkpt lat="46.19239" lon="1.2387">
        <ele>315.93</ele>
        <time>2021-08-02T20:07:27Z</time>
      </trkpt>
      <trkpt lat="46.1924" lon="1.24125">
        <ele>309.68</ele>
        <time>2021-08-02T20:07:36Z</time>
      </trkpt>
      <trkpt lat="46.19213" lon="1.24489">
        <ele>300.07</ele>
        <time>2021-08-02T20:07:48Z</time>
      </trkpt>
      <trkpt lat="46.19178" lon="1.24998">
        <ele>301.99</ele>
        <time>2021-08-02T20:08:04Z</time>
      </trkpt>
      <trkpt lat="46.19156" lon="1.25303">
        <ele>308.72</ele>
        <time>2021-08-02T20:08:15Z</time>
      </trkpt>
      <trkpt lat="46.19166" lon="1.25535">
        <ele>312.09</ele>
        <time>2021-08-02T20:08:23Z</time>
      </trkpt>
      <trkpt lat="46.19228" lon="1.2579">
        <ele>314.49</ele>
        <time>2021-08-02T20:08:35Z</time>
      </trkpt>
      <trkpt lat="46.19327" lon="1.26173">
        <ele>316.89</ele>
        <time>2021-08-02T20:08:50Z</time>
      </trkpt>
      <trkpt lat="46.19448" lon="1.26642">
        <ele>323.62</ele>
        <time>2021-08-02T20:09:08Z</time>
      </trkpt>
      <trkpt lat="46.1957" lon="1.27115">
        <ele>326.5</ele>
        <time>2021-08-02T20:09:24Z</time>
      </trkpt>
      <trkpt lat="46.19686" lon="1.27584">
        <ele>334.2</ele>
        <time>2021-08-02T20:09:40Z</time>
      </trkpt>
      <trkpt lat="46.19691" lon="1.27613">
        <ele>334.68</ele>
        <time>2021-08-02T20:09:41Z</time>
      </trkpt>
      <trkpt lat="46.19692" lon="1.27644">
        <ele>334.68</ele>
        <time>2021-08-02T20:09:42Z</time>
      </trkpt>
      <trkpt lat="46.1968" lon="1.27999">
        <ele>331.79</ele>
        <time>2021-08-02T20:09:53Z</time>
      </trkpt>
      <trkpt lat="46.19669" lon="1.28468">
        <ele>326.5</ele>
        <time>2021-08-02T20:10:07Z</time>
      </trkpt>
      <trkpt lat="46.19669" lon="1.28468">
        <ele>325.54</ele>
        <time>2021-08-02T20:10:08Z</time>
      </trkpt>
      <trkpt lat="46.19679" lon="1.28525">
        <ele>325.54</ele>
        <time>2021-08-02T20:10:09Z</time>
      </trkpt>
      <trkpt lat="46.19713" lon="1.28672">
        <ele>327.47</ele>
        <time>2021-08-02T20:10:16Z</time>
      </trkpt>
      <trkpt lat="46.19775" lon="1.2892">
        <ele>323.62</ele>
        <time>2021-08-02T20:10:29Z</time>
      </trkpt>
      <trkpt lat="46.19836" lon="1.29158">
        <ele>328.91</ele>
        <time>2021-08-02T20:10:45Z</time>
      </trkpt>
      <trkpt lat="46.19891" lon="1.29374">
        <ele>330.35</ele>
        <time>2021-08-02T20:11:02Z</time>
      </trkpt>
      <trkpt lat="46.19919" lon="1.29558">
        <ele>332.75</ele>
        <time>2021-08-02T20:11:14Z</time>
      </trkpt>
      <trkpt lat="46.19916" lon="1.29814">
        <ele>332.27</ele>
        <time>2021-08-02T20:11:28Z</time>
      </trkpt>
      <trkpt lat="46.19924" lon="1.30173">
        <ele>331.31</ele>
        <time>2021-08-02T20:11:45Z</time>
      </trkpt>
      <trkpt lat="46.19921" lon="1.30216">
        <ele>329.87</ele>
        <time>2021-08-02T20:11:47Z</time>
      </trkpt>
      <trkpt lat="46.19918" lon="1.30235">
        <ele>328.43</ele>
        <time>2021-08-02T20:11:48Z</time>
      </trkpt>
      <trkpt lat="46.19914" lon="1.30254">
        <ele>328.43</ele>
        <time>2021-08-02T20:11:49Z</time>
      </trkpt>
      <trkpt lat="46.19844" lon="1.30459">
        <ele>320.26</ele>
        <time>2021-08-02T20:12:00Z</time>
      </trkpt>
      <trkpt lat="46.19828" lon="1.3065">
        <ele>316.41</ele>
        <time>2021-08-02T20:12:08Z</time>
      </trkpt>
      <trkpt lat="46.19822" lon="1.30917">
        <ele>312.09</ele>
        <time>2021-08-02T20:12:19Z</time>
      </trkpt>
      <trkpt lat="46.19865" lon="1.31156">
        <ele>314.97</ele>
        <time>2021-08-02T20:12:27Z</time>
      </trkpt>
      <trkpt lat="46.1996" lon="1.31554">
        <ele>319.78</ele>
        <time>2021-08-02T20:12:42Z</time>
      </trkpt>
      <trkpt lat="46.19998" lon="1.31795">
        <ele>326.5</ele>
        <time>2021-08-02T20:12:54Z</time>
      </trkpt>
      <trkpt lat="46.20032" lon="1.32083">
        <ele>321.7</ele>
        <time>2021-08-02T20:13:08Z</time>
      </trkpt>
      <trkpt lat="46.20076" lon="1.32434">
        <ele>308.24</ele>
        <time>2021-08-02T20:13:22Z</time>
      </trkpt>
      <trkpt lat="46.20145" lon="1.3281">
        <ele>306.32</ele>
        <time>2021-08-02T20:13:34Z</time>
      </trkpt>
      <trkpt lat="46.20214" lon="1.33234">
        <ele>317.85</ele>
        <time>2021-08-02T20:13:49Z</time>
      </trkpt>
      <trkpt lat="46.20246" lon="1.33496">
        <ele>329.87</ele>
        <time>2021-08-02T20:13:59Z</time>
      </trkpt>
      <trkpt lat="46.20286" lon="1.33856">
        <ele>335.16</ele>
        <time>2021-08-02T20:14:14Z</time>
      </trkpt>
      <trkpt lat="46.2034" lon="1.34318">
        <ele>345.25</ele>
        <time>2021-08-02T20:14:33Z</time>
      </trkpt>
      <trkpt lat="46.20353" lon="1.34589">
        <ele>348.13</ele>
        <time>2021-08-02T20:14:44Z</time>
      </trkpt>
      <trkpt lat="46.20306" lon="1.34804">
        <ele>347.17</ele>
        <time>2021-08-02T20:14:53Z</time>
      </trkpt>
      <trkpt lat="46.20252" lon="1.35062">
        <ele>347.65</ele>
        <time>2021-08-02T20:15:03Z</time>
      </trkpt>
      <trkpt lat="46.20152" lon="1.3551">
        <ele>350.06</ele>
        <time>2021-08-02T20:15:20Z</time>
      </trkpt>
      <trkpt lat="46.20068" lon="1.35888">
        <ele>364.96</ele>
        <time>2021-08-02T20:15:34Z</time>
      </trkpt>
      <trkpt lat="46.2001" lon="1.36148">
        <ele>372.17</ele>
        <time>2021-08-02T20:15:45Z</time>
      </trkpt>
      <trkpt lat="46.19985" lon="1.3639">
        <ele>374.57</ele>
        <time>2021-08-02T20:15:55Z</time>
      </trkpt>
      <trkpt lat="46.20018" lon="1.36596">
        <ele>376.49</ele>
        <time>2021-08-02T20:16:03Z</time>
      </trkpt>
      <trkpt lat="46.20115" lon="1.36984">
        <ele>380.34</ele>
        <time>2021-08-02T20:16:17Z</time>
      </trkpt>
      <trkpt lat="46.20209" lon="1.37441">
        <ele>384.18</ele>
        <time>2021-08-02T20:16:34Z</time>
      </trkpt>
      <trkpt lat="46.20265" lon="1.37707">
        <ele>383.22</ele>
        <time>2021-08-02T20:16:46Z</time>
      </trkpt>
      <trkpt lat="46.20293" lon="1.3784">
        <ele>382.74</ele>
        <time>2021-08-02T20:16:54Z</time>
      </trkpt>
      <trkpt lat="46.20308" lon="1.37926">
        <ele>382.26</ele>
        <time>2021-08-02T20:17:04Z</time>
      </trkpt>
      <trkpt lat="46.20314" lon="1.3796">
        <ele>381.78</ele>
        <time>2021-08-02T20:17:12Z</time>
      </trkpt>
      <trkpt lat="46.20315" lon="1.37966">
        <ele>381.78</ele>
        <time>2021-08-02T20:17:13Z</time>
      </trkpt>
      <trkpt lat="46.20315" lon="1.37969">
        <ele>381.78</ele>
        <time>2021-08-02T20:17:14Z</time>
      </trkpt>
      <trkpt lat="46.20311" lon="1.37987">
        <ele>381.3</ele>
        <time>2021-08-02T20:17:16Z</time>
      </trkpt>
      <trkpt lat="46.20311" lon="1.37995">
        <ele>381.3</ele>
        <time>2021-08-02T20:17:17Z</time>
      </trkpt>
      <trkpt lat="46.20311" lon="1.37996">
        <ele>380.82</ele>
        <time>2021-08-02T20:17:18Z</time>
      </trkpt>
      <trkpt lat="46.20316" lon="1.38006">
        <ele>380.34</ele>
        <time>2021-08-02T20:17:19Z</time>
      </trkpt>
      <trkpt lat="46.20319" lon="1.38012">
        <ele>379.86</ele>
        <time>2021-08-02T20:17:20Z</time>
      </trkpt>
      <trkpt lat="46.20323" lon="1.38018">
        <ele>379.86</ele>
        <time>2021-08-02T20:17:21Z</time>
      </trkpt>
      <trkpt lat="46.2033" lon="1.38033">
        <ele>379.86</ele>
        <time>2021-08-02T20:17:23Z</time>
      </trkpt>
      <trkpt lat="46.20333" lon="1.3804">
        <ele>379.86</ele>
        <time>2021-08-02T20:17:24Z</time>
      </trkpt>
      <trkpt lat="46.20335" lon="1.3805">
        <ele>379.86</ele>
        <time>2021-08-02T20:17:25Z</time>
      </trkpt>
      <trkpt lat="46.20368" lon="1.38206">
        <ele>379.38</ele>
        <time>2021-08-02T20:17:37Z</time>
      </trkpt>
      <trkpt lat="46.20398" lon="1.38349">
        <ele>378.9</ele>
        <time>2021-08-02T20:17:48Z</time>
      </trkpt>
      <trkpt lat="46.20414" lon="1.38426">
        <ele>375.53</ele>
        <time>2021-08-02T20:17:57Z</time>
      </trkpt>
      <trkpt lat="46.20449" lon="1.38605">
        <ele>373.61</ele>
        <time>2021-08-02T20:18:07Z</time>
      </trkpt>
      <trkpt lat="46.20508" lon="1.38806">
        <ele>369.28</ele>
        <time>2021-08-02T20:18:16Z</time>
      </trkpt>
      <trkpt lat="46.20546" lon="1.38988">
        <ele>367.84</ele>
        <time>2021-08-02T20:18:23Z</time>
      </trkpt>
      <trkpt lat="46.20547" lon="1.39">
        <ele>367.84</ele>
        <time>2021-08-02T20:18:24Z</time>
      </trkpt>
      <trkpt lat="46.20547" lon="1.39">
        <ele>367.84</ele>
        <time>2021-08-02T20:18:25Z</time>
      </trkpt>
      <trkpt lat="46.20544" lon="1.39014">
        <ele>368.32</ele>
        <time>2021-08-02T20:18:26Z</time>
      </trkpt>
      <trkpt lat="46.20538" lon="1.39037">
        <ele>368.8</ele>
        <time>2021-08-02T20:18:27Z</time>
      </trkpt>
      <trkpt lat="46.20531" lon="1.39046">
        <ele>368.8</ele>
        <time>2021-08-02T20:18:28Z</time>
      </trkpt>
      <trkpt lat="46.20531" lon="1.39046">
        <ele>368.8</ele>
        <time>2021-08-02T20:18:29Z</time>
      </trkpt>
      <trkpt lat="46.20525" lon="1.39059">
        <ele>367.84</ele>
        <time>2021-08-02T20:18:30Z</time>
      </trkpt>
      <trkpt lat="46.20526" lon="1.39075">
        <ele>366.4</ele>
        <time>2021-08-02T20:18:31Z</time>
      </trkpt>
      <trkpt lat="46.20531" lon="1.39089">
        <ele>365.92</ele>
        <time>2021-08-02T20:18:32Z</time>
      </trkpt>
      <trkpt lat="46.20534" lon="1.39106">
        <ele>366.4</ele>
        <time>2021-08-02T20:18:33Z</time>
      </trkpt>
      <trkpt lat="46.20539" lon="1.39143">
        <ele>365.92</ele>
        <time>2021-08-02T20:18:34Z</time>
      </trkpt>
      <trkpt lat="46.20539" lon="1.39143">
        <ele>364.96</ele>
        <time>2021-08-02T20:18:35Z</time>
      </trkpt>
      <trkpt lat="46.20575" lon="1.39309">
        <ele>364.48</ele>
        <time>2021-08-02T20:18:42Z</time>
      </trkpt>
      <trkpt lat="46.20659" lon="1.39512">
        <ele>363.52</ele>
        <time>2021-08-02T20:18:50Z</time>
      </trkpt>
      <trkpt lat="46.20798" lon="1.39766">
        <ele>355.83</ele>
        <time>2021-08-02T20:18:59Z</time>
      </trkpt>
      <trkpt lat="46.20985" lon="1.40152">
        <ele>355.83</ele>
        <time>2021-08-02T20:19:10Z</time>
      </trkpt>
      <trkpt lat="46.21226" lon="1.40669">
        <ele>359.19</ele>
        <time>2021-08-02T20:19:28Z</time>
      </trkpt>
      <trkpt lat="46.21469" lon="1.41194">
        <ele>366.88</ele>
        <time>2021-08-02T20:19:45Z</time>
      </trkpt>
      <trkpt lat="46.21572" lon="1.41512">
        <ele>369.76</ele>
        <time>2021-08-02T20:19:55Z</time>
      </trkpt>
      <trkpt lat="46.21716" lon="1.42095">
        <ele>366.88</ele>
        <time>2021-08-02T20:20:12Z</time>
      </trkpt>
      <trkpt lat="46.21751" lon="1.42468">
        <ele>362.07</ele>
        <time>2021-08-02T20:20:22Z</time>
      </trkpt>
      <trkpt lat="46.2173" lon="1.42834">
        <ele>356.79</ele>
        <time>2021-08-02T20:20:32Z</time>
      </trkpt>
      <trkpt lat="46.21646" lon="1.43339">
        <ele>357.27</ele>
        <time>2021-08-02T20:20:46Z</time>
      </trkpt>
      <trkpt lat="46.21568" lon="1.43828">
        <ele>364</ele>
        <time>2021-08-02T20:21:00Z</time>
      </trkpt>
      <trkpt lat="46.21565" lon="1.44115">
        <ele>364.48</ele>
        <time>2021-08-02T20:21:08Z</time>
      </trkpt>
      <trkpt lat="46.21633" lon="1.4447">
        <ele>362.55</ele>
        <time>2021-08-02T20:21:17Z</time>
      </trkpt>
      <trkpt lat="46.21765" lon="1.45009">
        <ele>363.04</ele>
        <time>2021-08-02T20:21:33Z</time>
      </trkpt>
      <trkpt lat="46.21882" lon="1.45267">
        <ele>364</ele>
        <time>2021-08-02T20:21:41Z</time>
      </trkpt>
      <trkpt lat="46.22035" lon="1.45485">
        <ele>365.44</ele>
        <time>2021-08-02T20:21:49Z</time>
      </trkpt>
      <trkpt lat="46.22354" lon="1.45828">
        <ele>370.73</ele>
        <time>2021-08-02T20:22:04Z</time>
      </trkpt>
      <trkpt lat="46.22461" lon="1.46034">
        <ele>376.01</ele>
        <time>2021-08-02T20:22:11Z</time>
      </trkpt>
      <trkpt lat="46.22538" lon="1.4631">
        <ele>379.38</ele>
        <time>2021-08-02T20:22:19Z</time>
      </trkpt>
      <trkpt lat="46.22631" lon="1.46895">
        <ele>380.34</ele>
        <time>2021-08-02T20:22:35Z</time>
      </trkpt>
      <trkpt lat="46.22641" lon="1.47264">
        <ele>379.86</ele>
        <time>2021-08-02T20:22:45Z</time>
      </trkpt>
      <trkpt lat="46.22614" lon="1.47599">
        <ele>374.57</ele>
        <time>2021-08-02T20:22:54Z</time>
      </trkpt>
      <trkpt lat="46.2253" lon="1.47883">
        <ele>376.49</ele>
        <time>2021-08-02T20:23:01Z</time>
      </trkpt>
      <trkpt lat="46.22361" lon="1.48372">
        <ele>380.34</ele>
        <time>2021-08-02T20:23:16Z</time>
      </trkpt>
      <trkpt lat="46.22305" lon="1.48616">
        <ele>381.3</ele>
        <time>2021-08-02T20:23:24Z</time>
      </trkpt>
      <trkpt lat="46.22286" lon="1.48918">
        <ele>385.15</ele>
        <time>2021-08-02T20:23:32Z</time>
      </trkpt>
      <trkpt lat="46.22315" lon="1.49222">
        <ele>385.15</ele>
        <time>2021-08-02T20:23:40Z</time>
      </trkpt>
      <trkpt lat="46.22395" lon="1.49514">
        <ele>378.9</ele>
        <time>2021-08-02T20:23:48Z</time>
      </trkpt>
      <trkpt lat="46.22589" lon="1.49972">
        <ele>364.48</ele>
        <time>2021-08-02T20:24:01Z</time>
      </trkpt>
      <trkpt lat="46.22819" lon="1.50503">
        <ele>368.8</ele>
        <time>2021-08-02T20:24:17Z</time>
      </trkpt>
      <trkpt lat="46.22975" lon="1.50752">
        <ele>372.65</ele>
        <time>2021-08-02T20:24:26Z</time>
      </trkpt>
      <trkpt lat="46.23278" lon="1.51193">
        <ele>385.15</ele>
        <time>2021-08-02T20:24:43Z</time>
      </trkpt>
      <trkpt lat="46.23491" lon="1.51474">
        <ele>384.18</ele>
        <time>2021-08-02T20:24:54Z</time>
      </trkpt>
      <trkpt lat="46.2364" lon="1.51759">
        <ele>389.47</ele>
        <time>2021-08-02T20:25:04Z</time>
      </trkpt>
      <trkpt lat="46.23753" lon="1.5208">
        <ele>395.24</ele>
        <time>2021-08-02T20:25:15Z</time>
      </trkpt>
      <trkpt lat="46.23849" lon="1.52526">
        <ele>403.89</ele>
        <time>2021-08-02T20:25:30Z</time>
      </trkpt>
      <trkpt lat="46.23864" lon="1.52829">
        <ele>408.7</ele>
        <time>2021-08-02T20:25:40Z</time>
      </trkpt>
      <trkpt lat="46.23831" lon="1.53098">
        <ele>413.02</ele>
        <time>2021-08-02T20:25:49Z</time>
      </trkpt>
      <trkpt lat="46.2371" lon="1.53668">
        <ele>417.35</ele>
        <time>2021-08-02T20:26:08Z</time>
      </trkpt>
      <trkpt lat="46.23611" lon="1.53916">
        <ele>424.08</ele>
        <time>2021-08-02T20:26:17Z</time>
      </trkpt>
      <trkpt lat="46.23449" lon="1.54266">
        <ele>429.85</ele>
        <time>2021-08-02T20:26:30Z</time>
      </trkpt>
      <trkpt lat="46.23319" lon="1.54617">
        <ele>427.44</ele>
        <time>2021-08-02T20:26:41Z</time>
      </trkpt>
      <trkpt lat="46.23185" lon="1.54849">
        <ele>425.52</ele>
        <time>2021-08-02T20:26:49Z</time>
      </trkpt>
      <trkpt lat="46.2301" lon="1.55018">
        <ele>425.04</ele>
        <time>2021-08-02T20:26:57Z</time>
      </trkpt>
      <trkpt lat="46.22767" lon="1.5523">
        <ele>429.37</ele>
        <time>2021-08-02T20:27:08Z</time>
      </trkpt>
      <trkpt lat="46.22641" lon="1.55433">
        <ele>427.44</ele>
        <time>2021-08-02T20:27:15Z</time>
      </trkpt>
      <trkpt lat="46.22554" lon="1.55687">
        <ele>422.64</ele>
        <time>2021-08-02T20:27:22Z</time>
      </trkpt>
      <trkpt lat="46.2244" lon="1.56269">
        <ele>418.31</ele>
        <time>2021-08-02T20:27:37Z</time>
      </trkpt>
      <trkpt lat="46.22312" lon="1.56984">
        <ele>413.02</ele>
        <time>2021-08-02T20:27:56Z</time>
      </trkpt>
      <trkpt lat="46.22292" lon="1.57443">
        <ele>409.18</ele>
        <time>2021-08-02T20:28:08Z</time>
      </trkpt>
      <trkpt lat="46.22272" lon="1.57934">
        <ele>407.26</ele>
        <time>2021-08-02T20:28:21Z</time>
      </trkpt>
      <trkpt lat="46.22213" lon="1.58323">
        <ele>412.06</ele>
        <time>2021-08-02T20:28:32Z</time>
      </trkpt>
      <trkpt lat="46.22126" lon="1.5877">
        <ele>413.98</ele>
        <time>2021-08-02T20:28:45Z</time>
      </trkpt>
      <trkpt lat="46.22086" lon="1.5928">
        <ele>412.06</ele>
        <time>2021-08-02T20:28:58Z</time>
      </trkpt>
      <trkpt lat="46.221" lon="1.59573">
        <ele>404.37</ele>
        <time>2021-08-02T20:29:07Z</time>
      </trkpt>
      <trkpt lat="46.22169" lon="1.6016">
        <ele>403.89</ele>
        <time>2021-08-02T20:29:23Z</time>
      </trkpt>
      <trkpt lat="46.22235" lon="1.60712">
        <ele>413.98</ele>
        <time>2021-08-02T20:29:39Z</time>
      </trkpt>
      <trkpt lat="46.22239" lon="1.61023">
        <ele>421.68</ele>
        <time>2021-08-02T20:29:48Z</time>
      </trkpt>
      <trkpt lat="46.2219" lon="1.61318">
        <ele>426.48</ele>
        <time>2021-08-02T20:29:57Z</time>
      </trkpt>
      <trkpt lat="46.22038" lon="1.6189">
        <ele>428.89</ele>
        <time>2021-08-02T20:30:15Z</time>
      </trkpt>
      <trkpt lat="46.21888" lon="1.62397">
        <ele>421.68</ele>
        <time>2021-08-02T20:30:30Z</time>
      </trkpt>
      <trkpt lat="46.2162" lon="1.63205">
        <ele>396.2</ele>
        <time>2021-08-02T20:30:53Z</time>
      </trkpt>
      <trkpt lat="46.21442" lon="1.63751">
        <ele>394.28</ele>
        <time>2021-08-02T20:31:09Z</time>
      </trkpt>
      <trkpt lat="46.21405" lon="1.63995">
        <ele>397.16</ele>
        <time>2021-08-02T20:31:16Z</time>
      </trkpt>
      <trkpt lat="46.21418" lon="1.64246">
        <ele>397.16</ele>
        <time>2021-08-02T20:31:23Z</time>
      </trkpt>
      <trkpt lat="46.21496" lon="1.64596">
        <ele>398.12</ele>
        <time>2021-08-02T20:31:33Z</time>
      </trkpt>
      <trkpt lat="46.21681" lon="1.65358">
        <ele>394.28</ele>
        <time>2021-08-02T20:31:54Z</time>
      </trkpt>
      <trkpt lat="46.21765" lon="1.6559">
        <ele>403.89</ele>
        <time>2021-08-02T20:32:01Z</time>
      </trkpt>
      <trkpt lat="46.21905" lon="1.65798">
        <ele>415.43</ele>
        <time>2021-08-02T20:32:09Z</time>
      </trkpt>
      <trkpt lat="46.22035" lon="1.6602">
        <ele>422.64</ele>
        <time>2021-08-02T20:32:17Z</time>
      </trkpt>
      <trkpt lat="46.22105" lon="1.6629">
        <ele>426.96</ele>
        <time>2021-08-02T20:32:25Z</time>
      </trkpt>
      <trkpt lat="46.22195" lon="1.66746">
        <ele>429.37</ele>
        <time>2021-08-02T20:32:38Z</time>
      </trkpt>
      <trkpt lat="46.22251" lon="1.67289">
        <ele>429.37</ele>
        <time>2021-08-02T20:32:53Z</time>
      </trkpt>
      <trkpt lat="46.22231" lon="1.6767">
        <ele>426.48</ele>
        <time>2021-08-02T20:33:02Z</time>
      </trkpt>
      <trkpt lat="46.22175" lon="1.6831">
        <ele>433.21</ele>
        <time>2021-08-02T20:33:20Z</time>
      </trkpt>
      <trkpt lat="46.2213" lon="1.6879">
        <ele>447.15</ele>
        <time>2021-08-02T20:33:34Z</time>
      </trkpt>
      <trkpt lat="46.22092" lon="1.69159">
        <ele>455.32</ele>
        <time>2021-08-02T20:33:45Z</time>
      </trkpt>
      <trkpt lat="46.22104" lon="1.69474">
        <ele>452.92</ele>
        <time>2021-08-02T20:33:54Z</time>
      </trkpt>
      <trkpt lat="46.22123" lon="1.69845">
        <ele>445.71</ele>
        <time>2021-08-02T20:34:04Z</time>
      </trkpt>
      <trkpt lat="46.22074" lon="1.70069">
        <ele>440.9</ele>
        <time>2021-08-02T20:34:10Z</time>
      </trkpt>
      <trkpt lat="46.21825" lon="1.70769">
        <ele>428.4</ele>
        <time>2021-08-02T20:34:30Z</time>
      </trkpt>
      <trkpt lat="46.21702" lon="1.7114">
        <ele>436.1</ele>
        <time>2021-08-02T20:34:41Z</time>
      </trkpt>
      <trkpt lat="46.21676" lon="1.71384">
        <ele>444.27</ele>
        <time>2021-08-02T20:34:48Z</time>
      </trkpt>
      <trkpt lat="46.21687" lon="1.71704">
        <ele>452.92</ele>
        <time>2021-08-02T20:34:57Z</time>
      </trkpt>
      <trkpt lat="46.2165" lon="1.71997">
        <ele>448.59</ele>
        <time>2021-08-02T20:35:05Z</time>
      </trkpt>
      <trkpt lat="46.21565" lon="1.72635">
        <ele>436.58</ele>
        <time>2021-08-02T20:35:21Z</time>
      </trkpt>
      <trkpt lat="46.21545" lon="1.73055">
        <ele>447.15</ele>
        <time>2021-08-02T20:35:33Z</time>
      </trkpt>
      <trkpt lat="46.21504" lon="1.73374">
        <ele>453.88</ele>
        <time>2021-08-02T20:35:42Z</time>
      </trkpt>
      <trkpt lat="46.21401" lon="1.73783">
        <ele>460.13</ele>
        <time>2021-08-02T20:35:54Z</time>
      </trkpt>
      <trkpt lat="46.21225" lon="1.74414">
        <ele>455.32</ele>
        <time>2021-08-02T20:36:11Z</time>
      </trkpt>
      <trkpt lat="46.21111" lon="1.74629">
        <ele>451.48</ele>
        <time>2021-08-02T20:36:18Z</time>
      </trkpt>
      <trkpt lat="46.20979" lon="1.74767">
        <ele>448.11</ele>
        <time>2021-08-02T20:36:25Z</time>
      </trkpt>
      <trkpt lat="46.20732" lon="1.74926">
        <ele>445.71</ele>
        <time>2021-08-02T20:36:35Z</time>
      </trkpt>
      <trkpt lat="46.2052" lon="1.74971">
        <ele>446.19</ele>
        <time>2021-08-02T20:36:43Z</time>
      </trkpt>
      <trkpt lat="46.20282" lon="1.75043">
        <ele>444.27</ele>
        <time>2021-08-02T20:36:52Z</time>
      </trkpt>
      <trkpt lat="46.2012" lon="1.75168">
        <ele>447.63</ele>
        <time>2021-08-02T20:36:59Z</time>
      </trkpt>
      <trkpt lat="46.19973" lon="1.75378">
        <ele>447.63</ele>
        <time>2021-08-02T20:37:06Z</time>
      </trkpt>
      <trkpt lat="46.19894" lon="1.75577">
        <ele>446.67</ele>
        <time>2021-08-02T20:37:13Z</time>
      </trkpt>
      <trkpt lat="46.19835" lon="1.75872">
        <ele>446.67</ele>
        <time>2021-08-02T20:37:21Z</time>
      </trkpt>
      <trkpt lat="46.1975" lon="1.76378">
        <ele>463.49</ele>
        <time>2021-08-02T20:37:35Z</time>
      </trkpt>
      <trkpt lat="46.19654" lon="1.76977">
        <ele>486.08</ele>
        <time>2021-08-02T20:37:53Z</time>
      </trkpt>
      <trkpt lat="46.19657" lon="1.77251">
        <ele>492.33</ele>
        <time>2021-08-02T20:38:01Z</time>
      </trkpt>
      <trkpt lat="46.19707" lon="1.77491">
        <ele>494.26</ele>
        <time>2021-08-02T20:38:08Z</time>
      </trkpt>
      <trkpt lat="46.19768" lon="1.77769">
        <ele>492.81</ele>
        <time>2021-08-02T20:38:16Z</time>
      </trkpt>
      <trkpt lat="46.19762" lon="1.78071">
        <ele>488.01</ele>
        <time>2021-08-02T20:38:23Z</time>
      </trkpt>
      <trkpt lat="46.19702" lon="1.78417">
        <ele>475.51</ele>
        <time>2021-08-02T20:38:33Z</time>
      </trkpt>
      <trkpt lat="46.19593" lon="1.78939">
        <ele>480.8</ele>
        <time>2021-08-02T20:38:46Z</time>
      </trkpt>
      <trkpt lat="46.19429" lon="1.79572">
        <ele>485.6</ele>
        <time>2021-08-02T20:39:05Z</time>
      </trkpt>
      <trkpt lat="46.19271" lon="1.8017">
        <ele>497.14</ele>
        <time>2021-08-02T20:39:22Z</time>
      </trkpt>
      <trkpt lat="46.19112" lon="1.80772">
        <ele>490.41</ele>
        <time>2021-08-02T20:39:39Z</time>
      </trkpt>
      <trkpt lat="46.19012" lon="1.81053">
        <ele>476.47</ele>
        <time>2021-08-02T20:39:47Z</time>
      </trkpt>
      <trkpt lat="46.18814" lon="1.81531">
        <ele>453.88</ele>
        <time>2021-08-02T20:40:00Z</time>
      </trkpt>
      <trkpt lat="46.18766" lon="1.81836">
        <ele>440.9</ele>
        <time>2021-08-02T20:40:08Z</time>
      </trkpt>
      <trkpt lat="46.18696" lon="1.82134">
        <ele>425.52</ele>
        <time>2021-08-02T20:40:17Z</time>
      </trkpt>
      <trkpt lat="46.18609" lon="1.82505">
        <ele>413.5</ele>
        <time>2021-08-02T20:40:27Z</time>
      </trkpt>
      <trkpt lat="46.18594" lon="1.82809">
        <ele>413.02</ele>
        <time>2021-08-02T20:40:35Z</time>
      </trkpt>
      <trkpt lat="46.18567" lon="1.83238">
        <ele>409.18</ele>
        <time>2021-08-02T20:40:46Z</time>
      </trkpt>
      <trkpt lat="46.18511" lon="1.83884">
        <ele>406.29</ele>
        <time>2021-08-02T20:41:06Z</time>
      </trkpt>
      <trkpt lat="46.18457" lon="1.84612">
        <ele>391.39</ele>
        <time>2021-08-02T20:41:26Z</time>
      </trkpt>
      <trkpt lat="46.1846" lon="1.85087">
        <ele>379.38</ele>
        <time>2021-08-02T20:41:40Z</time>
      </trkpt>
      <trkpt lat="46.18487" lon="1.85714">
        <ele>367.84</ele>
        <time>2021-08-02T20:41:57Z</time>
      </trkpt>
      <trkpt lat="46.18479" lon="1.86183">
        <ele>380.34</ele>
        <time>2021-08-02T20:42:10Z</time>
      </trkpt>
      <trkpt lat="46.18425" lon="1.8669">
        <ele>390.91</ele>
        <time>2021-08-02T20:42:24Z</time>
      </trkpt>
      <trkpt lat="46.18328" lon="1.87291">
        <ele>393.8</ele>
        <time>2021-08-02T20:42:40Z</time>
      </trkpt>
      <trkpt lat="46.1823" lon="1.87881">
        <ele>388.99</ele>
        <time>2021-08-02T20:42:56Z</time>
      </trkpt>
      <trkpt lat="46.18097" lon="1.88469">
        <ele>398.6</ele>
        <time>2021-08-02T20:43:13Z</time>
      </trkpt>
      <trkpt lat="46.17939" lon="1.89122">
        <ele>402.93</ele>
        <time>2021-08-02T20:43:32Z</time>
      </trkpt>
      <trkpt lat="46.17788" lon="1.89758">
        <ele>394.28</ele>
        <time>2021-08-02T20:43:50Z</time>
      </trkpt>
      <trkpt lat="46.17768" lon="1.90024">
        <ele>392.84</ele>
        <time>2021-08-02T20:43:57Z</time>
      </trkpt>
      <trkpt lat="46.17806" lon="1.90287">
        <ele>393.32</ele>
        <time>2021-08-02T20:44:04Z</time>
      </trkpt>
      <trkpt lat="46.17923" lon="1.90858">
        <ele>384.18</ele>
        <time>2021-08-02T20:44:20Z</time>
      </trkpt>
      <trkpt lat="46.18031" lon="1.91323">
        <ele>371.21</ele>
        <time>2021-08-02T20:44:34Z</time>
      </trkpt>
      <trkpt lat="46.18155" lon="1.91676">
        <ele>371.69</ele>
        <time>2021-08-02T20:44:46Z</time>
      </trkpt>
      <trkpt lat="46.1833" lon="1.92089">
        <ele>364</ele>
        <time>2021-08-02T20:45:01Z</time>
      </trkpt>
      <trkpt lat="46.18437" lon="1.92356">
        <ele>354.86</ele>
        <time>2021-08-02T20:45:13Z</time>
      </trkpt>
      <trkpt lat="46.18529" lon="1.92585">
        <ele>351.98</ele>
        <time>2021-08-02T20:45:25Z</time>
      </trkpt>
      <trkpt lat="46.18535" lon="1.92601">
        <ele>352.94</ele>
        <time>2021-08-02T20:45:26Z</time>
      </trkpt>
      <trkpt lat="46.18553" lon="1.92647">
        <ele>352.46</ele>
        <time>2021-08-02T20:45:29Z</time>
      </trkpt>
      <trkpt lat="46.18628" lon="1.92836">
        <ele>351.98</ele>
        <time>2021-08-02T20:45:40Z</time>
      </trkpt>
      <trkpt lat="46.18757" lon="1.93158">
        <ele>349.58</ele>
        <time>2021-08-02T20:45:56Z</time>
      </trkpt>
      <trkpt lat="46.18822" lon="1.93372">
        <ele>346.69</ele>
        <time>2021-08-02T20:46:06Z</time>
      </trkpt>
      <trkpt lat="46.18854" lon="1.93649">
        <ele>340.44</ele>
        <time>2021-08-02T20:46:18Z</time>
      </trkpt>
      <trkpt lat="46.18878" lon="1.94177">
        <ele>324.58</ele>
        <time>2021-08-02T20:46:42Z</time>
      </trkpt>
      <trkpt lat="46.18887" lon="1.94365">
        <ele>326.02</ele>
        <time>2021-08-02T20:46:51Z</time>
      </trkpt>
      <trkpt lat="46.18887" lon="1.9438">
        <ele>327.95</ele>
        <time>2021-08-02T20:46:53Z</time>
      </trkpt>
      <trkpt lat="46.18888" lon="1.94396">
        <ele>327.95</ele>
        <time>2021-08-02T20:46:54Z</time>
      </trkpt>
      <trkpt lat="46.18889" lon="1.94411">
        <ele>327.95</ele>
        <time>2021-08-02T20:46:55Z</time>
      </trkpt>
      <trkpt lat="46.1889" lon="1.94426">
        <ele>328.91</ele>
        <time>2021-08-02T20:46:56Z</time>
      </trkpt>
      <trkpt lat="46.1889" lon="1.9444">
        <ele>329.87</ele>
        <time>2021-08-02T20:46:57Z</time>
      </trkpt>
      <trkpt lat="46.18901" lon="1.9465">
        <ele>337.56</ele>
        <time>2021-08-02T20:47:08Z</time>
      </trkpt>
      <trkpt lat="46.18926" lon="1.94919">
        <ele>346.69</ele>
        <time>2021-08-02T20:47:19Z</time>
      </trkpt>
      <trkpt lat="46.18992" lon="1.95128">
        <ele>353.42</ele>
        <time>2021-08-02T20:47:29Z</time>
      </trkpt>
      <trkpt lat="46.19088" lon="1.9526">
        <ele>363.04</ele>
        <time>2021-08-02T20:47:37Z</time>
      </trkpt>
      <trkpt lat="46.19229" lon="1.95355">
        <ele>369.28</ele>
        <time>2021-08-02T20:47:45Z</time>
      </trkpt>
      <trkpt lat="46.19448" lon="1.95488">
        <ele>381.78</ele>
        <time>2021-08-02T20:47:56Z</time>
      </trkpt>
      <trkpt lat="46.19581" lon="1.95643">
        <ele>390.91</ele>
        <time>2021-08-02T20:48:04Z</time>
      </trkpt>
      <trkpt lat="46.1971" lon="1.95898">
        <ele>403.41</ele>
        <time>2021-08-02T20:48:14Z</time>
      </trkpt>
      <trkpt lat="46.19894" lon="1.96342">
        <ele>420.23</ele>
        <time>2021-08-02T20:48:30Z</time>
      </trkpt>
      <trkpt lat="46.19994" lon="1.96788">
        <ele>435.13</ele>
        <time>2021-08-02T20:48:44Z</time>
      </trkpt>
      <trkpt lat="46.20122" lon="1.97439">
        <ele>448.59</ele>
        <time>2021-08-02T20:49:03Z</time>
      </trkpt>
      <trkpt lat="46.20228" lon="1.97948">
        <ele>457.72</ele>
        <time>2021-08-02T20:49:17Z</time>
      </trkpt>
      <trkpt lat="46.20343" lon="1.98297">
        <ele>454.84</ele>
        <time>2021-08-02T20:49:27Z</time>
      </trkpt>
      <trkpt lat="46.20423" lon="1.98637">
        <ele>457.72</ele>
        <time>2021-08-02T20:49:36Z</time>
      </trkpt>
      <trkpt lat="46.20448" lon="1.99016">
        <ele>464.93</ele>
        <time>2021-08-02T20:49:45Z</time>
      </trkpt>
      <trkpt lat="46.20427" lon="1.99352">
        <ele>470.7</ele>
        <time>2021-08-02T20:49:55Z</time>
      </trkpt>
      <trkpt lat="46.20415" lon="1.99804">
        <ele>475.99</ele>
        <time>2021-08-02T20:50:07Z</time>
      </trkpt>
      <trkpt lat="46.20457" lon="2.0022">
        <ele>481.28</ele>
        <time>2021-08-02T20:50:18Z</time>
      </trkpt>
      <trkpt lat="46.20537" lon="2.00584">
        <ele>480.32</ele>
        <time>2021-08-02T20:50:28Z</time>
      </trkpt>
      <trkpt lat="46.20667" lon="2.01041">
        <ele>486.56</ele>
        <time>2021-08-02T20:50:41Z</time>
      </trkpt>
      <trkpt lat="46.20718" lon="2.01404">
        <ele>496.18</ele>
        <time>2021-08-02T20:50:51Z</time>
      </trkpt>
      <trkpt lat="46.20711" lon="2.01781">
        <ele>504.35</ele>
        <time>2021-08-02T20:51:01Z</time>
      </trkpt>
      <trkpt lat="46.20644" lon="2.02673">
        <ele>520.69</ele>
        <time>2021-08-02T20:51:25Z</time>
      </trkpt>
      <trkpt lat="46.20577" lon="2.03544">
        <ele>522.13</ele>
        <time>2021-08-02T20:51:48Z</time>
      </trkpt>
      <trkpt lat="46.20522" lon="2.03956">
        <ele>520.21</ele>
        <time>2021-08-02T20:51:59Z</time>
      </trkpt>
      <trkpt lat="46.20466" lon="2.04411">
        <ele>517.33</ele>
        <time>2021-08-02T20:52:11Z</time>
      </trkpt>
      <trkpt lat="46.20474" lon="2.04764">
        <ele>512.04</ele>
        <time>2021-08-02T20:52:20Z</time>
      </trkpt>
      <trkpt lat="46.20465" lon="2.05164">
        <ele>506.27</ele>
        <time>2021-08-02T20:52:30Z</time>
      </trkpt>
      <trkpt lat="46.20384" lon="2.06177">
        <ele>491.37</ele>
        <time>2021-08-02T20:52:55Z</time>
      </trkpt>
      <trkpt lat="46.20333" lon="2.06933">
        <ele>480.8</ele>
        <time>2021-08-02T20:53:16Z</time>
      </trkpt>
      <trkpt lat="46.20348" lon="2.07317">
        <ele>475.03</ele>
        <time>2021-08-02T20:53:26Z</time>
      </trkpt>
      <trkpt lat="46.20415" lon="2.07735">
        <ele>468.3</ele>
        <time>2021-08-02T20:53:37Z</time>
      </trkpt>
      <trkpt lat="46.20455" lon="2.08119">
        <ele>466.38</ele>
        <time>2021-08-02T20:53:46Z</time>
      </trkpt>
      <trkpt lat="46.20509" lon="2.08797">
        <ele>450.03</ele>
        <time>2021-08-02T20:54:04Z</time>
      </trkpt>
      <trkpt lat="46.2052" lon="2.09232">
        <ele>444.27</ele>
        <time>2021-08-02T20:54:15Z</time>
      </trkpt>
      <trkpt lat="46.20477" lon="2.09502">
        <ele>440.9</ele>
        <time>2021-08-02T20:54:22Z</time>
      </trkpt>
      <trkpt lat="46.20376" lon="2.09776">
        <ele>437.06</ele>
        <time>2021-08-02T20:54:30Z</time>
      </trkpt>
      <trkpt lat="46.20239" lon="2.10096">
        <ele>432.73</ele>
        <time>2021-08-02T20:54:40Z</time>
      </trkpt>
      <trkpt lat="46.20176" lon="2.10398">
        <ele>425.04</ele>
        <time>2021-08-02T20:54:47Z</time>
      </trkpt>
      <trkpt lat="46.2013" lon="2.10919">
        <ele>412.06</ele>
        <time>2021-08-02T20:55:01Z</time>
      </trkpt>
      <trkpt lat="46.20048" lon="2.11886">
        <ele>395.72</ele>
        <time>2021-08-02T20:55:26Z</time>
      </trkpt>
      <trkpt lat="46.19988" lon="2.12598">
        <ele>403.41</ele>
        <time>2021-08-02T20:55:45Z</time>
      </trkpt>
      <trkpt lat="46.19923" lon="2.13356">
        <ele>403.89</ele>
        <time>2021-08-02T20:56:05Z</time>
      </trkpt>
      <trkpt lat="46.19874" lon="2.1382">
        <ele>396.68</ele>
        <time>2021-08-02T20:56:17Z</time>
      </trkpt>
      <trkpt lat="46.19783" lon="2.14269">
        <ele>392.84</ele>
        <time>2021-08-02T20:56:29Z</time>
      </trkpt>
      <trkpt lat="46.19694" lon="2.14751">
        <ele>392.84</ele>
        <time>2021-08-02T20:56:42Z</time>
      </trkpt>
      <trkpt lat="46.19604" lon="2.1538">
        <ele>391.87</ele>
        <time>2021-08-02T20:56:59Z</time>
      </trkpt>
      <trkpt lat="46.19494" lon="2.16179">
        <ele>397.16</ele>
        <time>2021-08-02T20:57:21Z</time>
      </trkpt>
      <trkpt lat="46.19398" lon="2.16869">
        <ele>411.1</ele>
        <time>2021-08-02T20:57:40Z</time>
      </trkpt>
      <trkpt lat="46.19372" lon="2.17232">
        <ele>423.12</ele>
        <time>2021-08-02T20:57:50Z</time>
      </trkpt>
      <trkpt lat="46.19401" lon="2.17594">
        <ele>427.44</ele>
        <time>2021-08-02T20:58:00Z</time>
      </trkpt>
      <trkpt lat="46.19484" lon="2.17958">
        <ele>422.16</ele>
        <time>2021-08-02T20:58:10Z</time>
      </trkpt>
      <trkpt lat="46.19678" lon="2.18685">
        <ele>401.01</ele>
        <time>2021-08-02T20:58:28Z</time>
      </trkpt>
      <trkpt lat="46.19731" lon="2.19009">
        <ele>395.24</ele>
        <time>2021-08-02T20:58:36Z</time>
      </trkpt>
      <trkpt lat="46.19753" lon="2.19363">
        <ele>392.36</ele>
        <time>2021-08-02T20:58:46Z</time>
      </trkpt>
      <trkpt lat="46.19798" lon="2.20228">
        <ele>386.11</ele>
        <time>2021-08-02T20:59:08Z</time>
      </trkpt>
      <trkpt lat="46.19785" lon="2.20587">
        <ele>382.74</ele>
        <time>2021-08-02T20:59:17Z</time>
      </trkpt>
      <trkpt lat="46.19714" lon="2.20973">
        <ele>381.78</ele>
        <time>2021-08-02T20:59:27Z</time>
      </trkpt>
      <trkpt lat="46.19563" lon="2.21709">
        <ele>378.42</ele>
        <time>2021-08-02T20:59:47Z</time>
      </trkpt>
      <trkpt lat="46.19526" lon="2.22009">
        <ele>379.86</ele>
        <time>2021-08-02T20:59:55Z</time>
      </trkpt>
      <trkpt lat="46.19542" lon="2.22312">
        <ele>379.38</ele>
        <time>2021-08-02T21:00:03Z</time>
      </trkpt>
      <trkpt lat="46.19614" lon="2.22678">
        <ele>377.94</ele>
        <time>2021-08-02T21:00:13Z</time>
      </trkpt>
      <trkpt lat="46.19757" lon="2.23292">
        <ele>374.09</ele>
        <time>2021-08-02T21:00:30Z</time>
      </trkpt>
      <trkpt lat="46.19898" lon="2.23975">
        <ele>372.65</ele>
        <time>2021-08-02T21:00:49Z</time>
      </trkpt>
      <trkpt lat="46.19914" lon="2.2434">
        <ele>374.57</ele>
        <time>2021-08-02T21:00:59Z</time>
      </trkpt>
      <trkpt lat="46.19878" lon="2.24701">
        <ele>375.53</ele>
        <time>2021-08-02T21:01:08Z</time>
      </trkpt>
      <trkpt lat="46.19838" lon="2.2505">
        <ele>379.86</ele>
        <time>2021-08-02T21:01:19Z</time>
      </trkpt>
      <trkpt lat="46.19861" lon="2.25298">
        <ele>377.94</ele>
        <time>2021-08-02T21:01:26Z</time>
      </trkpt>
      <trkpt lat="46.19933" lon="2.25532">
        <ele>379.38</ele>
        <time>2021-08-02T21:01:33Z</time>
      </trkpt>
      <trkpt lat="46.20142" lon="2.25962">
        <ele>374.09</ele>
        <time>2021-08-02T21:01:47Z</time>
      </trkpt>
      <trkpt lat="46.20463" lon="2.26609">
        <ele>370.24</ele>
        <time>2021-08-02T21:02:08Z</time>
      </trkpt>
      <trkpt lat="46.20677" lon="2.27022">
        <ele>372.65</ele>
        <time>2021-08-02T21:02:22Z</time>
      </trkpt>
      <trkpt lat="46.21043" lon="2.27617">
        <ele>371.21</ele>
        <time>2021-08-02T21:02:44Z</time>
      </trkpt>
      <trkpt lat="46.21443" lon="2.28268">
        <ele>369.28</ele>
        <time>2021-08-02T21:03:08Z</time>
      </trkpt>
      <trkpt lat="46.21625" lon="2.28619">
        <ele>369.28</ele>
        <time>2021-08-02T21:03:19Z</time>
      </trkpt>
      <trkpt lat="46.21893" lon="2.29242">
        <ele>372.65</ele>
        <time>2021-08-02T21:03:40Z</time>
      </trkpt>
      <trkpt lat="46.22132" lon="2.29767">
        <ele>380.82</ele>
        <time>2021-08-02T21:03:57Z</time>
      </trkpt>
      <trkpt lat="46.22302" lon="2.30006">
        <ele>385.63</ele>
        <time>2021-08-02T21:04:06Z</time>
      </trkpt>
      <trkpt lat="46.22545" lon="2.30293">
        <ele>395.72</ele>
        <time>2021-08-02T21:04:17Z</time>
      </trkpt>
      <trkpt lat="46.22765" lon="2.30636">
        <ele>399.57</ele>
        <time>2021-08-02T21:04:31Z</time>
      </trkpt>
      <trkpt lat="46.23143" lon="2.31242">
        <ele>409.18</ele>
        <time>2021-08-02T21:04:53Z</time>
      </trkpt>
      <trkpt lat="46.23546" lon="2.31908">
        <ele>414.95</ele>
        <time>2021-08-02T21:05:16Z</time>
      </trkpt>
      <trkpt lat="46.23735" lon="2.3233">
        <ele>408.7</ele>
        <time>2021-08-02T21:05:28Z</time>
      </trkpt>
      <trkpt lat="46.23851" lon="2.3269">
        <ele>396.68</ele>
        <time>2021-08-02T21:05:39Z</time>
      </trkpt>
      <trkpt lat="46.24035" lon="2.33279">
        <ele>396.2</ele>
        <time>2021-08-02T21:05:55Z</time>
      </trkpt>
      <trkpt lat="46.24231" lon="2.33744">
        <ele>401.01</ele>
        <time>2021-08-02T21:06:08Z</time>
      </trkpt>
      <trkpt lat="46.24534" lon="2.34419">
        <ele>412.06</ele>
        <time>2021-08-02T21:06:30Z</time>
      </trkpt>
      <trkpt lat="46.2477" lon="2.34921">
        <ele>420.71</ele>
        <time>2021-08-02T21:06:45Z</time>
      </trkpt>
      <trkpt lat="46.24929" lon="2.35151">
        <ele>429.37</ele>
        <time>2021-08-02T21:06:53Z</time>
      </trkpt>
      <trkpt lat="46.25257" lon="2.35521">
        <ele>439.46</ele>
        <time>2021-08-02T21:07:07Z</time>
      </trkpt>
      <trkpt lat="46.25765" lon="2.36079">
        <ele>453.88</ele>
        <time>2021-08-02T21:07:31Z</time>
      </trkpt>
      <trkpt lat="46.26232" lon="2.36609">
        <ele>448.59</ele>
        <time>2021-08-02T21:07:52Z</time>
      </trkpt>
      <trkpt lat="46.2645" lon="2.36931">
        <ele>444.75</ele>
        <time>2021-08-02T21:08:03Z</time>
      </trkpt>
      <trkpt lat="46.26825" lon="2.37554">
        <ele>441.38</ele>
        <time>2021-08-02T21:08:22Z</time>
      </trkpt>
      <trkpt lat="46.27144" lon="2.38085">
        <ele>451.48</ele>
        <time>2021-08-02T21:08:41Z</time>
      </trkpt>
      <trkpt lat="46.27608" lon="2.38855">
        <ele>451.48</ele>
        <time>2021-08-02T21:09:07Z</time>
      </trkpt>
      <trkpt lat="46.27906" lon="2.39351">
        <ele>458.21</ele>
        <time>2021-08-02T21:09:25Z</time>
      </trkpt>
      <trkpt lat="46.28216" lon="2.39862">
        <ele>450.52</ele>
        <time>2021-08-02T21:09:43Z</time>
      </trkpt>
      <trkpt lat="46.28434" lon="2.40221">
        <ele>463.01</ele>
        <time>2021-08-02T21:09:56Z</time>
      </trkpt>
      <trkpt lat="46.28786" lon="2.40819">
        <ele>466.38</ele>
        <time>2021-08-02T21:10:18Z</time>
      </trkpt>
      <trkpt lat="46.28951" lon="2.41191">
        <ele>469.74</ele>
        <time>2021-08-02T21:10:30Z</time>
      </trkpt>
      <trkpt lat="46.29275" lon="2.42092">
        <ele>474.55</ele>
        <time>2021-08-02T21:10:57Z</time>
      </trkpt>
      <trkpt lat="46.29433" lon="2.42531">
        <ele>480.32</ele>
        <time>2021-08-02T21:11:10Z</time>
      </trkpt>
      <trkpt lat="46.29617" lon="2.43035">
        <ele>486.56</ele>
        <time>2021-08-02T21:11:25Z</time>
      </trkpt>
      <trkpt lat="46.29761" lon="2.43354">
        <ele>486.56</ele>
        <time>2021-08-02T21:11:35Z</time>
      </trkpt>
      <trkpt lat="46.29944" lon="2.43655">
        <ele>480.32</ele>
        <time>2021-08-02T21:11:45Z</time>
      </trkpt>
      <trkpt lat="46.30233" lon="2.44069">
        <ele>461.57</ele>
        <time>2021-08-02T21:11:59Z</time>
      </trkpt>
      <trkpt lat="46.30405" lon="2.44405">
        <ele>449.55</ele>
        <time>2021-08-02T21:12:09Z</time>
      </trkpt>
      <trkpt lat="46.3054" lon="2.44782">
        <ele>438.5</ele>
        <time>2021-08-02T21:12:19Z</time>
      </trkpt>
      <trkpt lat="46.30707" lon="2.45343">
        <ele>449.55</ele>
        <time>2021-08-02T21:12:34Z</time>
      </trkpt>
      <trkpt lat="46.30886" lon="2.45952">
        <ele>450.03</ele>
        <time>2021-08-02T21:12:51Z</time>
      </trkpt>
      <trkpt lat="46.31114" lon="2.46692">
        <ele>427.92</ele>
        <time>2021-08-02T21:13:10Z</time>
      </trkpt>
      <trkpt lat="46.31287" lon="2.47113">
        <ele>413.5</ele>
        <time>2021-08-02T21:13:23Z</time>
      </trkpt>
      <trkpt lat="46.31442" lon="2.47529">
        <ele>407.74</ele>
        <time>2021-08-02T21:13:35Z</time>
      </trkpt>
      <trkpt lat="46.31554" lon="2.47968">
        <ele>401.97</ele>
        <time>2021-08-02T21:13:47Z</time>
      </trkpt>
      <trkpt lat="46.31621" lon="2.48439">
        <ele>397.64</ele>
        <time>2021-08-02T21:13:59Z</time>
      </trkpt>
      <trkpt lat="46.31656" lon="2.49051">
        <ele>392.36</ele>
        <time>2021-08-02T21:14:14Z</time>
      </trkpt>
      <trkpt lat="46.31702" lon="2.49833">
        <ele>392.36</ele>
        <time>2021-08-02T21:14:34Z</time>
      </trkpt>
      <trkpt lat="46.31752" lon="2.50168">
        <ele>391.39</ele>
        <time>2021-08-02T21:14:43Z</time>
      </trkpt>
      <trkpt lat="46.31892" lon="2.50862">
        <ele>377.45</ele>
        <time>2021-08-02T21:15:00Z</time>
      </trkpt>
      <trkpt lat="46.32079" lon="2.51767">
        <ele>355.34</ele>
        <time>2021-08-02T21:15:25Z</time>
      </trkpt>
      <trkpt lat="46.32214" lon="2.52323">
        <ele>344.29</ele>
        <time>2021-08-02T21:15:39Z</time>
      </trkpt>
      <trkpt lat="46.32495" lon="2.53133">
        <ele>322.18</ele>
        <time>2021-08-02T21:16:03Z</time>
      </trkpt>
      <trkpt lat="46.32606" lon="2.53357">
        <ele>315.93</ele>
        <time>2021-08-02T21:16:10Z</time>
      </trkpt>
      <trkpt lat="46.32755" lon="2.53531">
        <ele>306.8</ele>
        <time>2021-08-02T21:16:17Z</time>
      </trkpt>
      <trkpt lat="46.32925" lon="2.53644">
        <ele>308.24</ele>
        <time>2021-08-02T21:16:24Z</time>
      </trkpt>
      <trkpt lat="46.3312" lon="2.53688">
        <ele>308.24</ele>
        <time>2021-08-02T21:16:31Z</time>
      </trkpt>
      <trkpt lat="46.33292" lon="2.53692">
        <ele>305.36</ele>
        <time>2021-08-02T21:16:40Z</time>
      </trkpt>
      <trkpt lat="46.33363" lon="2.53695">
        <ele>307.76</ele>
        <time>2021-08-02T21:16:44Z</time>
      </trkpt>
      <trkpt lat="46.33376" lon="2.537">
        <ele>309.2</ele>
        <time>2021-08-02T21:16:45Z</time>
      </trkpt>
      <trkpt lat="46.33391" lon="2.53708">
        <ele>308.72</ele>
        <time>2021-08-02T21:16:46Z</time>
      </trkpt>
      <trkpt lat="46.33405" lon="2.53717">
        <ele>308.72</ele>
        <time>2021-08-02T21:16:47Z</time>
      </trkpt>
      <trkpt lat="46.33416" lon="2.53727">
        <ele>309.2</ele>
        <time>2021-08-02T21:16:48Z</time>
      </trkpt>
      <trkpt lat="46.33428" lon="2.53739">
        <ele>308.24</ele>
        <time>2021-08-02T21:16:49Z</time>
      </trkpt>
      <trkpt lat="46.33439" lon="2.53754">
        <ele>307.76</ele>
        <time>2021-08-02T21:16:50Z</time>
      </trkpt>
      <trkpt lat="46.33451" lon="2.53769">
        <ele>307.76</ele>
        <time>2021-08-02T21:16:51Z</time>
      </trkpt>
      <trkpt lat="46.33462" lon="2.53785">
        <ele>306.8</ele>
        <time>2021-08-02T21:16:52Z</time>
      </trkpt>
      <trkpt lat="46.33473" lon="2.53803">
        <ele>306.8</ele>
        <time>2021-08-02T21:16:53Z</time>
      </trkpt>
      <trkpt lat="46.33479" lon="2.53825">
        <ele>306.32</ele>
        <time>2021-08-02T21:16:54Z</time>
      </trkpt>
      <trkpt lat="46.33485" lon="2.53848">
        <ele>305.84</ele>
        <time>2021-08-02T21:16:55Z</time>
      </trkpt>
      <trkpt lat="46.33489" lon="2.53872">
        <ele>305.84</ele>
        <time>2021-08-02T21:16:56Z</time>
      </trkpt>
      <trkpt lat="46.33492" lon="2.53897">
        <ele>306.32</ele>
        <time>2021-08-02T21:16:57Z</time>
      </trkpt>
      <trkpt lat="46.33492" lon="2.53922">
        <ele>306.8</ele>
        <time>2021-08-02T21:16:58Z</time>
      </trkpt>
      <trkpt lat="46.33491" lon="2.53946">
        <ele>306.8</ele>
        <time>2021-08-02T21:16:59Z</time>
      </trkpt>
      <trkpt lat="46.33487" lon="2.54045">
        <ele>309.2</ele>
        <time>2021-08-02T21:17:04Z</time>
      </trkpt>
      <trkpt lat="46.33486" lon="2.54063">
        <ele>309.2</ele>
        <time>2021-08-02T21:17:05Z</time>
      </trkpt>
      <trkpt lat="46.33472" lon="2.54072">
        <ele>309.68</ele>
        <time>2021-08-02T21:17:07Z</time>
      </trkpt>
      <trkpt lat="46.33471" lon="2.54093">
        <ele>309.68</ele>
        <time>2021-08-02T21:17:08Z</time>
      </trkpt>
      <trkpt lat="46.33474" lon="2.54122">
        <ele>309.68</ele>
        <time>2021-08-02T21:17:10Z</time>
      </trkpt>
      <trkpt lat="46.33474" lon="2.54122">
        <ele>310.16</ele>
        <time>2021-08-02T21:17:11Z</time>
      </trkpt>
      <trkpt lat="46.3347" lon="2.54135">
        <ele>310.16</ele>
        <time>2021-08-02T21:17:12Z</time>
      </trkpt>
      <trkpt lat="46.3346" lon="2.54177">
        <ele>310.16</ele>
        <time>2021-08-02T21:17:15Z</time>
      </trkpt>
      <trkpt lat="46.33457" lon="2.54191">
        <ele>310.64</ele>
        <time>2021-08-02T21:17:16Z</time>
      </trkpt>
      <trkpt lat="46.33458" lon="2.54205">
        <ele>310.64</ele>
        <time>2021-08-02T21:17:17Z</time>
      </trkpt>
      <trkpt lat="46.33461" lon="2.54221">
        <ele>309.68</ele>
        <time>2021-08-02T21:17:18Z</time>
      </trkpt>
      <trkpt lat="46.3347" lon="2.54251">
        <ele>308.24</ele>
        <time>2021-08-02T21:17:19Z</time>
      </trkpt>
      <trkpt lat="46.33535" lon="2.54411">
        <ele>305.36</ele>
        <time>2021-08-02T21:17:29Z</time>
      </trkpt>
      <trkpt lat="46.33662" lon="2.54733">
        <ele>290.94</ele>
        <time>2021-08-02T21:17:44Z</time>
      </trkpt>
      <trkpt lat="46.33723" lon="2.54987">
        <ele>283.73</ele>
        <time>2021-08-02T21:17:54Z</time>
      </trkpt>
      <trkpt lat="46.33751" lon="2.5532">
        <ele>274.59</ele>
        <time>2021-08-02T21:18:07Z</time>
      </trkpt>
      <trkpt lat="46.33773" lon="2.55897">
        <ele>257.29</ele>
        <time>2021-08-02T21:18:30Z</time>
      </trkpt>
      <trkpt lat="46.33782" lon="2.56068">
        <ele>252.48</ele>
        <time>2021-08-02T21:18:39Z</time>
      </trkpt>
      <trkpt lat="46.33784" lon="2.56176">
        <ele>249.6</ele>
        <time>2021-08-02T21:18:47Z</time>
      </trkpt>
      <trkpt lat="46.33784" lon="2.56215">
        <ele>249.12</ele>
        <time>2021-08-02T21:18:52Z</time>
      </trkpt>
      <trkpt lat="46.33784" lon="2.56215">
        <ele>249.12</ele>
        <time>2021-08-02T21:18:53Z</time>
      </trkpt>
      <trkpt lat="46.3378" lon="2.56221">
        <ele>249.12</ele>
        <time>2021-08-02T21:18:54Z</time>
      </trkpt>
      <trkpt lat="46.33777" lon="2.56227">
        <ele>248.64</ele>
        <time>2021-08-02T21:18:55Z</time>
      </trkpt>
      <trkpt lat="46.33763" lon="2.56219">
        <ele>247.68</ele>
        <time>2021-08-02T21:18:56Z</time>
      </trkpt>
      <trkpt lat="46.33763" lon="2.56219">
        <ele>247.2</ele>
        <time>2021-08-02T21:18:57Z</time>
      </trkpt>
      <trkpt lat="46.33749" lon="2.5621">
        <ele>246.23</ele>
        <time>2021-08-02T21:18:58Z</time>
      </trkpt>
      <trkpt lat="46.33749" lon="2.5621">
        <ele>245.75</ele>
        <time>2021-08-02T21:18:59Z</time>
      </trkpt>
      <trkpt lat="46.33741" lon="2.56203">
        <ele>245.75</ele>
        <time>2021-08-02T21:19:00Z</time>
      </trkpt>
      <trkpt lat="46.33734" lon="2.56192">
        <ele>245.27</ele>
        <time>2021-08-02T21:19:01Z</time>
      </trkpt>
      <trkpt lat="46.33727" lon="2.5618">
        <ele>245.27</ele>
        <time>2021-08-02T21:19:02Z</time>
      </trkpt>
      <trkpt lat="46.33706" lon="2.56145">
        <ele>244.31</ele>
        <time>2021-08-02T21:19:05Z</time>
      </trkpt>
      <trkpt lat="46.33699" lon="2.56136">
        <ele>243.83</ele>
        <time>2021-08-02T21:19:06Z</time>
      </trkpt>
      <trkpt lat="46.33689" lon="2.56126">
        <ele>243.83</ele>
        <time>2021-08-02T21:19:07Z</time>
      </trkpt>
      <trkpt lat="46.33679" lon="2.56117">
        <ele>244.31</ele>
        <time>2021-08-02T21:19:08Z</time>
      </trkpt>
      <trkpt lat="46.3367" lon="2.5611">
        <ele>243.83</ele>
        <time>2021-08-02T21:19:09Z</time>
      </trkpt>
      <trkpt lat="46.33658" lon="2.56108">
        <ele>243.35</ele>
        <time>2021-08-02T21:19:10Z</time>
      </trkpt>
      <trkpt lat="46.33646" lon="2.56106">
        <ele>242.87</ele>
        <time>2021-08-02T21:19:11Z</time>
      </trkpt>
      <trkpt lat="46.33634" lon="2.56104">
        <ele>243.35</ele>
        <time>2021-08-02T21:19:12Z</time>
      </trkpt>
      <trkpt lat="46.33557" lon="2.56089">
        <ele>241.43</ele>
        <time>2021-08-02T21:19:21Z</time>
      </trkpt>
      <trkpt lat="46.33519" lon="2.56067">
        <ele>240.95</ele>
        <time>2021-08-02T21:19:30Z</time>
      </trkpt>
      <trkpt lat="46.33516" lon="2.56064">
        <ele>240.95</ele>
        <time>2021-08-02T21:19:31Z</time>
      </trkpt>
      <trkpt lat="46.33513" lon="2.56062">
        <ele>240.95</ele>
        <time>2021-08-02T21:19:32Z</time>
      </trkpt>
      <trkpt lat="46.33511" lon="2.56057">
        <ele>240.95</ele>
        <time>2021-08-02T21:19:33Z</time>
      </trkpt>
      <trkpt lat="46.33508" lon="2.56052">
        <ele>240.47</ele>
        <time>2021-08-02T21:19:34Z</time>
      </trkpt>
      <trkpt lat="46.33505" lon="2.56046">
        <ele>240.47</ele>
        <time>2021-08-02T21:19:35Z</time>
      </trkpt>
      <trkpt lat="46.33501" lon="2.5604">
        <ele>240.47</ele>
        <time>2021-08-02T21:19:36Z</time>
      </trkpt>
      <trkpt lat="46.33499" lon="2.56032">
        <ele>240.95</ele>
        <time>2021-08-02T21:19:37Z</time>
      </trkpt>
      <trkpt lat="46.33457" lon="2.55888">
        <ele>241.91</ele>
        <time>2021-08-02T21:19:51Z</time>
      </trkpt>
      <trkpt lat="46.33443" lon="2.55861">
        <ele>241.43</ele>
        <time>2021-08-02T21:19:55Z</time>
      </trkpt>
      <trkpt lat="46.33438" lon="2.55854">
        <ele>241.43</ele>
        <time>2021-08-02T21:19:56Z</time>
      </trkpt>
      <trkpt lat="46.33431" lon="2.55847">
        <ele>241.43</ele>
        <time>2021-08-02T21:19:57Z</time>
      </trkpt>
      <trkpt lat="46.33425" lon="2.55841">
        <ele>241.43</ele>
        <time>2021-08-02T21:19:58Z</time>
      </trkpt>
      <trkpt lat="46.3342" lon="2.55836">
        <ele>241.91</ele>
        <time>2021-08-02T21:19:59Z</time>
      </trkpt>
      <trkpt lat="46.33415" lon="2.55833">
        <ele>241.91</ele>
        <time>2021-08-02T21:20:00Z</time>
      </trkpt>
      <trkpt lat="46.33408" lon="2.5583">
        <ele>241.91</ele>
        <time>2021-08-02T21:20:01Z</time>
      </trkpt>
      <trkpt lat="46.33401" lon="2.55826">
        <ele>241.91</ele>
        <time>2021-08-02T21:20:02Z</time>
      </trkpt>
      <trkpt lat="46.33335" lon="2.55792">
        <ele>239.51</ele>
        <time>2021-08-02T21:20:12Z</time>
      </trkpt>
      <trkpt lat="46.33224" lon="2.55734">
        <ele>239.02</ele>
        <time>2021-08-02T21:20:22Z</time>
      </trkpt>
      <trkpt lat="46.33146" lon="2.55677">
        <ele>239.51</ele>
        <time>2021-08-02T21:20:31Z</time>
      </trkpt>
      <trkpt lat="46.33108" lon="2.5565">
        <ele>240.47</ele>
        <time>2021-08-02T21:20:38Z</time>
      </trkpt>
      <trkpt lat="46.33039" lon="2.55552">
        <ele>239.02</ele>
        <time>2021-08-02T21:20:47Z</time>
      </trkpt>
      <trkpt lat="46.32979" lon="2.55464">
        <ele>239.02</ele>
        <time>2021-08-02T21:20:55Z</time>
      </trkpt>
      <trkpt lat="46.32975" lon="2.55458">
        <ele>239.02</ele>
        <time>2021-08-02T21:20:56Z</time>
      </trkpt>
      <trkpt lat="46.32975" lon="2.55458">
        <ele>239.02</ele>
        <time>2021-08-02T21:20:57Z</time>
      </trkpt>
      <trkpt lat="46.3297" lon="2.55454">
        <ele>239.02</ele>
        <time>2021-08-02T21:20:58Z</time>
      </trkpt>
      <trkpt lat="46.32963" lon="2.5545">
        <ele>239.02</ele>
        <time>2021-08-02T21:20:59Z</time>
      </trkpt>
      <trkpt lat="46.32956" lon="2.55447">
        <ele>239.02</ele>
        <time>2021-08-02T21:21:00Z</time>
      </trkpt>
      <trkpt lat="46.32949" lon="2.55446">
        <ele>239.51</ele>
        <time>2021-08-02T21:21:01Z</time>
      </trkpt>
      <trkpt lat="46.3294" lon="2.55445">
        <ele>239.02</ele>
        <time>2021-08-02T21:21:02Z</time>
      </trkpt>
      <trkpt lat="46.32932" lon="2.5545">
        <ele>239.51</ele>
        <time>2021-08-02T21:21:03Z</time>
      </trkpt>
      <trkpt lat="46.32923" lon="2.55455">
        <ele>239.99</ele>
        <time>2021-08-02T21:21:04Z</time>
      </trkpt>
      <trkpt lat="46.32914" lon="2.55461">
        <ele>239.99</ele>
        <time>2021-08-02T21:21:05Z</time>
      </trkpt>
      <trkpt lat="46.32838" lon="2.55527">
        <ele>242.87</ele>
        <time>2021-08-02T21:21:14Z</time>
      </trkpt>
      <trkpt lat="46.32774" lon="2.55562">
        <ele>245.75</ele>
        <time>2021-08-02T21:21:22Z</time>
      </trkpt>
      <trkpt lat="46.32766" lon="2.5557">
        <ele>246.72</ele>
        <time>2021-08-02T21:21:23Z</time>
      </trkpt>
      <trkpt lat="46.32757" lon="2.55579">
        <ele>243.83</ele>
        <time>2021-08-02T21:21:24Z</time>
      </trkpt>
      <trkpt lat="46.32748" lon="2.55592">
        <ele>243.83</ele>
        <time>2021-08-02T21:21:25Z</time>
      </trkpt>
      <trkpt lat="46.32743" lon="2.55608">
        <ele>243.83</ele>
        <time>2021-08-02T21:21:26Z</time>
      </trkpt>
      <trkpt lat="46.32678" lon="2.55784">
        <ele>248.16</ele>
        <time>2021-08-02T21:21:36Z</time>
      </trkpt>
      <trkpt lat="46.32633" lon="2.55885">
        <ele>251.52</ele>
        <time>2021-08-02T21:21:43Z</time>
      </trkpt>
      <trkpt lat="46.32619" lon="2.55915">
        <ele>250.08</ele>
        <time>2021-08-02T21:21:49Z</time>
      </trkpt>
      <trkpt lat="46.32612" lon="2.55912">
        <ele>250.08</ele>
        <time>2021-08-02T21:21:51Z</time>
      </trkpt>
      <trkpt lat="46.32609" lon="2.5591">
        <ele>249.6</ele>
        <time>2021-08-02T21:21:52Z</time>
      </trkpt>
      <trkpt lat="46.32604" lon="2.55908">
        <ele>250.08</ele>
        <time>2021-08-02T21:21:53Z</time>
      </trkpt>
      <trkpt lat="46.32561" lon="2.55889">
        <ele>251.52</ele>
        <time>2021-08-02T21:21:59Z</time>
      </trkpt>
      <trkpt lat="46.32543" lon="2.55891">
        <ele>252</ele>
        <time>2021-08-02T21:22:00Z</time>
      </trkpt>
      <trkpt lat="46.32543" lon="2.55891">
        <ele>252</ele>
        <time>2021-08-02T21:22:01Z</time>
      </trkpt>
      <trkpt lat="46.32501" lon="2.55906">
        <ele>252.48</ele>
        <time>2021-08-02T21:22:06Z</time>
      </trkpt>
      <trkpt lat="46.32496" lon="2.55907">
        <ele>252.48</ele>
        <time>2021-08-02T21:22:07Z</time>
      </trkpt>
      <trkpt lat="46.32496" lon="2.55907">
        <ele>252.48</ele>
        <time>2021-08-02T21:22:08Z</time>
      </trkpt>
      <trkpt lat="46.32485" lon="2.55902">
        <ele>252.96</ele>
        <time>2021-08-02T21:22:09Z</time>
      </trkpt>
      <trkpt lat="46.32483" lon="2.55906">
        <ele>252.96</ele>
        <time>2021-08-02T21:22:10Z</time>
      </trkpt>
      <trkpt lat="46.32482" lon="2.55914">
        <ele>253.44</ele>
        <time>2021-08-02T21:22:11Z</time>
      </trkpt>
      <trkpt lat="46.32483" lon="2.55915">
        <ele>253.93</ele>
        <time>2021-08-02T21:22:12Z</time>
      </trkpt>
      <trkpt lat="46.32483" lon="2.55915">
        <ele>254.41</ele>
        <time>2021-08-02T21:22:13Z</time>
      </trkpt>
      <trkpt lat="46.32495" lon="2.55929">
        <ele>254.89</ele>
        <time>2021-08-02T21:22:14Z</time>
      </trkpt>
      <trkpt lat="46.32495" lon="2.55929">
        <ele>254.89</ele>
        <time>2021-08-02T21:22:15Z</time>
      </trkpt>
      <trkpt lat="46.32498" lon="2.55937">
        <ele>255.37</ele>
        <time>2021-08-02T21:22:16Z</time>
      </trkpt>
      <trkpt lat="46.32501" lon="2.55947">
        <ele>255.85</ele>
        <time>2021-08-02T21:22:17Z</time>
      </trkpt>
      <trkpt lat="46.32538" lon="2.56055">
        <ele>262.1</ele>
        <time>2021-08-02T21:22:24Z</time>
      </trkpt>
      <trkpt lat="46.3257" lon="2.56271">
        <ele>267.86</ele>
        <time>2021-08-02T21:22:34Z</time>
      </trkpt>
      <trkpt lat="46.32655" lon="2.56577">
        <ele>268.83</ele>
        <time>2021-08-02T21:22:50Z</time>
      </trkpt>
      <trkpt lat="46.32761" lon="2.56863">
        <ele>263.54</ele>
        <time>2021-08-02T21:23:04Z</time>
      </trkpt>
      <trkpt lat="46.32774" lon="2.56897">
        <ele>262.1</ele>
        <time>2021-08-02T21:23:06Z</time>
      </trkpt>
      <trkpt lat="46.32798" lon="2.56989">
        <ele>254.41</ele>
        <time>2021-08-02T21:23:11Z</time>
      </trkpt>
      <trkpt lat="46.32802" lon="2.57009">
        <ele>254.41</ele>
        <time>2021-08-02T21:23:12Z</time>
      </trkpt>
      <trkpt lat="46.32807" lon="2.57027">
        <ele>254.89</ele>
        <time>2021-08-02T21:23:13Z</time>
      </trkpt>
      <trkpt lat="46.32907" lon="2.5725">
        <ele>245.75</ele>
        <time>2021-08-02T21:23:25Z</time>
      </trkpt>
      <trkpt lat="46.32914" lon="2.57267">
        <ele>245.27</ele>
        <time>2021-08-02T21:23:26Z</time>
      </trkpt>
      <trkpt lat="46.32934" lon="2.57321">
        <ele>243.83</ele>
        <time>2021-08-02T21:23:29Z</time>
      </trkpt>
      <trkpt lat="46.3294" lon="2.57338">
        <ele>244.31</ele>
        <time>2021-08-02T21:23:30Z</time>
      </trkpt>
      <trkpt lat="46.32947" lon="2.57355">
        <ele>243.83</ele>
        <time>2021-08-02T21:23:31Z</time>
      </trkpt>
      <trkpt lat="46.32957" lon="2.57368">
        <ele>244.31</ele>
        <time>2021-08-02T21:23:32Z</time>
      </trkpt>
      <trkpt lat="46.32967" lon="2.57382">
        <ele>244.31</ele>
        <time>2021-08-02T21:23:33Z</time>
      </trkpt>
      <trkpt lat="46.32977" lon="2.57392">
        <ele>243.83</ele>
        <time>2021-08-02T21:23:34Z</time>
      </trkpt>
      <trkpt lat="46.33065" lon="2.57467">
        <ele>243.35</ele>
        <time>2021-08-02T21:23:41Z</time>
      </trkpt>
      <trkpt lat="46.33083" lon="2.57495">
        <ele>244.79</ele>
        <time>2021-08-02T21:23:42Z</time>
      </trkpt>
      <trkpt lat="46.33083" lon="2.57495">
        <ele>245.27</ele>
        <time>2021-08-02T21:23:43Z</time>
      </trkpt>
      <trkpt lat="46.33091" lon="2.57507">
        <ele>245.27</ele>
        <time>2021-08-02T21:23:44Z</time>
      </trkpt>
      <trkpt lat="46.33099" lon="2.57524">
        <ele>245.27</ele>
        <time>2021-08-02T21:23:45Z</time>
      </trkpt>
      <trkpt lat="46.33146" lon="2.57637">
        <ele>247.2</ele>
        <time>2021-08-02T21:23:54Z</time>
      </trkpt>
      <trkpt lat="46.33156" lon="2.57662">
        <ele>246.72</ele>
        <time>2021-08-02T21:24:00Z</time>
      </trkpt>
      <trkpt lat="46.33153" lon="2.5767">
        <ele>246.72</ele>
        <time>2021-08-02T21:24:01Z</time>
      </trkpt>
      <trkpt lat="46.33149" lon="2.57675">
        <ele>246.72</ele>
        <time>2021-08-02T21:24:02Z</time>
      </trkpt>
      <trkpt lat="46.33144" lon="2.57679">
        <ele>246.23</ele>
        <time>2021-08-02T21:24:03Z</time>
      </trkpt>
      <trkpt lat="46.33139" lon="2.57685">
        <ele>246.23</ele>
        <time>2021-08-02T21:24:04Z</time>
      </trkpt>
      <trkpt lat="46.33133" lon="2.5769">
        <ele>246.23</ele>
        <time>2021-08-02T21:24:05Z</time>
      </trkpt>
      <trkpt lat="46.33063" lon="2.57773">
        <ele>242.39</ele>
        <time>2021-08-02T21:24:14Z</time>
      </trkpt>
      <trkpt lat="46.3305" lon="2.57794">
        <ele>241.43</ele>
        <time>2021-08-02T21:24:15Z</time>
      </trkpt>
      <trkpt lat="46.33037" lon="2.57824">
        <ele>240.95</ele>
        <time>2021-08-02T21:24:19Z</time>
      </trkpt>
      <trkpt lat="46.33027" lon="2.57842">
        <ele>240.95</ele>
        <time>2021-08-02T21:24:20Z</time>
      </trkpt>
      <trkpt lat="46.33023" lon="2.57855">
        <ele>240.47</ele>
        <time>2021-08-02T21:24:21Z</time>
      </trkpt>
      <trkpt lat="46.33023" lon="2.57855">
        <ele>239.99</ele>
        <time>2021-08-02T21:24:22Z</time>
      </trkpt>
      <trkpt lat="46.33021" lon="2.5786">
        <ele>239.99</ele>
        <time>2021-08-02T21:24:23Z</time>
      </trkpt>
      <trkpt lat="46.33015" lon="2.57882">
        <ele>239.51</ele>
        <time>2021-08-02T21:24:24Z</time>
      </trkpt>
      <trkpt lat="46.33015" lon="2.57882">
        <ele>238.54</ele>
        <time>2021-08-02T21:24:25Z</time>
      </trkpt>
      <trkpt lat="46.33011" lon="2.57895">
        <ele>237.58</ele>
        <time>2021-08-02T21:24:26Z</time>
      </trkpt>
      <trkpt lat="46.32954" lon="2.58077">
        <ele>231.33</ele>
        <time>2021-08-02T21:24:38Z</time>
      </trkpt>
      <trkpt lat="46.32951" lon="2.58087">
        <ele>231.33</ele>
        <time>2021-08-02T21:24:39Z</time>
      </trkpt>
      <trkpt lat="46.32943" lon="2.58103">
        <ele>231.33</ele>
        <time>2021-08-02T21:24:41Z</time>
      </trkpt>
      <trkpt lat="46.32943" lon="2.58114">
        <ele>231.33</ele>
        <time>2021-08-02T21:24:42Z</time>
      </trkpt>
      <trkpt lat="46.32941" lon="2.58121">
        <ele>231.33</ele>
        <time>2021-08-02T21:24:43Z</time>
      </trkpt>
      <trkpt lat="46.32939" lon="2.5813">
        <ele>231.33</ele>
        <time>2021-08-02T21:24:44Z</time>
      </trkpt>
      <trkpt lat="46.32936" lon="2.58141">
        <ele>230.85</ele>
        <time>2021-08-02T21:24:45Z</time>
      </trkpt>
      <trkpt lat="46.32929" lon="2.58165">
        <ele>230.37</ele>
        <time>2021-08-02T21:24:46Z</time>
      </trkpt>
      <trkpt lat="46.32917" lon="2.58199">
        <ele>229.41</ele>
        <time>2021-08-02T21:24:49Z</time>
      </trkpt>
      <trkpt lat="46.32913" lon="2.58209">
        <ele>229.89</ele>
        <time>2021-08-02T21:24:50Z</time>
      </trkpt>
      <trkpt lat="46.3291" lon="2.58216">
        <ele>229.89</ele>
        <time>2021-08-02T21:24:51Z</time>
      </trkpt>
      <trkpt lat="46.3291" lon="2.58216">
        <ele>230.37</ele>
        <time>2021-08-02T21:24:52Z</time>
      </trkpt>
      <trkpt lat="46.32896" lon="2.58211">
        <ele>230.85</ele>
        <time>2021-08-02T21:24:53Z</time>
      </trkpt>
      <trkpt lat="46.32889" lon="2.58222">
        <ele>230.85</ele>
        <time>2021-08-02T21:24:54Z</time>
      </trkpt>
      <trkpt lat="46.32889" lon="2.58229">
        <ele>231.81</ele>
        <time>2021-08-02T21:24:55Z</time>
      </trkpt>
      <trkpt lat="46.32892" lon="2.58235">
        <ele>232.3</ele>
        <time>2021-08-02T21:24:56Z</time>
      </trkpt>
      <trkpt lat="46.32892" lon="2.58235">
        <ele>232.78</ele>
        <time>2021-08-02T21:24:57Z</time>
      </trkpt>
      <trkpt lat="46.32887" lon="2.58249">
        <ele>233.26</ele>
        <time>2021-08-02T21:24:58Z</time>
      </trkpt>
      <trkpt lat="46.32877" lon="2.58261">
        <ele>233.74</ele>
        <time>2021-08-02T21:24:59Z</time>
      </trkpt>
      <trkpt lat="46.3287" lon="2.58268">
        <ele>233.74</ele>
        <time>2021-08-02T21:25:00Z</time>
      </trkpt>
      <trkpt lat="46.32863" lon="2.58276">
        <ele>234.22</ele>
        <time>2021-08-02T21:25:01Z</time>
      </trkpt>
      <trkpt lat="46.32815" lon="2.58346">
        <ele>237.1</ele>
        <time>2021-08-02T21:25:08Z</time>
      </trkpt>
      <trkpt lat="46.3281" lon="2.5836">
        <ele>238.06</ele>
        <time>2021-08-02T21:25:09Z</time>
      </trkpt>
      <trkpt lat="46.32804" lon="2.58374">
        <ele>239.99</ele>
        <time>2021-08-02T21:25:10Z</time>
      </trkpt>
      <trkpt lat="46.32795" lon="2.58403">
        <ele>240.47</ele>
        <time>2021-08-02T21:25:11Z</time>
      </trkpt>
      <trkpt lat="46.32795" lon="2.58403">
        <ele>240.95</ele>
        <time>2021-08-02T21:25:12Z</time>
      </trkpt>
      <trkpt lat="46.32795" lon="2.58419">
        <ele>241.91</ele>
        <time>2021-08-02T21:25:13Z</time>
      </trkpt>
      <trkpt lat="46.32795" lon="2.58434">
        <ele>242.39</ele>
        <time>2021-08-02T21:25:14Z</time>
      </trkpt>
      <trkpt lat="46.32795" lon="2.5845">
        <ele>242.87</ele>
        <time>2021-08-02T21:25:15Z</time>
      </trkpt>
      <trkpt lat="46.32795" lon="2.5848">
        <ele>243.83</ele>
        <time>2021-08-02T21:25:16Z</time>
      </trkpt>
      <trkpt lat="46.32795" lon="2.5848">
        <ele>245.27</ele>
        <time>2021-08-02T21:25:17Z</time>
      </trkpt>
      <trkpt lat="46.32799" lon="2.58498">
        <ele>247.68</ele>
        <time>2021-08-02T21:25:18Z</time>
      </trkpt>
      <trkpt lat="46.32804" lon="2.58514">
        <ele>249.12</ele>
        <time>2021-08-02T21:25:19Z</time>
      </trkpt>
      <trkpt lat="46.3281" lon="2.58533">
        <ele>251.04</ele>
        <time>2021-08-02T21:25:20Z</time>
      </trkpt>
      <trkpt lat="46.32817" lon="2.58552">
        <ele>252.48</ele>
        <time>2021-08-02T21:25:21Z</time>
      </trkpt>
      <trkpt lat="46.3283" lon="2.58589">
        <ele>253.93</ele>
        <time>2021-08-02T21:25:23Z</time>
      </trkpt>
      <trkpt lat="46.32837" lon="2.58609">
        <ele>254.89</ele>
        <time>2021-08-02T21:25:24Z</time>
      </trkpt>
      <trkpt lat="46.32844" lon="2.58628">
        <ele>254.89</ele>
        <time>2021-08-02T21:25:25Z</time>
      </trkpt>
      <trkpt lat="46.32845" lon="2.5865">
        <ele>255.85</ele>
        <time>2021-08-02T21:25:26Z</time>
      </trkpt>
      <trkpt lat="46.32843" lon="2.58691">
        <ele>256.81</ele>
        <time>2021-08-02T21:25:27Z</time>
      </trkpt>
      <trkpt lat="46.32837" lon="2.5871">
        <ele>256.81</ele>
        <time>2021-08-02T21:25:28Z</time>
      </trkpt>
      <trkpt lat="46.32837" lon="2.5871">
        <ele>257.77</ele>
        <time>2021-08-02T21:25:29Z</time>
      </trkpt>
      <trkpt lat="46.32827" lon="2.58747">
        <ele>258.73</ele>
        <time>2021-08-02T21:25:30Z</time>
      </trkpt>
      <trkpt lat="46.32827" lon="2.58747">
        <ele>259.69</ele>
        <time>2021-08-02T21:25:31Z</time>
      </trkpt>
      <trkpt lat="46.32809" lon="2.58778">
        <ele>260.65</ele>
        <time>2021-08-02T21:25:32Z</time>
      </trkpt>
      <trkpt lat="46.32809" lon="2.58778">
        <ele>262.1</ele>
        <time>2021-08-02T21:25:33Z</time>
      </trkpt>
      <trkpt lat="46.32788" lon="2.58808">
        <ele>262.58</ele>
        <time>2021-08-02T21:25:34Z</time>
      </trkpt>
      <trkpt lat="46.32775" lon="2.5882">
        <ele>263.54</ele>
        <time>2021-08-02T21:25:35Z</time>
      </trkpt>
      <trkpt lat="46.32763" lon="2.5883">
        <ele>264.5</ele>
        <time>2021-08-02T21:25:36Z</time>
      </trkpt>
      <trkpt lat="46.32763" lon="2.5883">
        <ele>265.46</ele>
        <time>2021-08-02T21:25:37Z</time>
      </trkpt>
      <trkpt lat="46.32665" lon="2.58892">
        <ele>266.9</ele>
        <time>2021-08-02T21:25:45Z</time>
      </trkpt>
      <trkpt lat="46.32658" lon="2.58897">
        <ele>267.38</ele>
        <time>2021-08-02T21:25:46Z</time>
      </trkpt>
      <trkpt lat="46.32654" lon="2.589">
        <ele>267.38</ele>
        <time>2021-08-02T21:25:47Z</time>
      </trkpt>
      <trkpt lat="46.3264" lon="2.58888">
        <ele>267.38</ele>
        <time>2021-08-02T21:25:48Z</time>
      </trkpt>
      <trkpt lat="46.32636" lon="2.58892">
        <ele>267.38</ele>
        <time>2021-08-02T21:25:49Z</time>
      </trkpt>
      <trkpt lat="46.32634" lon="2.58905">
        <ele>267.38</ele>
        <time>2021-08-02T21:25:50Z</time>
      </trkpt>
      <trkpt lat="46.32634" lon="2.5891">
        <ele>267.38</ele>
        <time>2021-08-02T21:25:51Z</time>
      </trkpt>
      <trkpt lat="46.3264" lon="2.58916">
        <ele>266.9</ele>
        <time>2021-08-02T21:25:52Z</time>
      </trkpt>
      <trkpt lat="46.32641" lon="2.58917">
        <ele>266.9</ele>
        <time>2021-08-02T21:25:53Z</time>
      </trkpt>
      <trkpt lat="46.32655" lon="2.58917">
        <ele>266.42</ele>
        <time>2021-08-02T21:25:54Z</time>
      </trkpt>
      <trkpt lat="46.32661" lon="2.58923">
        <ele>265.94</ele>
        <time>2021-08-02T21:25:55Z</time>
      </trkpt>
      <trkpt lat="46.32667" lon="2.5893">
        <ele>264.98</ele>
        <time>2021-08-02T21:25:56Z</time>
      </trkpt>
      <trkpt lat="46.32672" lon="2.58943">
        <ele>264.5</ele>
        <time>2021-08-02T21:25:57Z</time>
      </trkpt>
      <trkpt lat="46.32677" lon="2.58954">
        <ele>263.54</ele>
        <time>2021-08-02T21:25:58Z</time>
      </trkpt>
      <trkpt lat="46.32681" lon="2.58966">
        <ele>263.06</ele>
        <time>2021-08-02T21:25:59Z</time>
      </trkpt>
      <trkpt lat="46.32701" lon="2.59022">
        <ele>257.77</ele>
        <time>2021-08-02T21:26:03Z</time>
      </trkpt>
      <trkpt lat="46.32706" lon="2.59036">
        <ele>255.37</ele>
        <time>2021-08-02T21:26:04Z</time>
      </trkpt>
      <trkpt lat="46.32749" lon="2.59127">
        <ele>245.27</ele>
        <time>2021-08-02T21:26:09Z</time>
      </trkpt>
      <trkpt lat="46.3279" lon="2.59226">
        <ele>235.66</ele>
        <time>2021-08-02T21:26:16Z</time>
      </trkpt>
      <trkpt lat="46.32822" lon="2.5933">
        <ele>224.61</ele>
        <time>2021-08-02T21:26:22Z</time>
      </trkpt>
      <trkpt lat="46.32826" lon="2.59348">
        <ele>223.64</ele>
        <time>2021-08-02T21:26:23Z</time>
      </trkpt>
      <trkpt lat="46.32863" lon="2.59532">
        <ele>211.63</ele>
        <time>2021-08-02T21:26:33Z</time>
      </trkpt>
      <trkpt lat="46.32889" lon="2.59628">
        <ele>211.15</ele>
        <time>2021-08-02T21:26:39Z</time>
      </trkpt>
      <trkpt lat="46.32891" lon="2.59658">
        <ele>215.95</ele>
        <time>2021-08-02T21:26:45Z</time>
      </trkpt>
      <trkpt lat="46.32888" lon="2.59667">
        <ele>215.47</ele>
        <time>2021-08-02T21:27:15Z</time>
      </trkpt>
      <trkpt lat="46.32886" lon="2.59672">
        <ele>215.47</ele>
        <time>2021-08-02T21:27:16Z</time>
      </trkpt>
      <trkpt lat="46.32884" lon="2.59678">
        <ele>215.47</ele>
        <time>2021-08-02T21:27:17Z</time>
      </trkpt>
      <trkpt lat="46.32881" lon="2.59685">
        <ele>215.47</ele>
        <time>2021-08-02T21:27:18Z</time>
      </trkpt>
      <trkpt lat="46.32877" lon="2.59689">
        <ele>215.47</ele>
        <time>2021-08-02T21:27:19Z</time>
      </trkpt>
      <trkpt lat="46.32872" lon="2.59694">
        <ele>215.47</ele>
        <time>2021-08-02T21:27:20Z</time>
      </trkpt>
      <trkpt lat="46.32858" lon="2.59709">
        <ele>214.99</ele>
        <time>2021-08-02T21:27:22Z</time>
      </trkpt>
      <trkpt lat="46.32858" lon="2.59709">
        <ele>214.99</ele>
        <time>2021-08-02T21:27:23Z</time>
      </trkpt>
      <trkpt lat="46.32854" lon="2.59713">
        <ele>214.51</ele>
        <time>2021-08-02T21:27:24Z</time>
      </trkpt>
      <trkpt lat="46.32855" lon="2.59731">
        <ele>214.51</ele>
        <time>2021-08-02T21:27:25Z</time>
      </trkpt>
      <trkpt lat="46.32858" lon="2.59734">
        <ele>214.03</ele>
        <time>2021-08-02T21:27:26Z</time>
      </trkpt>
      <trkpt lat="46.32862" lon="2.59737">
        <ele>214.03</ele>
        <time>2021-08-02T21:27:27Z</time>
      </trkpt>
      <trkpt lat="46.32868" lon="2.59741">
        <ele>214.03</ele>
        <time>2021-08-02T21:27:28Z</time>
      </trkpt>
      <trkpt lat="46.32884" lon="2.59756">
        <ele>213.55</ele>
        <time>2021-08-02T21:27:29Z</time>
      </trkpt>
      <trkpt lat="46.32978" lon="2.59859">
        <ele>214.03</ele>
        <time>2021-08-02T21:27:40Z</time>
      </trkpt>
      <trkpt lat="46.33095" lon="2.59987">
        <ele>215.47</ele>
        <time>2021-08-02T21:27:53Z</time>
      </trkpt>
      <trkpt lat="46.33104" lon="2.60004">
        <ele>214.99</ele>
        <time>2021-08-02T21:27:57Z</time>
      </trkpt>
      <trkpt lat="46.33103" lon="2.60013">
        <ele>214.51</ele>
        <time>2021-08-02T21:27:58Z</time>
      </trkpt>
      <trkpt lat="46.33074" lon="2.60086">
        <ele>210.67</ele>
        <time>2021-08-02T21:28:05Z</time>
      </trkpt>
      <trkpt lat="46.32994" lon="2.60262">
        <ele>208.74</ele>
        <time>2021-08-02T21:28:16Z</time>
      </trkpt>
      <trkpt lat="46.32929" lon="2.6045">
        <ele>208.74</ele>
        <time>2021-08-02T21:28:27Z</time>
      </trkpt>
      <trkpt lat="46.32915" lon="2.60502">
        <ele>206.82</ele>
        <time>2021-08-02T21:28:33Z</time>
      </trkpt>
      <trkpt lat="46.32909" lon="2.60528">
        <ele>207.78</ele>
        <time>2021-08-02T21:29:01Z</time>
      </trkpt>
      <trkpt lat="46.32876" lon="2.60636">
        <ele>209.22</ele>
        <time>2021-08-02T21:29:13Z</time>
      </trkpt>
      <trkpt lat="46.3284" lon="2.60769">
        <ele>209.7</ele>
        <time>2021-08-02T21:29:23Z</time>
      </trkpt>
      <trkpt lat="46.32821" lon="2.60845">
        <ele>212.11</ele>
        <time>2021-08-02T21:29:29Z</time>
      </trkpt>
      <trkpt lat="46.3282" lon="2.60855">
        <ele>212.59</ele>
        <time>2021-08-02T21:29:30Z</time>
      </trkpt>
      <trkpt lat="46.3281" lon="2.60867">
        <ele>212.11</ele>
        <time>2021-08-02T21:29:31Z</time>
      </trkpt>
      <trkpt lat="46.32802" lon="2.60867">
        <ele>212.11</ele>
        <time>2021-08-02T21:29:32Z</time>
      </trkpt>
      <trkpt lat="46.32794" lon="2.60866">
        <ele>212.59</ele>
        <time>2021-08-02T21:29:33Z</time>
      </trkpt>
      <trkpt lat="46.32784" lon="2.60866">
        <ele>212.59</ele>
        <time>2021-08-02T21:29:34Z</time>
      </trkpt>
    </trkseg>
  </trk>
</gpx>